<?xml version="1.0" encoding="UTF-8" standalone="no" ?>
<gpx xmlns="http://www.topografix.com/GPX/1/1" xmlns:xsi="http://www.w3.org/2001/XMLSchema-instance" xsi:schemaLocation="http://www.topografix.com/GPX/1/1 http://www.topografix.com/GPX/1/1/gpx.xsd" version="1.1" creator="VisuGPX - https://www.visugpx.com">
  <metadata>
    <name>Padirac -les berciats</name>
  </metadata>
  <trk>
    <name><![CDATA[Padirac --> Les Berciats-20558397-21297387]]></name>
    <trkseg>
      <trkpt lat="45.09465" lon="1.9384">
        <ele>193</ele>
        <time>2025-05-05T11:06:18Z</time>
      </trkpt>
      <trkpt lat="45.09488" lon="1.93844">
        <ele>193</ele>
        <time>2025-05-05T11:06:37Z</time>
      </trkpt>
      <trkpt lat="45.09491" lon="1.93847">
        <ele>193</ele>
        <time>2025-05-05T11:06:39Z</time>
      </trkpt>
      <trkpt lat="45.09515" lon="1.93855">
        <ele>193</ele>
        <time>2025-05-05T11:06:59Z</time>
      </trkpt>
      <trkpt lat="45.09528" lon="1.93852">
        <ele>193</ele>
        <time>2025-05-05T11:07:10Z</time>
      </trkpt>
      <trkpt lat="45.09548" lon="1.93857">
        <ele>193</ele>
        <time>2025-05-05T11:07:26Z</time>
      </trkpt>
      <trkpt lat="45.09555" lon="1.93856">
        <ele>193</ele>
        <time>2025-05-05T11:07:32Z</time>
      </trkpt>
      <trkpt lat="45.09712" lon="1.93902">
        <ele>192</ele>
        <time>2025-05-05T11:09:40Z</time>
      </trkpt>
      <trkpt lat="45.09742" lon="1.93913">
        <ele>192</ele>
        <time>2025-05-05T11:10:05Z</time>
      </trkpt>
      <trkpt lat="45.0978" lon="1.93931">
        <ele>191</ele>
        <time>2025-05-05T11:10:37Z</time>
      </trkpt>
      <trkpt lat="45.0986" lon="1.93976">
        <ele>190</ele>
        <time>2025-05-05T11:11:46Z</time>
      </trkpt>
      <trkpt lat="45.09962" lon="1.94019">
        <ele>189</ele>
        <time>2025-05-05T11:13:11Z</time>
      </trkpt>
      <trkpt lat="45.10086" lon="1.9408">
        <ele>189</ele>
        <time>2025-05-05T11:14:56Z</time>
      </trkpt>
      <trkpt lat="45.10118" lon="1.94093">
        <ele>189</ele>
        <time>2025-05-05T11:15:23Z</time>
      </trkpt>
      <trkpt lat="45.10155" lon="1.94103">
        <ele>190</ele>
        <time>2025-05-05T11:15:53Z</time>
      </trkpt>
      <trkpt lat="45.10158" lon="1.94107">
        <ele>190</ele>
        <time>2025-05-05T11:15:56Z</time>
      </trkpt>
      <trkpt lat="45.10181" lon="1.94119">
        <ele>190</ele>
        <time>2025-05-05T11:16:16Z</time>
      </trkpt>
      <trkpt lat="45.1019" lon="1.94129">
        <ele>189</ele>
        <time>2025-05-05T11:16:25Z</time>
      </trkpt>
      <trkpt lat="45.10198" lon="1.94134">
        <ele>189</ele>
        <time>2025-05-05T11:16:32Z</time>
      </trkpt>
      <trkpt lat="45.10251" lon="1.94223">
        <ele>188</ele>
        <time>2025-05-05T11:17:38Z</time>
      </trkpt>
      <trkpt lat="45.10299" lon="1.94293">
        <ele>188</ele>
        <time>2025-05-05T11:18:33Z</time>
      </trkpt>
      <trkpt lat="45.10308" lon="1.94316">
        <ele>188</ele>
        <time>2025-05-05T11:18:48Z</time>
      </trkpt>
      <trkpt lat="45.10329" lon="1.94398">
        <ele>188</ele>
        <time>2025-05-05T11:19:37Z</time>
      </trkpt>
      <trkpt lat="45.10347" lon="1.94452">
        <ele>187</ele>
        <time>2025-05-05T11:20:11Z</time>
      </trkpt>
      <trkpt lat="45.10378" lon="1.94531">
        <ele>184</ele>
        <time>2025-05-05T11:21:02Z</time>
      </trkpt>
      <trkpt lat="45.10425" lon="1.946">
        <ele>182</ele>
        <time>2025-05-05T11:21:56Z</time>
      </trkpt>
      <trkpt lat="45.10438" lon="1.9463">
        <ele>183</ele>
        <time>2025-05-05T11:22:16Z</time>
      </trkpt>
      <trkpt lat="45.10441" lon="1.94649">
        <ele>183</ele>
        <time>2025-05-05T11:22:27Z</time>
      </trkpt>
      <trkpt lat="45.10431" lon="1.94918">
        <ele>187</ele>
        <time>2025-05-05T11:24:59Z</time>
      </trkpt>
      <trkpt lat="45.10434" lon="1.94989">
        <ele>187</ele>
        <time>2025-05-05T11:25:40Z</time>
      </trkpt>
      <trkpt lat="45.10445" lon="1.95038">
        <ele>188</ele>
        <time>2025-05-05T11:26:09Z</time>
      </trkpt>
      <trkpt lat="45.10486" lon="1.95126">
        <ele>192</ele>
        <time>2025-05-05T11:27:08Z</time>
      </trkpt>
      <trkpt lat="45.10495" lon="1.95179">
        <ele>193</ele>
        <time>2025-05-05T11:27:39Z</time>
      </trkpt>
      <trkpt lat="45.10503" lon="1.95261">
        <ele>198</ele>
        <time>2025-05-05T11:28:26Z</time>
      </trkpt>
      <trkpt lat="45.10513" lon="1.95304">
        <ele>199</ele>
        <time>2025-05-05T11:28:51Z</time>
      </trkpt>
      <trkpt lat="45.10558" lon="1.95405">
        <ele>204</ele>
        <time>2025-05-05T11:29:59Z</time>
      </trkpt>
      <trkpt lat="45.10575" lon="1.95432">
        <ele>202</ele>
        <time>2025-05-05T11:30:19Z</time>
      </trkpt>
      <trkpt lat="45.10592" lon="1.95441">
        <ele>203</ele>
        <time>2025-05-05T11:30:34Z</time>
      </trkpt>
      <trkpt lat="45.10605" lon="1.95442">
        <ele>205</ele>
        <time>2025-05-05T11:30:44Z</time>
      </trkpt>
      <trkpt lat="45.10772" lon="1.95387">
        <ele>222</ele>
        <time>2025-05-05T11:33:02Z</time>
      </trkpt>
      <trkpt lat="45.10845" lon="1.95358">
        <ele>231</ele>
        <time>2025-05-05T11:34:02Z</time>
      </trkpt>
      <trkpt lat="45.10867" lon="1.95344">
        <ele>231</ele>
        <time>2025-05-05T11:34:22Z</time>
      </trkpt>
      <trkpt lat="45.10886" lon="1.95338">
        <ele>228</ele>
        <time>2025-05-05T11:34:37Z</time>
      </trkpt>
      <trkpt lat="45.10911" lon="1.95337">
        <ele>219</ele>
        <time>2025-05-05T11:34:57Z</time>
      </trkpt>
      <trkpt lat="45.10935" lon="1.95339">
        <ele>219</ele>
        <time>2025-05-05T11:35:16Z</time>
      </trkpt>
      <trkpt lat="45.10958" lon="1.95347">
        <ele>219</ele>
        <time>2025-05-05T11:35:35Z</time>
      </trkpt>
      <trkpt lat="45.11032" lon="1.954">
        <ele>215</ele>
        <time>2025-05-05T11:36:42Z</time>
      </trkpt>
      <trkpt lat="45.11046" lon="1.95413">
        <ele>214</ele>
        <time>2025-05-05T11:36:55Z</time>
      </trkpt>
      <trkpt lat="45.11108" lon="1.95491">
        <ele>215</ele>
        <time>2025-05-05T11:38:02Z</time>
      </trkpt>
      <trkpt lat="45.11122" lon="1.95525">
        <ele>213</ele>
        <time>2025-05-05T11:38:24Z</time>
      </trkpt>
      <trkpt lat="45.11148" lon="1.95608">
        <ele>207</ele>
        <time>2025-05-05T11:39:15Z</time>
      </trkpt>
      <trkpt lat="45.11163" lon="1.95644">
        <ele>205</ele>
        <time>2025-05-05T11:39:39Z</time>
      </trkpt>
      <trkpt lat="45.11241" lon="1.95731">
        <ele>211</ele>
        <time>2025-05-05T11:40:58Z</time>
      </trkpt>
      <trkpt lat="45.11253" lon="1.95756">
        <ele>208</ele>
        <time>2025-05-05T11:41:15Z</time>
      </trkpt>
      <trkpt lat="45.11258" lon="1.95772">
        <ele>208</ele>
        <time>2025-05-05T11:41:25Z</time>
      </trkpt>
      <trkpt lat="45.11273" lon="1.95875">
        <ele>205</ele>
        <time>2025-05-05T11:42:25Z</time>
      </trkpt>
      <trkpt lat="45.1128" lon="1.95907">
        <ele>204</ele>
        <time>2025-05-05T11:42:44Z</time>
      </trkpt>
      <trkpt lat="45.11285" lon="1.95922">
        <ele>204</ele>
        <time>2025-05-05T11:42:53Z</time>
      </trkpt>
      <trkpt lat="45.11297" lon="1.95945">
        <ele>205</ele>
        <time>2025-05-05T11:43:09Z</time>
      </trkpt>
      <trkpt lat="45.11309" lon="1.95962">
        <ele>205</ele>
        <time>2025-05-05T11:43:23Z</time>
      </trkpt>
      <trkpt lat="45.11325" lon="1.95977">
        <ele>205</ele>
        <time>2025-05-05T11:43:38Z</time>
      </trkpt>
      <trkpt lat="45.11339" lon="1.95985">
        <ele>205</ele>
        <time>2025-05-05T11:43:50Z</time>
      </trkpt>
      <trkpt lat="45.1136" lon="1.9599">
        <ele>205</ele>
        <time>2025-05-05T11:44:07Z</time>
      </trkpt>
      <trkpt lat="45.11567" lon="1.95973">
        <ele>211</ele>
        <time>2025-05-05T11:46:53Z</time>
      </trkpt>
      <trkpt lat="45.11585" lon="1.95974">
        <ele>211</ele>
        <time>2025-05-05T11:47:08Z</time>
      </trkpt>
      <trkpt lat="45.11704" lon="1.96019">
        <ele>214</ele>
        <time>2025-05-05T11:48:46Z</time>
      </trkpt>
      <trkpt lat="45.11775" lon="1.96038">
        <ele>214</ele>
        <time>2025-05-05T11:49:44Z</time>
      </trkpt>
      <trkpt lat="45.11847" lon="1.96053">
        <ele>209</ele>
        <time>2025-05-05T11:50:42Z</time>
      </trkpt>
      <trkpt lat="45.11855" lon="1.96057">
        <ele>208</ele>
        <time>2025-05-05T11:50:49Z</time>
      </trkpt>
      <trkpt lat="45.11862" lon="1.96064">
        <ele>206</ele>
        <time>2025-05-05T11:50:56Z</time>
      </trkpt>
      <trkpt lat="45.11873" lon="1.96088">
        <ele>202</ele>
        <time>2025-05-05T11:51:12Z</time>
      </trkpt>
      <trkpt lat="45.11875" lon="1.96108">
        <ele>205</ele>
        <time>2025-05-05T11:51:24Z</time>
      </trkpt>
      <trkpt lat="45.11871" lon="1.96133">
        <ele>209</ele>
        <time>2025-05-05T11:51:38Z</time>
      </trkpt>
      <trkpt lat="45.11867" lon="1.96144">
        <ele>210</ele>
        <time>2025-05-05T11:51:45Z</time>
      </trkpt>
      <trkpt lat="45.11855" lon="1.96159">
        <ele>212</ele>
        <time>2025-05-05T11:51:58Z</time>
      </trkpt>
      <trkpt lat="45.11843" lon="1.96167">
        <ele>213</ele>
        <time>2025-05-05T11:52:08Z</time>
      </trkpt>
      <trkpt lat="45.11826" lon="1.96173">
        <ele>214</ele>
        <time>2025-05-05T11:52:22Z</time>
      </trkpt>
      <trkpt lat="45.11807" lon="1.96174">
        <ele>217</ele>
        <time>2025-05-05T11:52:38Z</time>
      </trkpt>
      <trkpt lat="45.11628" lon="1.96145">
        <ele>230</ele>
        <time>2025-05-05T11:55:02Z</time>
      </trkpt>
      <trkpt lat="45.11589" lon="1.96144">
        <ele>233</ele>
        <time>2025-05-05T11:55:33Z</time>
      </trkpt>
      <trkpt lat="45.11537" lon="1.96152">
        <ele>233</ele>
        <time>2025-05-05T11:56:15Z</time>
      </trkpt>
      <trkpt lat="45.11516" lon="1.96161">
        <ele>235</ele>
        <time>2025-05-05T11:56:33Z</time>
      </trkpt>
      <trkpt lat="45.11449" lon="1.96201">
        <ele>242</ele>
        <time>2025-05-05T11:57:31Z</time>
      </trkpt>
      <trkpt lat="45.11358" lon="1.96248">
        <ele>255</ele>
        <time>2025-05-05T11:58:48Z</time>
      </trkpt>
      <trkpt lat="45.11332" lon="1.96246">
        <ele>255</ele>
        <time>2025-05-05T11:59:09Z</time>
      </trkpt>
      <trkpt lat="45.11266" lon="1.96213">
        <ele>254</ele>
        <time>2025-05-05T12:00:05Z</time>
      </trkpt>
      <trkpt lat="45.11253" lon="1.96212">
        <ele>256</ele>
        <time>2025-05-05T12:00:16Z</time>
      </trkpt>
      <trkpt lat="45.11245" lon="1.96217">
        <ele>258</ele>
        <time>2025-05-05T12:00:23Z</time>
      </trkpt>
      <trkpt lat="45.1124" lon="1.96228">
        <ele>261</ele>
        <time>2025-05-05T12:00:30Z</time>
      </trkpt>
      <trkpt lat="45.11242" lon="1.96243">
        <ele>264</ele>
        <time>2025-05-05T12:00:39Z</time>
      </trkpt>
      <trkpt lat="45.11248" lon="1.96253">
        <ele>266</ele>
        <time>2025-05-05T12:00:46Z</time>
      </trkpt>
      <trkpt lat="45.11347" lon="1.96293">
        <ele>269</ele>
        <time>2025-05-05T12:02:09Z</time>
      </trkpt>
      <trkpt lat="45.11384" lon="1.96298">
        <ele>272</ele>
        <time>2025-05-05T12:02:38Z</time>
      </trkpt>
      <trkpt lat="45.11457" lon="1.96281">
        <ele>274</ele>
        <time>2025-05-05T12:03:38Z</time>
      </trkpt>
      <trkpt lat="45.11529" lon="1.9627">
        <ele>279</ele>
        <time>2025-05-05T12:04:36Z</time>
      </trkpt>
      <trkpt lat="45.11551" lon="1.96268">
        <ele>279</ele>
        <time>2025-05-05T12:04:53Z</time>
      </trkpt>
      <trkpt lat="45.11579" lon="1.96271">
        <ele>282</ele>
        <time>2025-05-05T12:05:16Z</time>
      </trkpt>
      <trkpt lat="45.11618" lon="1.96287">
        <ele>285</ele>
        <time>2025-05-05T12:05:48Z</time>
      </trkpt>
      <trkpt lat="45.11704" lon="1.9635">
        <ele>294</ele>
        <time>2025-05-05T12:07:06Z</time>
      </trkpt>
      <trkpt lat="45.11735" lon="1.96375">
        <ele>292</ele>
        <time>2025-05-05T12:07:34Z</time>
      </trkpt>
      <trkpt lat="45.1175" lon="1.96398">
        <ele>293</ele>
        <time>2025-05-05T12:07:52Z</time>
      </trkpt>
      <trkpt lat="45.11773" lon="1.96475">
        <ele>309</ele>
        <time>2025-05-05T12:08:39Z</time>
      </trkpt>
      <trkpt lat="45.11857" lon="1.96617">
        <ele>320</ele>
        <time>2025-05-05T12:10:24Z</time>
      </trkpt>
      <trkpt lat="45.11883" lon="1.96646">
        <ele>319</ele>
        <time>2025-05-05T12:10:50Z</time>
      </trkpt>
      <trkpt lat="45.11891" lon="1.96664">
        <ele>321</ele>
        <time>2025-05-05T12:11:02Z</time>
      </trkpt>
      <trkpt lat="45.11895" lon="1.96693">
        <ele>326</ele>
        <time>2025-05-05T12:11:19Z</time>
      </trkpt>
      <trkpt lat="45.11905" lon="1.96736">
        <ele>331</ele>
        <time>2025-05-05T12:11:45Z</time>
      </trkpt>
      <trkpt lat="45.11951" lon="1.96808">
        <ele>339</ele>
        <time>2025-05-05T12:12:40Z</time>
      </trkpt>
      <trkpt lat="45.11997" lon="1.96839">
        <ele>333</ele>
        <time>2025-05-05T12:13:20Z</time>
      </trkpt>
      <trkpt lat="45.12035" lon="1.96879">
        <ele>343</ele>
        <time>2025-05-05T12:13:58Z</time>
      </trkpt>
      <trkpt lat="45.12052" lon="1.9689">
        <ele>346</ele>
        <time>2025-05-05T12:14:13Z</time>
      </trkpt>
      <trkpt lat="45.12071" lon="1.96889">
        <ele>344</ele>
        <time>2025-05-05T12:14:28Z</time>
      </trkpt>
      <trkpt lat="45.12112" lon="1.96881">
        <ele>347</ele>
        <time>2025-05-05T12:15:02Z</time>
      </trkpt>
      <trkpt lat="45.12123" lon="1.96876">
        <ele>348</ele>
        <time>2025-05-05T12:15:11Z</time>
      </trkpt>
      <trkpt lat="45.12137" lon="1.96862">
        <ele>348</ele>
        <time>2025-05-05T12:15:25Z</time>
      </trkpt>
      <trkpt lat="45.12158" lon="1.96828">
        <ele>348</ele>
        <time>2025-05-05T12:15:50Z</time>
      </trkpt>
      <trkpt lat="45.12234" lon="1.9675">
        <ele>354</ele>
        <time>2025-05-05T12:17:05Z</time>
      </trkpt>
      <trkpt lat="45.12249" lon="1.96737">
        <ele>357</ele>
        <time>2025-05-05T12:17:19Z</time>
      </trkpt>
      <trkpt lat="45.12264" lon="1.96729">
        <ele>358</ele>
        <time>2025-05-05T12:17:32Z</time>
      </trkpt>
      <trkpt lat="45.12341" lon="1.96718">
        <ele>364</ele>
        <time>2025-05-05T12:18:34Z</time>
      </trkpt>
      <trkpt lat="45.12356" lon="1.9672">
        <ele>364</ele>
        <time>2025-05-05T12:18:46Z</time>
      </trkpt>
      <trkpt lat="45.1237" lon="1.96732">
        <ele>365</ele>
        <time>2025-05-05T12:18:59Z</time>
      </trkpt>
      <trkpt lat="45.12379" lon="1.9675">
        <ele>365</ele>
        <time>2025-05-05T12:19:12Z</time>
      </trkpt>
      <trkpt lat="45.12388" lon="1.96794">
        <ele>374</ele>
        <time>2025-05-05T12:19:38Z</time>
      </trkpt>
      <trkpt lat="45.12399" lon="1.96822">
        <ele>377</ele>
        <time>2025-05-05T12:19:56Z</time>
      </trkpt>
      <trkpt lat="45.12448" lon="1.9687">
        <ele>383</ele>
        <time>2025-05-05T12:20:43Z</time>
      </trkpt>
      <trkpt lat="45.12467" lon="1.96895">
        <ele>385</ele>
        <time>2025-05-05T12:21:04Z</time>
      </trkpt>
      <trkpt lat="45.125" lon="1.96952">
        <ele>388</ele>
        <time>2025-05-05T12:21:46Z</time>
      </trkpt>
      <trkpt lat="45.12574" lon="1.97094">
        <ele>401</ele>
        <time>2025-05-05T12:23:26Z</time>
      </trkpt>
      <trkpt lat="45.12604" lon="1.97141">
        <ele>405</ele>
        <time>2025-05-05T12:24:01Z</time>
      </trkpt>
      <trkpt lat="45.12645" lon="1.97197">
        <ele>408</ele>
        <time>2025-05-05T12:24:47Z</time>
      </trkpt>
      <trkpt lat="45.12662" lon="1.97227">
        <ele>411</ele>
        <time>2025-05-05T12:25:09Z</time>
      </trkpt>
      <trkpt lat="45.12681" lon="1.97273">
        <ele>418</ele>
        <time>2025-05-05T12:25:39Z</time>
      </trkpt>
      <trkpt lat="45.12728" lon="1.97465">
        <ele>430</ele>
        <time>2025-05-05T12:27:34Z</time>
      </trkpt>
      <trkpt lat="45.12747" lon="1.97511">
        <ele>433</ele>
        <time>2025-05-05T12:28:04Z</time>
      </trkpt>
      <trkpt lat="45.12783" lon="1.97568">
        <ele>438</ele>
        <time>2025-05-05T12:28:47Z</time>
      </trkpt>
      <trkpt lat="45.12854" lon="1.9766">
        <ele>434</ele>
        <time>2025-05-05T12:30:04Z</time>
      </trkpt>
      <trkpt lat="45.12962" lon="1.97783">
        <ele>452</ele>
        <time>2025-05-05T12:31:55Z</time>
      </trkpt>
      <trkpt lat="45.12976" lon="1.97802">
        <ele>453</ele>
        <time>2025-05-05T12:32:10Z</time>
      </trkpt>
      <trkpt lat="45.12998" lon="1.97837">
        <ele>456</ele>
        <time>2025-05-05T12:32:37Z</time>
      </trkpt>
      <trkpt lat="45.13046" lon="1.97936">
        <ele>460</ele>
        <time>2025-05-05T12:33:45Z</time>
      </trkpt>
      <trkpt lat="45.13067" lon="1.97967">
        <ele>462</ele>
        <time>2025-05-05T12:34:09Z</time>
      </trkpt>
      <trkpt lat="45.13078" lon="1.9798">
        <ele>464</ele>
        <time>2025-05-05T12:34:20Z</time>
      </trkpt>
      <trkpt lat="45.13109" lon="1.98007">
        <ele>468</ele>
        <time>2025-05-05T12:34:50Z</time>
      </trkpt>
      <trkpt lat="45.13152" lon="1.98037">
        <ele>472</ele>
        <time>2025-05-05T12:35:28Z</time>
      </trkpt>
      <trkpt lat="45.13186" lon="1.9807">
        <ele>474</ele>
        <time>2025-05-05T12:36:01Z</time>
      </trkpt>
      <trkpt lat="45.13201" lon="1.98089">
        <ele>474</ele>
        <time>2025-05-05T12:36:17Z</time>
      </trkpt>
      <trkpt lat="45.13286" lon="1.98239">
        <ele>480</ele>
        <time>2025-05-05T12:38:06Z</time>
      </trkpt>
      <trkpt lat="45.133" lon="1.98278">
        <ele>483</ele>
        <time>2025-05-05T12:38:30Z</time>
      </trkpt>
      <trkpt lat="45.13322" lon="1.98388">
        <ele>487</ele>
        <time>2025-05-05T12:39:35Z</time>
      </trkpt>
      <trkpt lat="45.13343" lon="1.98443">
        <ele>485</ele>
        <time>2025-05-05T12:40:10Z</time>
      </trkpt>
      <trkpt lat="45.13351" lon="1.98456">
        <ele>485</ele>
        <time>2025-05-05T12:40:20Z</time>
      </trkpt>
      <trkpt lat="45.13367" lon="1.98478">
        <ele>483</ele>
        <time>2025-05-05T12:40:38Z</time>
      </trkpt>
      <trkpt lat="45.1339" lon="1.985">
        <ele>482</ele>
        <time>2025-05-05T12:41:00Z</time>
      </trkpt>
      <trkpt lat="45.13406" lon="1.98511">
        <ele>481</ele>
        <time>2025-05-05T12:41:14Z</time>
      </trkpt>
      <trkpt lat="45.13489" lon="1.98557">
        <ele>477</ele>
        <time>2025-05-05T12:42:26Z</time>
      </trkpt>
      <trkpt lat="45.13654" lon="1.98658">
        <ele>477</ele>
        <time>2025-05-05T12:44:50Z</time>
      </trkpt>
      <trkpt lat="45.13724" lon="1.98705">
        <ele>479</ele>
        <time>2025-05-05T12:45:52Z</time>
      </trkpt>
      <trkpt lat="45.13768" lon="1.98738">
        <ele>484</ele>
        <time>2025-05-05T12:46:32Z</time>
      </trkpt>
      <trkpt lat="45.1386" lon="1.98816">
        <ele>492</ele>
        <time>2025-05-05T12:47:57Z</time>
      </trkpt>
      <trkpt lat="45.13894" lon="1.98839">
        <ele>495</ele>
        <time>2025-05-05T12:48:28Z</time>
      </trkpt>
      <trkpt lat="45.13918" lon="1.9885">
        <ele>496</ele>
        <time>2025-05-05T12:48:48Z</time>
      </trkpt>
      <trkpt lat="45.13945" lon="1.98858">
        <ele>494</ele>
        <time>2025-05-05T12:49:10Z</time>
      </trkpt>
      <trkpt lat="45.13996" lon="1.98859">
        <ele>491</ele>
        <time>2025-05-05T12:49:51Z</time>
      </trkpt>
      <trkpt lat="45.14024" lon="1.98853">
        <ele>493</ele>
        <time>2025-05-05T12:50:13Z</time>
      </trkpt>
      <trkpt lat="45.14105" lon="1.98819">
        <ele>497</ele>
        <time>2025-05-05T12:51:21Z</time>
      </trkpt>
      <trkpt lat="45.1414" lon="1.98814">
        <ele>500</ele>
        <time>2025-05-05T12:51:49Z</time>
      </trkpt>
      <trkpt lat="45.14167" lon="1.98815">
        <ele>503</ele>
        <time>2025-05-05T12:52:11Z</time>
      </trkpt>
      <trkpt lat="45.14182" lon="1.98818">
        <ele>503</ele>
        <time>2025-05-05T12:52:23Z</time>
      </trkpt>
      <trkpt lat="45.14302" lon="1.98851">
        <ele>508</ele>
        <time>2025-05-05T12:54:01Z</time>
      </trkpt>
      <trkpt lat="45.14336" lon="1.98851">
        <ele>509</ele>
        <time>2025-05-05T12:54:28Z</time>
      </trkpt>
      <trkpt lat="45.1436" lon="1.98846">
        <ele>511</ele>
        <time>2025-05-05T12:54:47Z</time>
      </trkpt>
      <trkpt lat="45.14378" lon="1.9884">
        <ele>512</ele>
        <time>2025-05-05T12:55:02Z</time>
      </trkpt>
      <trkpt lat="45.14398" lon="1.98828">
        <ele>513</ele>
        <time>2025-05-05T12:55:20Z</time>
      </trkpt>
      <trkpt lat="45.14519" lon="1.98737">
        <ele>520</ele>
        <time>2025-05-05T12:57:09Z</time>
      </trkpt>
      <trkpt lat="45.14537" lon="1.98726">
        <ele>521</ele>
        <time>2025-05-05T12:57:25Z</time>
      </trkpt>
      <trkpt lat="45.14568" lon="1.98712">
        <ele>522</ele>
        <time>2025-05-05T12:57:51Z</time>
      </trkpt>
      <trkpt lat="45.14886" lon="1.98627">
        <ele>534</ele>
        <time>2025-05-05T13:02:10Z</time>
      </trkpt>
      <trkpt lat="45.14929" lon="1.9862">
        <ele>534</ele>
        <time>2025-05-05T13:02:45Z</time>
      </trkpt>
      <trkpt lat="45.14954" lon="1.98618">
        <ele>535</ele>
        <time>2025-05-05T13:03:05Z</time>
      </trkpt>
      <trkpt lat="45.15041" lon="1.98623">
        <ele>535</ele>
        <time>2025-05-05T13:04:15Z</time>
      </trkpt>
      <trkpt lat="45.15072" lon="1.98631">
        <ele>536</ele>
        <time>2025-05-05T13:04:40Z</time>
      </trkpt>
      <trkpt lat="45.15122" lon="1.9865">
        <ele>533</ele>
        <time>2025-05-05T13:05:21Z</time>
      </trkpt>
      <trkpt lat="45.15201" lon="1.98675">
        <ele>531</ele>
        <time>2025-05-05T13:06:26Z</time>
      </trkpt>
      <trkpt lat="45.15416" lon="1.98683">
        <ele>539</ele>
        <time>2025-05-05T13:09:18Z</time>
      </trkpt>
      <trkpt lat="45.15456" lon="1.98681">
        <ele>539</ele>
        <time>2025-05-05T13:09:50Z</time>
      </trkpt>
      <trkpt lat="45.15519" lon="1.98667">
        <ele>540</ele>
        <time>2025-05-05T13:10:41Z</time>
      </trkpt>
      <trkpt lat="45.15902" lon="1.9857">
        <ele>543</ele>
        <time>2025-05-05T13:15:53Z</time>
      </trkpt>
      <trkpt lat="45.1595" lon="1.9856">
        <ele>543</ele>
        <time>2025-05-05T13:16:32Z</time>
      </trkpt>
      <trkpt lat="45.16016" lon="1.98558">
        <ele>542</ele>
        <time>2025-05-05T13:17:25Z</time>
      </trkpt>
      <trkpt lat="45.16099" lon="1.98563">
        <ele>542</ele>
        <time>2025-05-05T13:18:31Z</time>
      </trkpt>
      <trkpt lat="45.16116" lon="1.98561">
        <ele>542</ele>
        <time>2025-05-05T13:18:45Z</time>
      </trkpt>
      <trkpt lat="45.16144" lon="1.98551">
        <ele>542</ele>
        <time>2025-05-05T13:19:08Z</time>
      </trkpt>
      <trkpt lat="45.16296" lon="1.98465">
        <ele>538</ele>
        <time>2025-05-05T13:21:19Z</time>
      </trkpt>
      <trkpt lat="45.16399" lon="1.98427">
        <ele>530</ele>
        <time>2025-05-05T13:22:44Z</time>
      </trkpt>
      <trkpt lat="45.16429" lon="1.98421">
        <ele>527</ele>
        <time>2025-05-05T13:23:08Z</time>
      </trkpt>
      <trkpt lat="45.16491" lon="1.98426">
        <ele>522</ele>
        <time>2025-05-05T13:23:58Z</time>
      </trkpt>
      <trkpt lat="45.16508" lon="1.98425">
        <ele>520</ele>
        <time>2025-05-05T13:24:12Z</time>
      </trkpt>
      <trkpt lat="45.16535" lon="1.9842">
        <ele>516</ele>
        <time>2025-05-05T13:24:33Z</time>
      </trkpt>
      <trkpt lat="45.16586" lon="1.98405">
        <ele>511</ele>
        <time>2025-05-05T13:25:15Z</time>
      </trkpt>
      <trkpt lat="45.16602" lon="1.98406">
        <ele>510</ele>
        <time>2025-05-05T13:25:28Z</time>
      </trkpt>
      <trkpt lat="45.16619" lon="1.98411">
        <ele>510</ele>
        <time>2025-05-05T13:25:42Z</time>
      </trkpt>
      <trkpt lat="45.16648" lon="1.98425">
        <ele>508</ele>
        <time>2025-05-05T13:26:06Z</time>
      </trkpt>
      <trkpt lat="45.16664" lon="1.98441">
        <ele>507</ele>
        <time>2025-05-05T13:26:22Z</time>
      </trkpt>
      <trkpt lat="45.16699" lon="1.98485">
        <ele>504</ele>
        <time>2025-05-05T13:27:00Z</time>
      </trkpt>
      <trkpt lat="45.16714" lon="1.98498">
        <ele>503</ele>
        <time>2025-05-05T13:27:14Z</time>
      </trkpt>
      <trkpt lat="45.16734" lon="1.98507">
        <ele>502</ele>
        <time>2025-05-05T13:27:30Z</time>
      </trkpt>
      <trkpt lat="45.16764" lon="1.98514">
        <ele>502</ele>
        <time>2025-05-05T13:27:55Z</time>
      </trkpt>
      <trkpt lat="45.16778" lon="1.98525">
        <ele>501</ele>
        <time>2025-05-05T13:28:08Z</time>
      </trkpt>
      <trkpt lat="45.16784" lon="1.98534">
        <ele>501</ele>
        <time>2025-05-05T13:28:15Z</time>
      </trkpt>
      <trkpt lat="45.16795" lon="1.98565">
        <ele>500</ele>
        <time>2025-05-05T13:28:34Z</time>
      </trkpt>
      <trkpt lat="45.16815" lon="1.98633">
        <ele>497</ele>
        <time>2025-05-05T13:29:16Z</time>
      </trkpt>
      <trkpt lat="45.16828" lon="1.98649">
        <ele>496</ele>
        <time>2025-05-05T13:29:30Z</time>
      </trkpt>
      <trkpt lat="45.16886" lon="1.98665">
        <ele>497</ele>
        <time>2025-05-05T13:30:17Z</time>
      </trkpt>
      <trkpt lat="45.16917" lon="1.98679">
        <ele>497</ele>
        <time>2025-05-05T13:30:43Z</time>
      </trkpt>
      <trkpt lat="45.16944" lon="1.98695">
        <ele>497</ele>
        <time>2025-05-05T13:31:06Z</time>
      </trkpt>
      <trkpt lat="45.1703" lon="1.98722">
        <ele>494</ele>
        <time>2025-05-05T13:32:17Z</time>
      </trkpt>
      <trkpt lat="45.1704" lon="1.98716">
        <ele>494</ele>
        <time>2025-05-05T13:32:26Z</time>
      </trkpt>
      <trkpt lat="45.17052" lon="1.98713">
        <ele>494</ele>
        <time>2025-05-05T13:32:35Z</time>
      </trkpt>
      <trkpt lat="45.17091" lon="1.98711">
        <ele>493</ele>
        <time>2025-05-05T13:33:07Z</time>
      </trkpt>
      <trkpt lat="45.17097" lon="1.98708">
        <ele>492</ele>
        <time>2025-05-05T13:33:12Z</time>
      </trkpt>
      <trkpt lat="45.17106" lon="1.98698">
        <ele>492</ele>
        <time>2025-05-05T13:33:21Z</time>
      </trkpt>
      <trkpt lat="45.17118" lon="1.98675">
        <ele>493</ele>
        <time>2025-05-05T13:33:37Z</time>
      </trkpt>
      <trkpt lat="45.17133" lon="1.98635">
        <ele>494</ele>
        <time>2025-05-05T13:34:03Z</time>
      </trkpt>
      <trkpt lat="45.17138" lon="1.98609">
        <ele>495</ele>
        <time>2025-05-05T13:34:18Z</time>
      </trkpt>
      <trkpt lat="45.17133" lon="1.98576">
        <ele>497</ele>
        <time>2025-05-05T13:34:37Z</time>
      </trkpt>
      <trkpt lat="45.17119" lon="1.98541">
        <ele>499</ele>
        <time>2025-05-05T13:35:00Z</time>
      </trkpt>
      <trkpt lat="45.17114" lon="1.98518">
        <ele>499</ele>
        <time>2025-05-05T13:35:13Z</time>
      </trkpt>
      <trkpt lat="45.17117" lon="1.98498">
        <ele>500</ele>
        <time>2025-05-05T13:35:25Z</time>
      </trkpt>
      <trkpt lat="45.17125" lon="1.98483">
        <ele>500</ele>
        <time>2025-05-05T13:35:35Z</time>
      </trkpt>
      <trkpt lat="45.17135" lon="1.98473">
        <ele>501</ele>
        <time>2025-05-05T13:35:45Z</time>
      </trkpt>
      <trkpt lat="45.17153" lon="1.98467">
        <ele>500</ele>
        <time>2025-05-05T13:36:00Z</time>
      </trkpt>
      <trkpt lat="45.1718" lon="1.9847">
        <ele>500</ele>
        <time>2025-05-05T13:36:22Z</time>
      </trkpt>
      <trkpt lat="45.1721" lon="1.98477">
        <ele>501</ele>
        <time>2025-05-05T13:36:46Z</time>
      </trkpt>
      <trkpt lat="45.17229" lon="1.98486">
        <ele>501</ele>
        <time>2025-05-05T13:37:02Z</time>
      </trkpt>
      <trkpt lat="45.17253" lon="1.98504">
        <ele>502</ele>
        <time>2025-05-05T13:37:24Z</time>
      </trkpt>
      <trkpt lat="45.17261" lon="1.98508">
        <ele>502</ele>
        <time>2025-05-05T13:37:30Z</time>
      </trkpt>
      <trkpt lat="45.17275" lon="1.9851">
        <ele>502</ele>
        <time>2025-05-05T13:37:42Z</time>
      </trkpt>
      <trkpt lat="45.17294" lon="1.98506">
        <ele>502</ele>
        <time>2025-05-05T13:37:57Z</time>
      </trkpt>
      <trkpt lat="45.17339" lon="1.98473">
        <ele>501</ele>
        <time>2025-05-05T13:38:38Z</time>
      </trkpt>
      <trkpt lat="45.17359" lon="1.98463">
        <ele>501</ele>
        <time>2025-05-05T13:38:55Z</time>
      </trkpt>
      <trkpt lat="45.17366" lon="1.98462">
        <ele>501</ele>
        <time>2025-05-05T13:39:00Z</time>
      </trkpt>
      <trkpt lat="45.1738" lon="1.98465">
        <ele>500</ele>
        <time>2025-05-05T13:39:12Z</time>
      </trkpt>
      <trkpt lat="45.1741" lon="1.98476">
        <ele>499</ele>
        <time>2025-05-05T13:39:36Z</time>
      </trkpt>
      <trkpt lat="45.17479" lon="1.98509">
        <ele>500</ele>
        <time>2025-05-05T13:40:35Z</time>
      </trkpt>
      <trkpt lat="45.17674" lon="1.98622">
        <ele>504</ele>
        <time>2025-05-05T13:43:23Z</time>
      </trkpt>
      <trkpt lat="45.17701" lon="1.98639">
        <ele>505</ele>
        <time>2025-05-05T13:43:47Z</time>
      </trkpt>
      <trkpt lat="45.17727" lon="1.9866">
        <ele>507</ele>
        <time>2025-05-05T13:44:11Z</time>
      </trkpt>
      <trkpt lat="45.17758" lon="1.98694">
        <ele>508</ele>
        <time>2025-05-05T13:44:42Z</time>
      </trkpt>
      <trkpt lat="45.17778" lon="1.98721">
        <ele>509</ele>
        <time>2025-05-05T13:45:04Z</time>
      </trkpt>
      <trkpt lat="45.17809" lon="1.98778">
        <ele>511</ele>
        <time>2025-05-05T13:45:45Z</time>
      </trkpt>
      <trkpt lat="45.17938" lon="1.99061">
        <ele>520</ele>
        <time>2025-05-05T13:48:55Z</time>
      </trkpt>
      <trkpt lat="45.18042" lon="1.99336">
        <ele>521</ele>
        <time>2025-05-05T13:51:51Z</time>
      </trkpt>
      <trkpt lat="45.18074" lon="1.99414">
        <ele>521</ele>
        <time>2025-05-05T13:52:42Z</time>
      </trkpt>
      <trkpt lat="45.18097" lon="1.99461">
        <ele>522</ele>
        <time>2025-05-05T13:53:15Z</time>
      </trkpt>
      <trkpt lat="45.18214" lon="1.99668">
        <ele>520</ele>
        <time>2025-05-05T13:55:44Z</time>
      </trkpt>
      <trkpt lat="45.18275" lon="1.99758">
        <ele>521</ele>
        <time>2025-05-05T13:56:55Z</time>
      </trkpt>
      <trkpt lat="45.18792" lon="2.00382">
        <ele>523</ele>
        <time>2025-05-05T14:05:58Z</time>
      </trkpt>
      <trkpt lat="45.18866" lon="2.00469">
        <ele>522</ele>
        <time>2025-05-05T14:07:15Z</time>
      </trkpt>
      <trkpt lat="45.18915" lon="2.0051">
        <ele>523</ele>
        <time>2025-05-05T14:08:01Z</time>
      </trkpt>
      <trkpt lat="45.18937" lon="2.00522">
        <ele>524</ele>
        <time>2025-05-05T14:08:20Z</time>
      </trkpt>
      <trkpt lat="45.18985" lon="2.00541">
        <ele>526</ele>
        <time>2025-05-05T14:09:00Z</time>
      </trkpt>
      <trkpt lat="45.19011" lon="2.00545">
        <ele>526</ele>
        <time>2025-05-05T14:09:21Z</time>
      </trkpt>
      <trkpt lat="45.19056" lon="2.00547">
        <ele>528</ele>
        <time>2025-05-05T14:09:57Z</time>
      </trkpt>
      <trkpt lat="45.19925" lon="2.00485">
        <ele>517</ele>
        <time>2025-05-05T14:21:33Z</time>
      </trkpt>
      <trkpt lat="45.20977" lon="2.00414">
        <ele>525</ele>
        <time>2025-05-05T14:35:37Z</time>
      </trkpt>
      <trkpt lat="45.21031" lon="2.004">
        <ele>524</ele>
        <time>2025-05-05T14:36:20Z</time>
      </trkpt>
      <trkpt lat="45.21177" lon="2.00322">
        <ele>520</ele>
        <time>2025-05-05T14:38:25Z</time>
      </trkpt>
      <trkpt lat="45.21214" lon="2.00306">
        <ele>519</ele>
        <time>2025-05-05T14:38:56Z</time>
      </trkpt>
      <trkpt lat="45.21237" lon="2.00301">
        <ele>519</ele>
        <time>2025-05-05T14:39:15Z</time>
      </trkpt>
      <trkpt lat="45.21263" lon="2.00301">
        <ele>519</ele>
        <time>2025-05-05T14:39:36Z</time>
      </trkpt>
      <trkpt lat="45.21318" lon="2.00313">
        <ele>520</ele>
        <time>2025-05-05T14:40:20Z</time>
      </trkpt>
      <trkpt lat="45.21682" lon="2.0042">
        <ele>529</ele>
        <time>2025-05-05T14:45:18Z</time>
      </trkpt>
      <trkpt lat="45.2169" lon="2.00424">
        <ele>529</ele>
        <time>2025-05-05T14:45:25Z</time>
      </trkpt>
      <trkpt lat="45.21714" lon="2.00425">
        <ele>530</ele>
        <time>2025-05-05T14:45:44Z</time>
      </trkpt>
      <trkpt lat="45.21932" lon="2.0039">
        <ele>530</ele>
        <time>2025-05-05T14:48:40Z</time>
      </trkpt>
      <trkpt lat="45.21943" lon="2.0039">
        <ele>530</ele>
        <time>2025-05-05T14:48:48Z</time>
      </trkpt>
      <trkpt lat="45.22" lon="2.00414">
        <ele>530</ele>
        <time>2025-05-05T14:49:36Z</time>
      </trkpt>
      <trkpt lat="45.22029" lon="2.00431">
        <ele>530</ele>
        <time>2025-05-05T14:50:01Z</time>
      </trkpt>
      <trkpt lat="45.22043" lon="2.00447">
        <ele>530</ele>
        <time>2025-05-05T14:50:16Z</time>
      </trkpt>
      <trkpt lat="45.22077" lon="2.00502">
        <ele>530</ele>
        <time>2025-05-05T14:50:57Z</time>
      </trkpt>
      <trkpt lat="45.22093" lon="2.00521">
        <ele>531</ele>
        <time>2025-05-05T14:51:14Z</time>
      </trkpt>
      <trkpt lat="45.22125" lon="2.00541">
        <ele>531</ele>
        <time>2025-05-05T14:51:42Z</time>
      </trkpt>
      <trkpt lat="45.22138" lon="2.00545">
        <ele>531</ele>
        <time>2025-05-05T14:51:52Z</time>
      </trkpt>
      <trkpt lat="45.22158" lon="2.00546">
        <ele>531</ele>
        <time>2025-05-05T14:52:08Z</time>
      </trkpt>
      <trkpt lat="45.22177" lon="2.00543">
        <ele>531</ele>
        <time>2025-05-05T14:52:24Z</time>
      </trkpt>
      <trkpt lat="45.22187" lon="2.00539">
        <ele>532</ele>
        <time>2025-05-05T14:52:32Z</time>
      </trkpt>
      <trkpt lat="45.22238" lon="2.005">
        <ele>533</ele>
        <time>2025-05-05T14:53:18Z</time>
      </trkpt>
      <trkpt lat="45.22259" lon="2.0049">
        <ele>533</ele>
        <time>2025-05-05T14:53:36Z</time>
      </trkpt>
      <trkpt lat="45.22272" lon="2.00487">
        <ele>533</ele>
        <time>2025-05-05T14:53:47Z</time>
      </trkpt>
      <trkpt lat="45.2229" lon="2.00487">
        <ele>534</ele>
        <time>2025-05-05T14:54:01Z</time>
      </trkpt>
      <trkpt lat="45.22416" lon="2.00522">
        <ele>535</ele>
        <time>2025-05-05T14:55:44Z</time>
      </trkpt>
      <trkpt lat="45.22436" lon="2.00533">
        <ele>536</ele>
        <time>2025-05-05T14:56:01Z</time>
      </trkpt>
      <trkpt lat="45.22453" lon="2.00547">
        <ele>536</ele>
        <time>2025-05-05T14:56:17Z</time>
      </trkpt>
      <trkpt lat="45.22523" lon="2.00634">
        <ele>537</ele>
        <time>2025-05-05T14:57:31Z</time>
      </trkpt>
      <trkpt lat="45.22614" lon="2.00819">
        <ele>540</ele>
        <time>2025-05-05T14:59:38Z</time>
      </trkpt>
      <trkpt lat="45.22633" lon="2.00851">
        <ele>541</ele>
        <time>2025-05-05T15:00:02Z</time>
      </trkpt>
      <trkpt lat="45.22754" lon="2.01034">
        <ele>548</ele>
        <time>2025-05-05T15:02:24Z</time>
      </trkpt>
      <trkpt lat="45.22807" lon="2.01102">
        <ele>546</ele>
        <time>2025-05-05T15:03:21Z</time>
      </trkpt>
      <trkpt lat="45.22999" lon="2.01316">
        <ele>551</ele>
        <time>2025-05-05T15:06:36Z</time>
      </trkpt>
      <trkpt lat="45.23056" lon="2.01387">
        <ele>550</ele>
        <time>2025-05-05T15:07:37Z</time>
      </trkpt>
      <trkpt lat="45.23066" lon="2.01404">
        <ele>550</ele>
        <time>2025-05-05T15:07:49Z</time>
      </trkpt>
      <trkpt lat="45.23279" lon="2.0185">
        <ele>542</ele>
        <time>2025-05-05T15:12:53Z</time>
      </trkpt>
      <trkpt lat="45.23306" lon="2.01888">
        <ele>543</ele>
        <time>2025-05-05T15:13:24Z</time>
      </trkpt>
      <trkpt lat="45.23325" lon="2.01909">
        <ele>544</ele>
        <time>2025-05-05T15:13:43Z</time>
      </trkpt>
      <trkpt lat="45.2337" lon="2.01945">
        <ele>545</ele>
        <time>2025-05-05T15:14:24Z</time>
      </trkpt>
      <trkpt lat="45.234" lon="2.01959">
        <ele>546</ele>
        <time>2025-05-05T15:14:50Z</time>
      </trkpt>
      <trkpt lat="45.23424" lon="2.01966">
        <ele>546</ele>
        <time>2025-05-05T15:15:09Z</time>
      </trkpt>
      <trkpt lat="45.23841" lon="2.02039">
        <ele>537</ele>
        <time>2025-05-05T15:20:46Z</time>
      </trkpt>
      <trkpt lat="45.2391" lon="2.02049">
        <ele>538</ele>
        <time>2025-05-05T15:21:41Z</time>
      </trkpt>
      <trkpt lat="45.23953" lon="2.02051">
        <ele>537</ele>
        <time>2025-05-05T15:22:16Z</time>
      </trkpt>
      <trkpt lat="45.23988" lon="2.02044">
        <ele>537</ele>
        <time>2025-05-05T15:22:44Z</time>
      </trkpt>
      <trkpt lat="45.24471" lon="2.01882">
        <ele>533</ele>
        <time>2025-05-05T15:29:21Z</time>
      </trkpt>
      <trkpt lat="45.24531" lon="2.01867">
        <ele>532</ele>
        <time>2025-05-05T15:30:10Z</time>
      </trkpt>
      <trkpt lat="45.24549" lon="2.01865">
        <ele>532</ele>
        <time>2025-05-05T15:30:24Z</time>
      </trkpt>
      <trkpt lat="45.24575" lon="2.01866">
        <ele>532</ele>
        <time>2025-05-05T15:30:45Z</time>
      </trkpt>
      <trkpt lat="45.24685" lon="2.01879">
        <ele>532</ele>
        <time>2025-05-05T15:32:14Z</time>
      </trkpt>
      <trkpt lat="45.24718" lon="2.01877">
        <ele>531</ele>
        <time>2025-05-05T15:32:40Z</time>
      </trkpt>
      <trkpt lat="45.24842" lon="2.01854">
        <ele>523</ele>
        <time>2025-05-05T15:34:20Z</time>
      </trkpt>
      <trkpt lat="45.24891" lon="2.01855">
        <ele>522</ele>
        <time>2025-05-05T15:35:00Z</time>
      </trkpt>
      <trkpt lat="45.24925" lon="2.01864">
        <ele>522</ele>
        <time>2025-05-05T15:35:27Z</time>
      </trkpt>
      <trkpt lat="45.24945" lon="2.01872">
        <ele>522</ele>
        <time>2025-05-05T15:35:44Z</time>
      </trkpt>
      <trkpt lat="45.25047" lon="2.0192">
        <ele>525</ele>
        <time>2025-05-05T15:37:10Z</time>
      </trkpt>
      <trkpt lat="45.2507" lon="2.01934">
        <ele>526</ele>
        <time>2025-05-05T15:37:30Z</time>
      </trkpt>
      <trkpt lat="45.25083" lon="2.01945">
        <ele>526</ele>
        <time>2025-05-05T15:37:42Z</time>
      </trkpt>
      <trkpt lat="45.25106" lon="2.01969">
        <ele>528</ele>
        <time>2025-05-05T15:38:05Z</time>
      </trkpt>
      <trkpt lat="45.25129" lon="2.02002">
        <ele>530</ele>
        <time>2025-05-05T15:38:31Z</time>
      </trkpt>
      <trkpt lat="45.25141" lon="2.02023">
        <ele>532</ele>
        <time>2025-05-05T15:38:46Z</time>
      </trkpt>
      <trkpt lat="45.25202" lon="2.0218">
        <ele>544</ele>
        <time>2025-05-05T15:40:27Z</time>
      </trkpt>
      <trkpt lat="45.25272" lon="2.02325">
        <ele>549</ele>
        <time>2025-05-05T15:42:06Z</time>
      </trkpt>
      <trkpt lat="45.2529" lon="2.02357">
        <ele>550</ele>
        <time>2025-05-05T15:42:30Z</time>
      </trkpt>
      <trkpt lat="45.25365" lon="2.02465">
        <ele>551</ele>
        <time>2025-05-05T15:43:55Z</time>
      </trkpt>
      <trkpt lat="45.25376" lon="2.02486">
        <ele>550</ele>
        <time>2025-05-05T15:44:10Z</time>
      </trkpt>
      <trkpt lat="45.25388" lon="2.02517">
        <ele>550</ele>
        <time>2025-05-05T15:44:30Z</time>
      </trkpt>
      <trkpt lat="45.25407" lon="2.0258">
        <ele>547</ele>
        <time>2025-05-05T15:45:08Z</time>
      </trkpt>
      <trkpt lat="45.25428" lon="2.02629">
        <ele>545</ele>
        <time>2025-05-05T15:45:41Z</time>
      </trkpt>
      <trkpt lat="45.25459" lon="2.02676">
        <ele>546</ele>
        <time>2025-05-05T15:46:17Z</time>
      </trkpt>
      <trkpt lat="45.25503" lon="2.02731">
        <ele>548</ele>
        <time>2025-05-05T15:47:04Z</time>
      </trkpt>
      <trkpt lat="45.25533" lon="2.02759">
        <ele>549</ele>
        <time>2025-05-05T15:47:33Z</time>
      </trkpt>
      <trkpt lat="45.25564" lon="2.02776">
        <ele>551</ele>
        <time>2025-05-05T15:47:59Z</time>
      </trkpt>
      <trkpt lat="45.25579" lon="2.0278">
        <ele>551</ele>
        <time>2025-05-05T15:48:12Z</time>
      </trkpt>
      <trkpt lat="45.25731" lon="2.02787">
        <ele>552</ele>
        <time>2025-05-05T15:50:13Z</time>
      </trkpt>
      <trkpt lat="45.25773" lon="2.02783">
        <ele>550</ele>
        <time>2025-05-05T15:50:47Z</time>
      </trkpt>
      <trkpt lat="45.25789" lon="2.02778">
        <ele>550</ele>
        <time>2025-05-05T15:51:00Z</time>
      </trkpt>
      <trkpt lat="45.25883" lon="2.02735">
        <ele>547</ele>
        <time>2025-05-05T15:52:19Z</time>
      </trkpt>
      <trkpt lat="45.25906" lon="2.02728">
        <ele>547</ele>
        <time>2025-05-05T15:52:38Z</time>
      </trkpt>
      <trkpt lat="45.25936" lon="2.0273">
        <ele>546</ele>
        <time>2025-05-05T15:53:02Z</time>
      </trkpt>
      <trkpt lat="45.2606" lon="2.02758">
        <ele>538</ele>
        <time>2025-05-05T15:54:43Z</time>
      </trkpt>
      <trkpt lat="45.26092" lon="2.02767">
        <ele>536</ele>
        <time>2025-05-05T15:55:09Z</time>
      </trkpt>
      <trkpt lat="45.26137" lon="2.02788">
        <ele>534</ele>
        <time>2025-05-05T15:55:47Z</time>
      </trkpt>
      <trkpt lat="45.26328" lon="2.02911">
        <ele>546</ele>
        <time>2025-05-05T15:58:35Z</time>
      </trkpt>
      <trkpt lat="45.264" lon="2.02949">
        <ele>552</ele>
        <time>2025-05-05T15:59:36Z</time>
      </trkpt>
      <trkpt lat="45.26489" lon="2.0299">
        <ele>556</ele>
        <time>2025-05-05T16:00:51Z</time>
      </trkpt>
      <trkpt lat="45.2653" lon="2.03015">
        <ele>556</ele>
        <time>2025-05-05T16:01:27Z</time>
      </trkpt>
      <trkpt lat="45.26662" lon="2.03116">
        <ele>549</ele>
        <time>2025-05-05T16:03:27Z</time>
      </trkpt>
      <trkpt lat="45.26697" lon="2.03136">
        <ele>547</ele>
        <time>2025-05-05T16:03:57Z</time>
      </trkpt>
      <trkpt lat="45.26721" lon="2.03143">
        <ele>547</ele>
        <time>2025-05-05T16:04:17Z</time>
      </trkpt>
      <trkpt lat="45.26773" lon="2.0315">
        <ele>546</ele>
        <time>2025-05-05T16:04:58Z</time>
      </trkpt>
      <trkpt lat="45.26828" lon="2.03154">
        <ele>544</ele>
        <time>2025-05-05T16:05:42Z</time>
      </trkpt>
      <trkpt lat="45.26851" lon="2.03151">
        <ele>544</ele>
        <time>2025-05-05T16:06:01Z</time>
      </trkpt>
      <trkpt lat="45.26883" lon="2.03142">
        <ele>544</ele>
        <time>2025-05-05T16:06:27Z</time>
      </trkpt>
      <trkpt lat="45.26903" lon="2.0314">
        <ele>544</ele>
        <time>2025-05-05T16:06:43Z</time>
      </trkpt>
      <trkpt lat="45.26914" lon="2.03143">
        <ele>544</ele>
        <time>2025-05-05T16:06:52Z</time>
      </trkpt>
      <trkpt lat="45.26989" lon="2.03191">
        <ele>548</ele>
        <time>2025-05-05T16:07:58Z</time>
      </trkpt>
      <trkpt lat="45.27021" lon="2.032">
        <ele>550</ele>
        <time>2025-05-05T16:08:24Z</time>
      </trkpt>
      <trkpt lat="45.27128" lon="2.03194">
        <ele>553</ele>
        <time>2025-05-05T16:09:50Z</time>
      </trkpt>
      <trkpt lat="45.27191" lon="2.03179">
        <ele>558</ele>
        <time>2025-05-05T16:10:41Z</time>
      </trkpt>
      <trkpt lat="45.27211" lon="2.03178">
        <ele>559</ele>
        <time>2025-05-05T16:10:57Z</time>
      </trkpt>
      <trkpt lat="45.27252" lon="2.03181">
        <ele>563</ele>
        <time>2025-05-05T16:11:30Z</time>
      </trkpt>
      <trkpt lat="45.27263" lon="2.03184">
        <ele>563</ele>
        <time>2025-05-05T16:11:39Z</time>
      </trkpt>
      <trkpt lat="45.27275" lon="2.03192">
        <ele>564</ele>
        <time>2025-05-05T16:11:49Z</time>
      </trkpt>
      <trkpt lat="45.27284" lon="2.03195">
        <ele>564</ele>
        <time>2025-05-05T16:11:57Z</time>
      </trkpt>
      <trkpt lat="45.2729" lon="2.03193">
        <ele>564</ele>
        <time>2025-05-05T16:12:02Z</time>
      </trkpt>
      <trkpt lat="45.27304" lon="2.03182">
        <ele>565</ele>
        <time>2025-05-05T16:12:15Z</time>
      </trkpt>
      <trkpt lat="45.27444" lon="2.03282">
        <ele>572</ele>
        <time>2025-05-05T16:14:20Z</time>
      </trkpt>
      <trkpt lat="45.27469" lon="2.03308">
        <ele>574</ele>
        <time>2025-05-05T16:14:45Z</time>
      </trkpt>
      <trkpt lat="45.27504" lon="2.03352">
        <ele>575</ele>
        <time>2025-05-05T16:15:22Z</time>
      </trkpt>
      <trkpt lat="45.27622" lon="2.03459">
        <ele>577</ele>
        <time>2025-05-05T16:17:14Z</time>
      </trkpt>
      <trkpt lat="45.27632" lon="2.03471">
        <ele>578</ele>
        <time>2025-05-05T16:17:25Z</time>
      </trkpt>
      <trkpt lat="45.27643" lon="2.03491">
        <ele>579</ele>
        <time>2025-05-05T16:17:39Z</time>
      </trkpt>
      <trkpt lat="45.27659" lon="2.03493">
        <ele>579</ele>
        <time>2025-05-05T16:17:52Z</time>
      </trkpt>
      <trkpt lat="45.27696" lon="2.03525">
        <ele>579</ele>
        <time>2025-05-05T16:18:27Z</time>
      </trkpt>
      <trkpt lat="45.27718" lon="2.03537">
        <ele>579</ele>
        <time>2025-05-05T16:18:46Z</time>
      </trkpt>
      <trkpt lat="45.27807" lon="2.03563">
        <ele>576</ele>
        <time>2025-05-05T16:19:58Z</time>
      </trkpt>
      <trkpt lat="45.27827" lon="2.03571">
        <ele>575</ele>
        <time>2025-05-05T16:20:15Z</time>
      </trkpt>
      <trkpt lat="45.27852" lon="2.03585">
        <ele>576</ele>
        <time>2025-05-05T16:20:36Z</time>
      </trkpt>
      <trkpt lat="45.28062" lon="2.03731">
        <ele>586</ele>
        <time>2025-05-05T16:23:44Z</time>
      </trkpt>
      <trkpt lat="45.28115" lon="2.03776">
        <ele>589</ele>
        <time>2025-05-05T16:24:33Z</time>
      </trkpt>
      <trkpt lat="45.28244" lon="2.03894">
        <ele>598</ele>
        <time>2025-05-05T16:26:36Z</time>
      </trkpt>
      <trkpt lat="45.28272" lon="2.03915">
        <ele>597</ele>
        <time>2025-05-05T16:27:01Z</time>
      </trkpt>
      <trkpt lat="45.2846" lon="2.04017">
        <ele>602</ele>
        <time>2025-05-05T16:29:42Z</time>
      </trkpt>
      <trkpt lat="45.28484" lon="2.04038">
        <ele>602</ele>
        <time>2025-05-05T16:30:05Z</time>
      </trkpt>
      <trkpt lat="45.28506" lon="2.04065">
        <ele>602</ele>
        <time>2025-05-05T16:30:28Z</time>
      </trkpt>
      <trkpt lat="45.28667" lon="2.04277">
        <ele>595</ele>
        <time>2025-05-05T16:33:24Z</time>
      </trkpt>
      <trkpt lat="45.28729" lon="2.04339">
        <ele>598</ele>
        <time>2025-05-05T16:34:25Z</time>
      </trkpt>
      <trkpt lat="45.28777" lon="2.04371">
        <ele>599</ele>
        <time>2025-05-05T16:35:07Z</time>
      </trkpt>
      <trkpt lat="45.28799" lon="2.04382">
        <ele>598</ele>
        <time>2025-05-05T16:35:26Z</time>
      </trkpt>
      <trkpt lat="45.28836" lon="2.04396">
        <ele>596</ele>
        <time>2025-05-05T16:35:56Z</time>
      </trkpt>
      <trkpt lat="45.28895" lon="2.04409">
        <ele>590</ele>
        <time>2025-05-05T16:36:44Z</time>
      </trkpt>
      <trkpt lat="45.28954" lon="2.04409">
        <ele>587</ele>
        <time>2025-05-05T16:37:31Z</time>
      </trkpt>
      <trkpt lat="45.29018" lon="2.04405">
        <ele>586</ele>
        <time>2025-05-05T16:38:23Z</time>
      </trkpt>
      <trkpt lat="45.29047" lon="2.04415">
        <ele>586</ele>
        <time>2025-05-05T16:38:47Z</time>
      </trkpt>
      <trkpt lat="45.29072" lon="2.04431">
        <ele>586</ele>
        <time>2025-05-05T16:39:09Z</time>
      </trkpt>
      <trkpt lat="45.29098" lon="2.04457">
        <ele>587</ele>
        <time>2025-05-05T16:39:34Z</time>
      </trkpt>
      <trkpt lat="45.29124" lon="2.04494">
        <ele>586</ele>
        <time>2025-05-05T16:40:03Z</time>
      </trkpt>
      <trkpt lat="45.2916" lon="2.04553">
        <ele>584</ele>
        <time>2025-05-05T16:40:47Z</time>
      </trkpt>
      <trkpt lat="45.29201" lon="2.04625">
        <ele>586</ele>
        <time>2025-05-05T16:41:40Z</time>
      </trkpt>
      <trkpt lat="45.29224" lon="2.04683">
        <ele>584</ele>
        <time>2025-05-05T16:42:17Z</time>
      </trkpt>
      <trkpt lat="45.29249" lon="2.04734">
        <ele>580</ele>
        <time>2025-05-05T16:42:52Z</time>
      </trkpt>
      <trkpt lat="45.29271" lon="2.04761">
        <ele>582</ele>
        <time>2025-05-05T16:43:15Z</time>
      </trkpt>
      <trkpt lat="45.29295" lon="2.04775">
        <ele>584</ele>
        <time>2025-05-05T16:43:36Z</time>
      </trkpt>
      <trkpt lat="45.29323" lon="2.04777">
        <ele>586</ele>
        <time>2025-05-05T16:43:59Z</time>
      </trkpt>
      <trkpt lat="45.2934" lon="2.04772">
        <ele>587</ele>
        <time>2025-05-05T16:44:13Z</time>
      </trkpt>
      <trkpt lat="45.29362" lon="2.04758">
        <ele>588</ele>
        <time>2025-05-05T16:44:32Z</time>
      </trkpt>
      <trkpt lat="45.29414" lon="2.04708">
        <ele>593</ele>
        <time>2025-05-05T16:45:22Z</time>
      </trkpt>
      <trkpt lat="45.29439" lon="2.04689">
        <ele>594</ele>
        <time>2025-05-05T16:45:45Z</time>
      </trkpt>
      <trkpt lat="45.29459" lon="2.04681">
        <ele>595</ele>
        <time>2025-05-05T16:46:01Z</time>
      </trkpt>
      <trkpt lat="45.29493" lon="2.04678">
        <ele>595</ele>
        <time>2025-05-05T16:46:29Z</time>
      </trkpt>
      <trkpt lat="45.29623" lon="2.04697">
        <ele>603</ele>
        <time>2025-05-05T16:48:13Z</time>
      </trkpt>
      <trkpt lat="45.29659" lon="2.04704">
        <ele>605</ele>
        <time>2025-05-05T16:48:42Z</time>
      </trkpt>
      <trkpt lat="45.29674" lon="2.0471">
        <ele>606</ele>
        <time>2025-05-05T16:48:55Z</time>
      </trkpt>
      <trkpt lat="45.29694" lon="2.04723">
        <ele>607</ele>
        <time>2025-05-05T16:49:13Z</time>
      </trkpt>
      <trkpt lat="45.29858" lon="2.04895">
        <ele>613</ele>
        <time>2025-05-05T16:51:56Z</time>
      </trkpt>
      <trkpt lat="45.29874" lon="2.0491">
        <ele>613</ele>
        <time>2025-05-05T16:52:11Z</time>
      </trkpt>
      <trkpt lat="45.29897" lon="2.04925">
        <ele>613</ele>
        <time>2025-05-05T16:52:31Z</time>
      </trkpt>
      <trkpt lat="45.29916" lon="2.0493">
        <ele>612</ele>
        <time>2025-05-05T16:52:47Z</time>
      </trkpt>
      <trkpt lat="45.29931" lon="2.04931">
        <ele>613</ele>
        <time>2025-05-05T16:52:59Z</time>
      </trkpt>
      <trkpt lat="45.29952" lon="2.04928">
        <ele>614</ele>
        <time>2025-05-05T16:53:16Z</time>
      </trkpt>
      <trkpt lat="45.29961" lon="2.04924">
        <ele>614</ele>
        <time>2025-05-05T16:53:23Z</time>
      </trkpt>
      <trkpt lat="45.29982" lon="2.04911">
        <ele>614</ele>
        <time>2025-05-05T16:53:42Z</time>
      </trkpt>
      <trkpt lat="45.29993" lon="2.04901">
        <ele>614</ele>
        <time>2025-05-05T16:53:52Z</time>
      </trkpt>
      <trkpt lat="45.30022" lon="2.04865">
        <ele>613</ele>
        <time>2025-05-05T16:54:23Z</time>
      </trkpt>
      <trkpt lat="45.30044" lon="2.04842">
        <ele>613</ele>
        <time>2025-05-05T16:54:45Z</time>
      </trkpt>
      <trkpt lat="45.30065" lon="2.04831">
        <ele>614</ele>
        <time>2025-05-05T16:55:03Z</time>
      </trkpt>
      <trkpt lat="45.30076" lon="2.04829">
        <ele>614</ele>
        <time>2025-05-05T16:55:12Z</time>
      </trkpt>
      <trkpt lat="45.30102" lon="2.0483">
        <ele>615</ele>
        <time>2025-05-05T16:55:32Z</time>
      </trkpt>
      <trkpt lat="45.30114" lon="2.04834">
        <ele>615</ele>
        <time>2025-05-05T16:55:42Z</time>
      </trkpt>
      <trkpt lat="45.30243" lon="2.04891">
        <ele>614</ele>
        <time>2025-05-05T16:57:30Z</time>
      </trkpt>
      <trkpt lat="45.30264" lon="2.04896">
        <ele>613</ele>
        <time>2025-05-05T16:57:47Z</time>
      </trkpt>
      <trkpt lat="45.30397" lon="2.04906">
        <ele>602</ele>
        <time>2025-05-05T16:59:34Z</time>
      </trkpt>
      <trkpt lat="45.30419" lon="2.04902">
        <ele>600</ele>
        <time>2025-05-05T16:59:52Z</time>
      </trkpt>
      <trkpt lat="45.30483" lon="2.04873">
        <ele>599</ele>
        <time>2025-05-05T17:00:46Z</time>
      </trkpt>
      <trkpt lat="45.30513" lon="2.04873">
        <ele>599</ele>
        <time>2025-05-05T17:01:10Z</time>
      </trkpt>
      <trkpt lat="45.30529" lon="2.04879">
        <ele>599</ele>
        <time>2025-05-05T17:01:23Z</time>
      </trkpt>
      <trkpt lat="45.30548" lon="2.04892">
        <ele>598</ele>
        <time>2025-05-05T17:01:40Z</time>
      </trkpt>
      <trkpt lat="45.30578" lon="2.04921">
        <ele>597</ele>
        <time>2025-05-05T17:02:09Z</time>
      </trkpt>
      <trkpt lat="45.30611" lon="2.04943">
        <ele>596</ele>
        <time>2025-05-05T17:02:38Z</time>
      </trkpt>
      <trkpt lat="45.30953" lon="2.05084">
        <ele>575</ele>
        <time>2025-05-05T17:07:23Z</time>
      </trkpt>
      <trkpt lat="45.30975" lon="2.05096">
        <ele>576</ele>
        <time>2025-05-05T17:07:42Z</time>
      </trkpt>
      <trkpt lat="45.30998" lon="2.05114">
        <ele>577</ele>
        <time>2025-05-05T17:08:03Z</time>
      </trkpt>
      <trkpt lat="45.31057" lon="2.05183">
        <ele>581</ele>
        <time>2025-05-05T17:09:04Z</time>
      </trkpt>
      <trkpt lat="45.3109" lon="2.05211">
        <ele>583</ele>
        <time>2025-05-05T17:09:35Z</time>
      </trkpt>
      <trkpt lat="45.31115" lon="2.05225">
        <ele>585</ele>
        <time>2025-05-05T17:09:56Z</time>
      </trkpt>
      <trkpt lat="45.31141" lon="2.05234">
        <ele>586</ele>
        <time>2025-05-05T17:10:18Z</time>
      </trkpt>
      <trkpt lat="45.31199" lon="2.05238">
        <ele>590</ele>
        <time>2025-05-05T17:11:04Z</time>
      </trkpt>
      <trkpt lat="45.31229" lon="2.05248">
        <ele>593</ele>
        <time>2025-05-05T17:11:29Z</time>
      </trkpt>
      <trkpt lat="45.31249" lon="2.0526">
        <ele>595</ele>
        <time>2025-05-05T17:11:46Z</time>
      </trkpt>
      <trkpt lat="45.31259" lon="2.05269">
        <ele>596</ele>
        <time>2025-05-05T17:11:56Z</time>
      </trkpt>
      <trkpt lat="45.31302" lon="2.05321">
        <ele>596</ele>
        <time>2025-05-05T17:12:41Z</time>
      </trkpt>
      <trkpt lat="45.31319" lon="2.05335">
        <ele>596</ele>
        <time>2025-05-05T17:12:57Z</time>
      </trkpt>
      <trkpt lat="45.31341" lon="2.05344">
        <ele>598</ele>
        <time>2025-05-05T17:13:15Z</time>
      </trkpt>
      <trkpt lat="45.31383" lon="2.05352">
        <ele>601</ele>
        <time>2025-05-05T17:13:49Z</time>
      </trkpt>
      <trkpt lat="45.31394" lon="2.05356">
        <ele>602</ele>
        <time>2025-05-05T17:13:58Z</time>
      </trkpt>
      <trkpt lat="45.31421" lon="2.05372">
        <ele>603</ele>
        <time>2025-05-05T17:14:22Z</time>
      </trkpt>
      <trkpt lat="45.31434" lon="2.05384">
        <ele>603</ele>
        <time>2025-05-05T17:14:34Z</time>
      </trkpt>
      <trkpt lat="45.31456" lon="2.05411">
        <ele>603</ele>
        <time>2025-05-05T17:14:57Z</time>
      </trkpt>
      <trkpt lat="45.3148" lon="2.05462">
        <ele>603</ele>
        <time>2025-05-05T17:15:32Z</time>
      </trkpt>
      <trkpt lat="45.31503" lon="2.055">
        <ele>601</ele>
        <time>2025-05-05T17:16:00Z</time>
      </trkpt>
      <trkpt lat="45.31521" lon="2.05519">
        <ele>603</ele>
        <time>2025-05-05T17:16:18Z</time>
      </trkpt>
      <trkpt lat="45.31544" lon="2.05535">
        <ele>605</ele>
        <time>2025-05-05T17:16:39Z</time>
      </trkpt>
      <trkpt lat="45.31585" lon="2.05558">
        <ele>607</ele>
        <time>2025-05-05T17:17:14Z</time>
      </trkpt>
      <trkpt lat="45.31607" lon="2.05577">
        <ele>608</ele>
        <time>2025-05-05T17:17:34Z</time>
      </trkpt>
      <trkpt lat="45.31752" lon="2.05779">
        <ele>615</ele>
        <time>2025-05-05T17:20:17Z</time>
      </trkpt>
      <trkpt lat="45.31787" lon="2.05818">
        <ele>617</ele>
        <time>2025-05-05T17:20:53Z</time>
      </trkpt>
      <trkpt lat="45.31829" lon="2.05857">
        <ele>617</ele>
        <time>2025-05-05T17:21:33Z</time>
      </trkpt>
      <trkpt lat="45.32007" lon="2.05991">
        <ele>612</ele>
        <time>2025-05-05T17:24:14Z</time>
      </trkpt>
      <trkpt lat="45.32046" lon="2.06017">
        <ele>611</ele>
        <time>2025-05-05T17:24:48Z</time>
      </trkpt>
      <trkpt lat="45.32074" lon="2.06028">
        <ele>610</ele>
        <time>2025-05-05T17:25:12Z</time>
      </trkpt>
      <trkpt lat="45.32106" lon="2.06032">
        <ele>610</ele>
        <time>2025-05-05T17:25:37Z</time>
      </trkpt>
      <trkpt lat="45.32118" lon="2.06031">
        <ele>609</ele>
        <time>2025-05-05T17:25:47Z</time>
      </trkpt>
      <trkpt lat="45.32183" lon="2.06017">
        <ele>607</ele>
        <time>2025-05-05T17:26:40Z</time>
      </trkpt>
      <trkpt lat="45.32215" lon="2.06013">
        <ele>607</ele>
        <time>2025-05-05T17:27:05Z</time>
      </trkpt>
      <trkpt lat="45.32253" lon="2.06021">
        <ele>608</ele>
        <time>2025-05-05T17:27:36Z</time>
      </trkpt>
      <trkpt lat="45.3229" lon="2.06044">
        <ele>610</ele>
        <time>2025-05-05T17:28:08Z</time>
      </trkpt>
      <trkpt lat="45.3232" lon="2.06082">
        <ele>613</ele>
        <time>2025-05-05T17:28:41Z</time>
      </trkpt>
      <trkpt lat="45.32434" lon="2.06303">
        <ele>607</ele>
        <time>2025-05-05T17:31:15Z</time>
      </trkpt>
      <trkpt lat="45.32468" lon="2.0636">
        <ele>608</ele>
        <time>2025-05-05T17:31:57Z</time>
      </trkpt>
      <trkpt lat="45.32484" lon="2.06381">
        <ele>610</ele>
        <time>2025-05-05T17:32:14Z</time>
      </trkpt>
      <trkpt lat="45.32543" lon="2.06441">
        <ele>616</ele>
        <time>2025-05-05T17:33:13Z</time>
      </trkpt>
      <trkpt lat="45.32576" lon="2.06465">
        <ele>618</ele>
        <time>2025-05-05T17:33:42Z</time>
      </trkpt>
      <trkpt lat="45.32616" lon="2.06485">
        <ele>615</ele>
        <time>2025-05-05T17:34:16Z</time>
      </trkpt>
      <trkpt lat="45.32651" lon="2.06498">
        <ele>611</ele>
        <time>2025-05-05T17:34:45Z</time>
      </trkpt>
      <trkpt lat="45.32707" lon="2.06507">
        <ele>608</ele>
        <time>2025-05-05T17:35:30Z</time>
      </trkpt>
      <trkpt lat="45.32917" lon="2.06509">
        <ele>612</ele>
        <time>2025-05-05T17:38:18Z</time>
      </trkpt>
      <trkpt lat="45.32957" lon="2.06504">
        <ele>611</ele>
        <time>2025-05-05T17:38:51Z</time>
      </trkpt>
      <trkpt lat="45.32985" lon="2.06494">
        <ele>610</ele>
        <time>2025-05-05T17:39:14Z</time>
      </trkpt>
      <trkpt lat="45.33025" lon="2.06467">
        <ele>608</ele>
        <time>2025-05-05T17:39:49Z</time>
      </trkpt>
      <trkpt lat="45.33058" lon="2.0643">
        <ele>607</ele>
        <time>2025-05-05T17:40:23Z</time>
      </trkpt>
      <trkpt lat="45.3312" lon="2.0634">
        <ele>602</ele>
        <time>2025-05-05T17:41:34Z</time>
      </trkpt>
      <trkpt lat="45.33138" lon="2.06319">
        <ele>600</ele>
        <time>2025-05-05T17:41:52Z</time>
      </trkpt>
      <trkpt lat="45.33232" lon="2.06247">
        <ele>587</ele>
        <time>2025-05-05T17:43:18Z</time>
      </trkpt>
      <trkpt lat="45.33254" lon="2.06226">
        <ele>584</ele>
        <time>2025-05-05T17:43:39Z</time>
      </trkpt>
      <trkpt lat="45.33276" lon="2.06197">
        <ele>581</ele>
        <time>2025-05-05T17:44:03Z</time>
      </trkpt>
      <trkpt lat="45.33336" lon="2.06093">
        <ele>569</ele>
        <time>2025-05-05T17:45:19Z</time>
      </trkpt>
      <trkpt lat="45.33361" lon="2.06044">
        <ele>565</ele>
        <time>2025-05-05T17:45:53Z</time>
      </trkpt>
      <trkpt lat="45.33392" lon="2.05945">
        <ele>564</ele>
        <time>2025-05-05T17:46:54Z</time>
      </trkpt>
      <trkpt lat="45.33407" lon="2.05916">
        <ele>563</ele>
        <time>2025-05-05T17:47:14Z</time>
      </trkpt>
      <trkpt lat="45.33449" lon="2.05869">
        <ele>567</ele>
        <time>2025-05-05T17:47:57Z</time>
      </trkpt>
      <trkpt lat="45.33472" lon="2.05859">
        <ele>569</ele>
        <time>2025-05-05T17:48:16Z</time>
      </trkpt>
      <trkpt lat="45.33491" lon="2.05861">
        <ele>570</ele>
        <time>2025-05-05T17:48:31Z</time>
      </trkpt>
      <trkpt lat="45.33508" lon="2.0587">
        <ele>570</ele>
        <time>2025-05-05T17:48:46Z</time>
      </trkpt>
      <trkpt lat="45.33574" lon="2.05944">
        <ele>572</ele>
        <time>2025-05-05T17:49:53Z</time>
      </trkpt>
      <trkpt lat="45.33599" lon="2.05964">
        <ele>572</ele>
        <time>2025-05-05T17:50:16Z</time>
      </trkpt>
      <trkpt lat="45.33614" lon="2.0597">
        <ele>572</ele>
        <time>2025-05-05T17:50:29Z</time>
      </trkpt>
      <trkpt lat="45.33628" lon="2.05972">
        <ele>572</ele>
        <time>2025-05-05T17:50:40Z</time>
      </trkpt>
      <trkpt lat="45.33657" lon="2.05967">
        <ele>572</ele>
        <time>2025-05-05T17:51:03Z</time>
      </trkpt>
      <trkpt lat="45.33749" lon="2.05925">
        <ele>575</ele>
        <time>2025-05-05T17:52:21Z</time>
      </trkpt>
      <trkpt lat="45.33763" lon="2.05923">
        <ele>576</ele>
        <time>2025-05-05T17:52:32Z</time>
      </trkpt>
      <trkpt lat="45.33778" lon="2.05924">
        <ele>576</ele>
        <time>2025-05-05T17:52:44Z</time>
      </trkpt>
      <trkpt lat="45.3381" lon="2.05941">
        <ele>577</ele>
        <time>2025-05-05T17:53:11Z</time>
      </trkpt>
      <trkpt lat="45.33824" lon="2.05956">
        <ele>577</ele>
        <time>2025-05-05T17:53:25Z</time>
      </trkpt>
      <trkpt lat="45.33988" lon="2.06163">
        <ele>572</ele>
        <time>2025-05-05T17:56:21Z</time>
      </trkpt>
      <trkpt lat="45.34011" lon="2.06186">
        <ele>573</ele>
        <time>2025-05-05T17:56:43Z</time>
      </trkpt>
      <trkpt lat="45.34033" lon="2.062">
        <ele>574</ele>
        <time>2025-05-05T17:57:03Z</time>
      </trkpt>
      <trkpt lat="45.34074" lon="2.06209">
        <ele>575</ele>
        <time>2025-05-05T17:57:36Z</time>
      </trkpt>
      <trkpt lat="45.34155" lon="2.06209">
        <ele>575</ele>
        <time>2025-05-05T17:58:41Z</time>
      </trkpt>
      <trkpt lat="45.34281" lon="2.06214">
        <ele>579</ele>
        <time>2025-05-05T18:00:22Z</time>
      </trkpt>
      <trkpt lat="45.3433" lon="2.06222">
        <ele>580</ele>
        <time>2025-05-05T18:01:01Z</time>
      </trkpt>
      <trkpt lat="45.34487" lon="2.06256">
        <ele>587</ele>
        <time>2025-05-05T18:03:08Z</time>
      </trkpt>
      <trkpt lat="45.34526" lon="2.06262">
        <ele>587</ele>
        <time>2025-05-05T18:03:40Z</time>
      </trkpt>
      <trkpt lat="45.3456" lon="2.06254">
        <ele>587</ele>
        <time>2025-05-05T18:04:07Z</time>
      </trkpt>
      <trkpt lat="45.34573" lon="2.06246">
        <ele>588</ele>
        <time>2025-05-05T18:04:19Z</time>
      </trkpt>
      <trkpt lat="45.34672" lon="2.06145">
        <ele>593</ele>
        <time>2025-05-05T18:05:56Z</time>
      </trkpt>
      <trkpt lat="45.34695" lon="2.06126">
        <ele>594</ele>
        <time>2025-05-05T18:06:18Z</time>
      </trkpt>
      <trkpt lat="45.34736" lon="2.06098">
        <ele>595</ele>
        <time>2025-05-05T18:06:54Z</time>
      </trkpt>
      <trkpt lat="45.34786" lon="2.06074">
        <ele>595</ele>
        <time>2025-05-05T18:07:36Z</time>
      </trkpt>
      <trkpt lat="45.3499" lon="2.06013">
        <ele>597</ele>
        <time>2025-05-05T18:10:23Z</time>
      </trkpt>
      <trkpt lat="45.35035" lon="2.05996">
        <ele>598</ele>
        <time>2025-05-05T18:11:00Z</time>
      </trkpt>
      <trkpt lat="45.35072" lon="2.05976">
        <ele>599</ele>
        <time>2025-05-05T18:11:32Z</time>
      </trkpt>
      <trkpt lat="45.35105" lon="2.05954">
        <ele>600</ele>
        <time>2025-05-05T18:12:01Z</time>
      </trkpt>
      <trkpt lat="45.35196" lon="2.05882">
        <ele>604</ele>
        <time>2025-05-05T18:13:25Z</time>
      </trkpt>
      <trkpt lat="45.35235" lon="2.05858">
        <ele>607</ele>
        <time>2025-05-05T18:13:59Z</time>
      </trkpt>
      <trkpt lat="45.3531" lon="2.05821">
        <ele>613</ele>
        <time>2025-05-05T18:15:02Z</time>
      </trkpt>
      <trkpt lat="45.35368" lon="2.05799">
        <ele>618</ele>
        <time>2025-05-05T18:15:50Z</time>
      </trkpt>
      <trkpt lat="45.35442" lon="2.05781">
        <ele>624</ele>
        <time>2025-05-05T18:16:50Z</time>
      </trkpt>
      <trkpt lat="45.35504" lon="2.05773">
        <ele>629</ele>
        <time>2025-05-05T18:17:40Z</time>
      </trkpt>
      <trkpt lat="45.36446" lon="2.05696">
        <ele>625</ele>
        <time>2025-05-05T18:30:16Z</time>
      </trkpt>
      <trkpt lat="45.36531" lon="2.05681">
        <ele>624</ele>
        <time>2025-05-05T18:31:24Z</time>
      </trkpt>
      <trkpt lat="45.36652" lon="2.0565">
        <ele>616</ele>
        <time>2025-05-05T18:33:03Z</time>
      </trkpt>
      <trkpt lat="45.36689" lon="2.05638">
        <ele>615</ele>
        <time>2025-05-05T18:33:33Z</time>
      </trkpt>
      <trkpt lat="45.36745" lon="2.05629">
        <ele>615</ele>
        <time>2025-05-05T18:34:18Z</time>
      </trkpt>
      <trkpt lat="45.36759" lon="2.05629">
        <ele>616</ele>
        <time>2025-05-05T18:34:29Z</time>
      </trkpt>
      <trkpt lat="45.36803" lon="2.05641">
        <ele>617</ele>
        <time>2025-05-05T18:35:05Z</time>
      </trkpt>
      <trkpt lat="45.36923" lon="2.05694">
        <ele>616</ele>
        <time>2025-05-05T18:36:46Z</time>
      </trkpt>
      <trkpt lat="45.36957" lon="2.05712">
        <ele>616</ele>
        <time>2025-05-05T18:37:15Z</time>
      </trkpt>
      <trkpt lat="45.3721" lon="2.05827">
        <ele>619</ele>
        <time>2025-05-05T18:40:48Z</time>
      </trkpt>
      <trkpt lat="45.37285" lon="2.05859">
        <ele>621</ele>
        <time>2025-05-05T18:41:50Z</time>
      </trkpt>
      <trkpt lat="45.37442" lon="2.05919">
        <ele>625</ele>
        <time>2025-05-05T18:44:00Z</time>
      </trkpt>
      <trkpt lat="45.37611" lon="2.0598">
        <ele>625</ele>
        <time>2025-05-05T18:46:20Z</time>
      </trkpt>
      <trkpt lat="45.37626" lon="2.05997">
        <ele>625</ele>
        <time>2025-05-05T18:46:35Z</time>
      </trkpt>
      <trkpt lat="45.37636" lon="2.06028">
        <ele>624</ele>
        <time>2025-05-05T18:46:55Z</time>
      </trkpt>
      <trkpt lat="45.37669" lon="2.06008">
        <ele>623</ele>
        <time>2025-05-05T18:47:23Z</time>
      </trkpt>
      <trkpt lat="45.37707" lon="2.05994">
        <ele>624</ele>
        <time>2025-05-05T18:47:55Z</time>
      </trkpt>
      <trkpt lat="45.37797" lon="2.05989">
        <ele>623</ele>
        <time>2025-05-05T18:49:07Z</time>
      </trkpt>
      <trkpt lat="45.37847" lon="2.05993">
        <ele>621</ele>
        <time>2025-05-05T18:49:47Z</time>
      </trkpt>
      <trkpt lat="45.37873" lon="2.05999">
        <ele>621</ele>
        <time>2025-05-05T18:50:08Z</time>
      </trkpt>
      <trkpt lat="45.37925" lon="2.06016">
        <ele>620</ele>
        <time>2025-05-05T18:50:51Z</time>
      </trkpt>
      <trkpt lat="45.38013" lon="2.06055">
        <ele>621</ele>
        <time>2025-05-05T18:52:05Z</time>
      </trkpt>
      <trkpt lat="45.38048" lon="2.06067">
        <ele>622</ele>
        <time>2025-05-05T18:52:33Z</time>
      </trkpt>
      <trkpt lat="45.38082" lon="2.06075">
        <ele>624</ele>
        <time>2025-05-05T18:53:01Z</time>
      </trkpt>
      <trkpt lat="45.38118" lon="2.0608">
        <ele>623</ele>
        <time>2025-05-05T18:53:30Z</time>
      </trkpt>
      <trkpt lat="45.38165" lon="2.06081">
        <ele>623</ele>
        <time>2025-05-05T18:54:08Z</time>
      </trkpt>
      <trkpt lat="45.38224" lon="2.06074">
        <ele>622</ele>
        <time>2025-05-05T18:54:55Z</time>
      </trkpt>
      <trkpt lat="45.38371" lon="2.06033">
        <ele>622</ele>
        <time>2025-05-05T18:56:55Z</time>
      </trkpt>
      <trkpt lat="45.38416" lon="2.06026">
        <ele>622</ele>
        <time>2025-05-05T18:57:31Z</time>
      </trkpt>
      <trkpt lat="45.38447" lon="2.06027">
        <ele>621</ele>
        <time>2025-05-05T18:57:56Z</time>
      </trkpt>
      <trkpt lat="45.3849" lon="2.06038">
        <ele>620</ele>
        <time>2025-05-05T18:58:31Z</time>
      </trkpt>
      <trkpt lat="45.38564" lon="2.06074">
        <ele>619</ele>
        <time>2025-05-05T18:59:34Z</time>
      </trkpt>
      <trkpt lat="45.38601" lon="2.06086">
        <ele>619</ele>
        <time>2025-05-05T19:00:04Z</time>
      </trkpt>
      <trkpt lat="45.38629" lon="2.06084">
        <ele>618</ele>
        <time>2025-05-05T19:00:26Z</time>
      </trkpt>
      <trkpt lat="45.38649" lon="2.06076">
        <ele>617</ele>
        <time>2025-05-05T19:00:43Z</time>
      </trkpt>
      <trkpt lat="45.38679" lon="2.06051">
        <ele>616</ele>
        <time>2025-05-05T19:01:11Z</time>
      </trkpt>
      <trkpt lat="45.38838" lon="2.05813">
        <ele>617</ele>
        <time>2025-05-05T19:04:16Z</time>
      </trkpt>
      <trkpt lat="45.38868" lon="2.0578">
        <ele>617</ele>
        <time>2025-05-05T19:04:46Z</time>
      </trkpt>
      <trkpt lat="45.38875" lon="2.05782">
        <ele>617</ele>
        <time>2025-05-05T19:04:52Z</time>
      </trkpt>
      <trkpt lat="45.38884" lon="2.05777">
        <ele>617</ele>
        <time>2025-05-05T19:04:59Z</time>
      </trkpt>
      <trkpt lat="45.3889" lon="2.05764">
        <ele>617</ele>
        <time>2025-05-05T19:05:08Z</time>
      </trkpt>
      <trkpt lat="45.3889" lon="2.05752">
        <ele>617</ele>
        <time>2025-05-05T19:05:15Z</time>
      </trkpt>
      <trkpt lat="45.38886" lon="2.05742">
        <ele>617</ele>
        <time>2025-05-05T19:05:21Z</time>
      </trkpt>
      <trkpt lat="45.38878" lon="2.05735">
        <ele>618</ele>
        <time>2025-05-05T19:05:29Z</time>
      </trkpt>
      <trkpt lat="45.38871" lon="2.05735">
        <ele>618</ele>
        <time>2025-05-05T19:05:34Z</time>
      </trkpt>
      <trkpt lat="45.38863" lon="2.05727">
        <ele>618</ele>
        <time>2025-05-05T19:05:42Z</time>
      </trkpt>
      <trkpt lat="45.38811" lon="2.05632">
        <ele>616</ele>
        <time>2025-05-05T19:06:50Z</time>
      </trkpt>
      <trkpt lat="45.38699" lon="2.05409">
        <ele>611</ele>
        <time>2025-05-05T19:09:24Z</time>
      </trkpt>
      <trkpt lat="45.38686" lon="2.05374">
        <ele>610</ele>
        <time>2025-05-05T19:09:46Z</time>
      </trkpt>
      <trkpt lat="45.38674" lon="2.05336">
        <ele>610</ele>
        <time>2025-05-05T19:10:10Z</time>
      </trkpt>
      <trkpt lat="45.38665" lon="2.05258">
        <ele>606</ele>
        <time>2025-05-05T19:10:54Z</time>
      </trkpt>
      <trkpt lat="45.38666" lon="2.05199">
        <ele>602</ele>
        <time>2025-05-05T19:11:28Z</time>
      </trkpt>
      <trkpt lat="45.38679" lon="2.05133">
        <ele>601</ele>
        <time>2025-05-05T19:12:06Z</time>
      </trkpt>
      <trkpt lat="45.38698" lon="2.05078">
        <ele>604</ele>
        <time>2025-05-05T19:12:41Z</time>
      </trkpt>
      <trkpt lat="45.38724" lon="2.05032">
        <ele>605</ele>
        <time>2025-05-05T19:13:14Z</time>
      </trkpt>
      <trkpt lat="45.3881" lon="2.04925">
        <ele>612</ele>
        <time>2025-05-05T19:14:45Z</time>
      </trkpt>
      <trkpt lat="45.38863" lon="2.0485">
        <ele>624</ele>
        <time>2025-05-05T19:15:45Z</time>
      </trkpt>
      <trkpt lat="45.38914" lon="2.04773">
        <ele>625</ele>
        <time>2025-05-05T19:16:45Z</time>
      </trkpt>
      <trkpt lat="45.39" lon="2.04651">
        <ele>608</ele>
        <time>2025-05-05T19:18:22Z</time>
      </trkpt>
      <trkpt lat="45.39072" lon="2.04538">
        <ele>613</ele>
        <time>2025-05-05T19:19:47Z</time>
      </trkpt>
      <trkpt lat="45.39106" lon="2.0447">
        <ele>617</ele>
        <time>2025-05-05T19:20:34Z</time>
      </trkpt>
      <trkpt lat="45.39132" lon="2.04389">
        <ele>623</ele>
        <time>2025-05-05T19:21:25Z</time>
      </trkpt>
      <trkpt lat="45.39239" lon="2.03969">
        <ele>619</ele>
        <time>2025-05-05T19:25:36Z</time>
      </trkpt>
      <trkpt lat="45.39251" lon="2.03897">
        <ele>615</ele>
        <time>2025-05-05T19:26:17Z</time>
      </trkpt>
      <trkpt lat="45.39252" lon="2.03823">
        <ele>607</ele>
        <time>2025-05-05T19:26:59Z</time>
      </trkpt>
      <trkpt lat="45.39235" lon="2.03613">
        <ele>603</ele>
        <time>2025-05-05T19:28:58Z</time>
      </trkpt>
      <trkpt lat="45.39232" lon="2.03515">
        <ele>600</ele>
        <time>2025-05-05T19:29:53Z</time>
      </trkpt>
      <trkpt lat="45.39234" lon="2.03423">
        <ele>600</ele>
        <time>2025-05-05T19:30:45Z</time>
      </trkpt>
      <trkpt lat="45.39239" lon="2.03346">
        <ele>602</ele>
        <time>2025-05-05T19:31:28Z</time>
      </trkpt>
      <trkpt lat="45.39248" lon="2.03265">
        <ele>601</ele>
        <time>2025-05-05T19:32:14Z</time>
      </trkpt>
      <trkpt lat="45.39254" lon="2.03236">
        <ele>599</ele>
        <time>2025-05-05T19:32:31Z</time>
      </trkpt>
      <trkpt lat="45.39267" lon="2.03198">
        <ele>594</ele>
        <time>2025-05-05T19:32:55Z</time>
      </trkpt>
      <trkpt lat="45.39275" lon="2.03195">
        <ele>594</ele>
        <time>2025-05-05T19:33:02Z</time>
      </trkpt>
      <trkpt lat="45.39281" lon="2.03188">
        <ele>593</ele>
        <time>2025-05-05T19:33:08Z</time>
      </trkpt>
      <trkpt lat="45.39286" lon="2.03179">
        <ele>592</ele>
        <time>2025-05-05T19:33:14Z</time>
      </trkpt>
      <trkpt lat="45.39288" lon="2.03169">
        <ele>591</ele>
        <time>2025-05-05T19:33:20Z</time>
      </trkpt>
      <trkpt lat="45.39287" lon="2.03155">
        <ele>590</ele>
        <time>2025-05-05T19:33:28Z</time>
      </trkpt>
      <trkpt lat="45.39283" lon="2.03143">
        <ele>589</ele>
        <time>2025-05-05T19:33:36Z</time>
      </trkpt>
      <trkpt lat="45.39275" lon="2.03135">
        <ele>587</ele>
        <time>2025-05-05T19:33:43Z</time>
      </trkpt>
      <trkpt lat="45.39263" lon="2.03131">
        <ele>586</ele>
        <time>2025-05-05T19:33:53Z</time>
      </trkpt>
      <trkpt lat="45.39251" lon="2.03136">
        <ele>586</ele>
        <time>2025-05-05T19:34:03Z</time>
      </trkpt>
      <trkpt lat="45.39247" lon="2.03142">
        <ele>586</ele>
        <time>2025-05-05T19:34:08Z</time>
      </trkpt>
      <trkpt lat="45.39212" lon="2.03137">
        <ele>586</ele>
        <time>2025-05-05T19:34:36Z</time>
      </trkpt>
      <trkpt lat="45.39038" lon="2.03049">
        <ele>579</ele>
        <time>2025-05-05T19:37:04Z</time>
      </trkpt>
      <trkpt lat="45.39016" lon="2.03037">
        <ele>579</ele>
        <time>2025-05-05T19:37:23Z</time>
      </trkpt>
      <trkpt lat="45.38977" lon="2.0301">
        <ele>579</ele>
        <time>2025-05-05T19:37:58Z</time>
      </trkpt>
      <trkpt lat="45.38897" lon="2.02942">
        <ele>580</ele>
        <time>2025-05-05T19:39:12Z</time>
      </trkpt>
      <trkpt lat="45.38839" lon="2.02887">
        <ele>577</ele>
        <time>2025-05-05T19:40:08Z</time>
      </trkpt>
      <trkpt lat="45.3881" lon="2.02854">
        <ele>576</ele>
        <time>2025-05-05T19:40:38Z</time>
      </trkpt>
      <trkpt lat="45.38793" lon="2.02831">
        <ele>576</ele>
        <time>2025-05-05T19:40:56Z</time>
      </trkpt>
      <trkpt lat="45.38746" lon="2.02741">
        <ele>572</ele>
        <time>2025-05-05T19:42:00Z</time>
      </trkpt>
      <trkpt lat="45.38753" lon="2.02736">
        <ele>572</ele>
        <time>2025-05-05T19:42:06Z</time>
      </trkpt>
      <trkpt lat="45.3876" lon="2.02736">
        <ele>572</ele>
        <time>2025-05-05T19:42:11Z</time>
      </trkpt>
      <trkpt lat="45.38766" lon="2.0274">
        <ele>572</ele>
        <time>2025-05-05T19:42:17Z</time>
      </trkpt>
      <trkpt lat="45.38797" lon="2.02796">
        <ele>574</ele>
        <time>2025-05-05T19:42:57Z</time>
      </trkpt>
      <trkpt lat="45.38809" lon="2.02801">
        <ele>575</ele>
        <time>2025-05-05T19:43:07Z</time>
      </trkpt>
      <trkpt lat="45.3882" lon="2.02801">
        <ele>576</ele>
        <time>2025-05-05T19:43:16Z</time>
      </trkpt>
      <trkpt lat="45.38833" lon="2.02795">
        <ele>576</ele>
        <time>2025-05-05T19:43:27Z</time>
      </trkpt>
      <trkpt lat="45.3886" lon="2.02771">
        <ele>578</ele>
        <time>2025-05-05T19:43:52Z</time>
      </trkpt>
      <trkpt lat="45.38833" lon="2.02795">
        <ele>576</ele>
        <time>2025-05-05T19:44:18Z</time>
      </trkpt>
      <trkpt lat="45.3882" lon="2.02801">
        <ele>576</ele>
        <time>2025-05-05T19:44:28Z</time>
      </trkpt>
      <trkpt lat="45.38809" lon="2.02801">
        <ele>575</ele>
        <time>2025-05-05T19:44:37Z</time>
      </trkpt>
      <trkpt lat="45.38797" lon="2.02796">
        <ele>574</ele>
        <time>2025-05-05T19:44:47Z</time>
      </trkpt>
      <trkpt lat="45.38766" lon="2.0274">
        <ele>572</ele>
        <time>2025-05-05T19:45:27Z</time>
      </trkpt>
      <trkpt lat="45.3876" lon="2.02736">
        <ele>572</ele>
        <time>2025-05-05T19:45:33Z</time>
      </trkpt>
      <trkpt lat="45.38753" lon="2.02736">
        <ele>572</ele>
        <time>2025-05-05T19:45:38Z</time>
      </trkpt>
      <trkpt lat="45.38746" lon="2.02741">
        <ele>572</ele>
        <time>2025-05-05T19:45:45Z</time>
      </trkpt>
      <trkpt lat="45.38793" lon="2.02831">
        <ele>576</ele>
        <time>2025-05-05T19:46:48Z</time>
      </trkpt>
      <trkpt lat="45.3881" lon="2.02854">
        <ele>576</ele>
        <time>2025-05-05T19:47:06Z</time>
      </trkpt>
      <trkpt lat="45.38839" lon="2.02887">
        <ele>577</ele>
        <time>2025-05-05T19:47:36Z</time>
      </trkpt>
      <trkpt lat="45.38941" lon="2.02981">
        <ele>581</ele>
        <time>2025-05-05T19:49:13Z</time>
      </trkpt>
      <trkpt lat="45.38977" lon="2.0301">
        <ele>579</ele>
        <time>2025-05-05T19:49:47Z</time>
      </trkpt>
      <trkpt lat="45.39016" lon="2.03037">
        <ele>579</ele>
        <time>2025-05-05T19:50:21Z</time>
      </trkpt>
      <trkpt lat="45.39212" lon="2.03137">
        <ele>586</ele>
        <time>2025-05-05T19:53:08Z</time>
      </trkpt>
      <trkpt lat="45.39241" lon="2.03163">
        <ele>588</ele>
        <time>2025-05-05T19:53:35Z</time>
      </trkpt>
      <trkpt lat="45.39241" lon="2.03174">
        <ele>589</ele>
        <time>2025-05-05T19:53:42Z</time>
      </trkpt>
      <trkpt lat="45.3925" lon="2.03192">
        <ele>592</ele>
        <time>2025-05-05T19:53:54Z</time>
      </trkpt>
      <trkpt lat="45.39258" lon="2.03197">
        <ele>593</ele>
        <time>2025-05-05T19:54:01Z</time>
      </trkpt>
      <trkpt lat="45.39267" lon="2.03198">
        <ele>594</ele>
        <time>2025-05-05T19:54:08Z</time>
      </trkpt>
      <trkpt lat="45.39275" lon="2.03195">
        <ele>594</ele>
        <time>2025-05-05T19:54:15Z</time>
      </trkpt>
      <trkpt lat="45.39281" lon="2.03188">
        <ele>593</ele>
        <time>2025-05-05T19:54:21Z</time>
      </trkpt>
      <trkpt lat="45.39286" lon="2.03179">
        <ele>592</ele>
        <time>2025-05-05T19:54:27Z</time>
      </trkpt>
      <trkpt lat="45.39288" lon="2.03169">
        <ele>591</ele>
        <time>2025-05-05T19:54:33Z</time>
      </trkpt>
      <trkpt lat="45.39287" lon="2.03155">
        <ele>590</ele>
        <time>2025-05-05T19:54:41Z</time>
      </trkpt>
      <trkpt lat="45.39283" lon="2.03143">
        <ele>589</ele>
        <time>2025-05-05T19:54:49Z</time>
      </trkpt>
      <trkpt lat="45.39275" lon="2.03135">
        <ele>587</ele>
        <time>2025-05-05T19:54:57Z</time>
      </trkpt>
      <trkpt lat="45.39271" lon="2.03126">
        <ele>586</ele>
        <time>2025-05-05T19:55:03Z</time>
      </trkpt>
      <trkpt lat="45.39267" lon="2.03084">
        <ele>583</ele>
        <time>2025-05-05T19:55:26Z</time>
      </trkpt>
      <trkpt lat="45.39278" lon="2.0284">
        <ele>574</ele>
        <time>2025-05-05T19:57:44Z</time>
      </trkpt>
      <trkpt lat="45.39288" lon="2.02783">
        <ele>576</ele>
        <time>2025-05-05T19:58:17Z</time>
      </trkpt>
      <trkpt lat="45.39299" lon="2.02744">
        <ele>577</ele>
        <time>2025-05-05T19:58:41Z</time>
      </trkpt>
      <trkpt lat="45.3931" lon="2.02719">
        <ele>578</ele>
        <time>2025-05-05T19:58:57Z</time>
      </trkpt>
      <trkpt lat="45.39322" lon="2.02694">
        <ele>578</ele>
        <time>2025-05-05T19:59:14Z</time>
      </trkpt>
      <trkpt lat="45.39336" lon="2.02672">
        <ele>579</ele>
        <time>2025-05-05T19:59:31Z</time>
      </trkpt>
      <trkpt lat="45.39358" lon="2.02644">
        <ele>581</ele>
        <time>2025-05-05T19:59:54Z</time>
      </trkpt>
      <trkpt lat="45.3944" lon="2.02561">
        <ele>586</ele>
        <time>2025-05-05T20:01:15Z</time>
      </trkpt>
      <trkpt lat="45.39636" lon="2.02374">
        <ele>596</ele>
        <time>2025-05-05T20:04:24Z</time>
      </trkpt>
      <trkpt lat="45.39688" lon="2.02332">
        <ele>598</ele>
        <time>2025-05-05T20:05:12Z</time>
      </trkpt>
      <trkpt lat="45.39704" lon="2.02322">
        <ele>598</ele>
        <time>2025-05-05T20:05:26Z</time>
      </trkpt>
      <trkpt lat="45.39742" lon="2.02304">
        <ele>598</ele>
        <time>2025-05-05T20:05:58Z</time>
      </trkpt>
      <trkpt lat="45.39777" lon="2.02293">
        <ele>599</ele>
        <time>2025-05-05T20:06:27Z</time>
      </trkpt>
      <trkpt lat="45.39811" lon="2.02286">
        <ele>599</ele>
        <time>2025-05-05T20:06:54Z</time>
      </trkpt>
      <trkpt lat="45.40116" lon="2.02265">
        <ele>600</ele>
        <time>2025-05-05T20:10:59Z</time>
      </trkpt>
      <trkpt lat="45.40119" lon="2.02267">
        <ele>600</ele>
        <time>2025-05-05T20:11:01Z</time>
      </trkpt>
      <trkpt lat="45.40139" lon="2.02268">
        <ele>601</ele>
        <time>2025-05-05T20:11:17Z</time>
      </trkpt>
      <trkpt lat="45.40153" lon="2.02274">
        <ele>601</ele>
        <time>2025-05-05T20:11:29Z</time>
      </trkpt>
      <trkpt lat="45.4016" lon="2.02284">
        <ele>602</ele>
        <time>2025-05-05T20:11:37Z</time>
      </trkpt>
      <trkpt lat="45.4017" lon="2.02286">
        <ele>602</ele>
        <time>2025-05-05T20:11:45Z</time>
      </trkpt>
      <trkpt lat="45.4018" lon="2.02278">
        <ele>602</ele>
        <time>2025-05-05T20:11:54Z</time>
      </trkpt>
      <trkpt lat="45.40184" lon="2.02264">
        <ele>602</ele>
        <time>2025-05-05T20:12:03Z</time>
      </trkpt>
      <trkpt lat="45.40206" lon="2.02248">
        <ele>601</ele>
        <time>2025-05-05T20:12:22Z</time>
      </trkpt>
      <trkpt lat="45.4021" lon="2.02242">
        <ele>601</ele>
        <time>2025-05-05T20:12:27Z</time>
      </trkpt>
      <trkpt lat="45.40489" lon="2.02121">
        <ele>608</ele>
        <time>2025-05-05T20:16:21Z</time>
      </trkpt>
      <trkpt lat="45.40509" lon="2.02114">
        <ele>608</ele>
        <time>2025-05-05T20:16:37Z</time>
      </trkpt>
      <trkpt lat="45.40545" lon="2.02106">
        <ele>607</ele>
        <time>2025-05-05T20:17:06Z</time>
      </trkpt>
      <trkpt lat="45.40602" lon="2.02101">
        <ele>607</ele>
        <time>2025-05-05T20:17:52Z</time>
      </trkpt>
      <trkpt lat="45.40646" lon="2.02105">
        <ele>608</ele>
        <time>2025-05-05T20:18:27Z</time>
      </trkpt>
      <trkpt lat="45.40739" lon="2.02119">
        <ele>609</ele>
        <time>2025-05-05T20:19:42Z</time>
      </trkpt>
      <trkpt lat="45.40761" lon="2.02133">
        <ele>610</ele>
        <time>2025-05-05T20:20:01Z</time>
      </trkpt>
      <trkpt lat="45.40893" lon="2.02153">
        <ele>617</ele>
        <time>2025-05-05T20:21:48Z</time>
      </trkpt>
      <trkpt lat="45.40936" lon="2.02156">
        <ele>618</ele>
        <time>2025-05-05T20:22:22Z</time>
      </trkpt>
      <trkpt lat="45.41027" lon="2.02152">
        <ele>618</ele>
        <time>2025-05-05T20:23:35Z</time>
      </trkpt>
      <trkpt lat="45.41087" lon="2.02144">
        <ele>616</ele>
        <time>2025-05-05T20:24:23Z</time>
      </trkpt>
      <trkpt lat="45.41135" lon="2.02147">
        <ele>615</ele>
        <time>2025-05-05T20:25:02Z</time>
      </trkpt>
      <trkpt lat="45.41164" lon="2.02161">
        <ele>613</ele>
        <time>2025-05-05T20:25:26Z</time>
      </trkpt>
      <trkpt lat="45.41188" lon="2.02181">
        <ele>613</ele>
        <time>2025-05-05T20:25:49Z</time>
      </trkpt>
      <trkpt lat="45.41211" lon="2.02207">
        <ele>612</ele>
        <time>2025-05-05T20:26:12Z</time>
      </trkpt>
      <trkpt lat="45.41226" lon="2.02233">
        <ele>612</ele>
        <time>2025-05-05T20:26:31Z</time>
      </trkpt>
      <trkpt lat="45.41255" lon="2.02306">
        <ele>613</ele>
        <time>2025-05-05T20:27:18Z</time>
      </trkpt>
      <trkpt lat="45.41323" lon="2.02572">
        <ele>610</ele>
        <time>2025-05-05T20:29:57Z</time>
      </trkpt>
      <trkpt lat="45.41341" lon="2.02621">
        <ele>608</ele>
        <time>2025-05-05T20:30:28Z</time>
      </trkpt>
      <trkpt lat="45.41378" lon="2.02746">
        <ele>617</ele>
        <time>2025-05-05T20:31:45Z</time>
      </trkpt>
      <trkpt lat="45.41446" lon="2.02958">
        <ele>640</ele>
        <time>2025-05-05T20:33:56Z</time>
      </trkpt>
      <trkpt lat="45.41493" lon="2.03083">
        <ele>641</ele>
        <time>2025-05-05T20:35:15Z</time>
      </trkpt>
      <trkpt lat="45.41541" lon="2.03202">
        <ele>642</ele>
        <time>2025-05-05T20:36:32Z</time>
      </trkpt>
      <trkpt lat="45.41592" lon="2.0331">
        <ele>644</ele>
        <time>2025-05-05T20:37:46Z</time>
      </trkpt>
      <trkpt lat="45.41648" lon="2.03413">
        <ele>650</ele>
        <time>2025-05-05T20:38:59Z</time>
      </trkpt>
      <trkpt lat="45.41697" lon="2.03493">
        <ele>651</ele>
        <time>2025-05-05T20:39:58Z</time>
      </trkpt>
      <trkpt lat="45.41723" lon="2.03532">
        <ele>650</ele>
        <time>2025-05-05T20:40:29Z</time>
      </trkpt>
      <trkpt lat="45.41783" lon="2.03612">
        <ele>650</ele>
        <time>2025-05-05T20:41:35Z</time>
      </trkpt>
      <trkpt lat="45.41898" lon="2.03738">
        <ele>650</ele>
        <time>2025-05-05T20:43:31Z</time>
      </trkpt>
      <trkpt lat="45.41986" lon="2.03815">
        <ele>652</ele>
        <time>2025-05-05T20:44:53Z</time>
      </trkpt>
      <trkpt lat="45.4208" lon="2.03881">
        <ele>650</ele>
        <time>2025-05-05T20:46:17Z</time>
      </trkpt>
      <trkpt lat="45.42161" lon="2.03927">
        <ele>651</ele>
        <time>2025-05-05T20:47:27Z</time>
      </trkpt>
      <trkpt lat="45.42247" lon="2.03967">
        <ele>646</ele>
        <time>2025-05-05T20:48:40Z</time>
      </trkpt>
      <trkpt lat="45.4235" lon="2.03999">
        <ele>642</ele>
        <time>2025-05-05T20:50:04Z</time>
      </trkpt>
      <trkpt lat="45.42478" lon="2.04022">
        <ele>630</ele>
        <time>2025-05-05T20:51:47Z</time>
      </trkpt>
      <trkpt lat="45.42539" lon="2.04037">
        <ele>631</ele>
        <time>2025-05-05T20:52:37Z</time>
      </trkpt>
      <trkpt lat="45.42664" lon="2.04079">
        <ele>637</ele>
        <time>2025-05-05T20:54:20Z</time>
      </trkpt>
      <trkpt lat="45.42746" lon="2.04119">
        <ele>641</ele>
        <time>2025-05-05T20:55:29Z</time>
      </trkpt>
      <trkpt lat="45.42827" lon="2.04166">
        <ele>633</ele>
        <time>2025-05-05T20:56:39Z</time>
      </trkpt>
      <trkpt lat="45.42889" lon="2.04207">
        <ele>627</ele>
        <time>2025-05-05T20:57:34Z</time>
      </trkpt>
      <trkpt lat="45.42947" lon="2.04251">
        <ele>625</ele>
        <time>2025-05-05T20:58:26Z</time>
      </trkpt>
      <trkpt lat="45.43046" lon="2.04334">
        <ele>631</ele>
        <time>2025-05-05T20:59:58Z</time>
      </trkpt>
      <trkpt lat="45.43087" lon="2.04363">
        <ele>633</ele>
        <time>2025-05-05T21:00:35Z</time>
      </trkpt>
      <trkpt lat="45.43141" lon="2.04395">
        <ele>634</ele>
        <time>2025-05-05T21:01:22Z</time>
      </trkpt>
      <trkpt lat="45.43198" lon="2.04424">
        <ele>633</ele>
        <time>2025-05-05T21:02:10Z</time>
      </trkpt>
      <trkpt lat="45.43303" lon="2.04461">
        <ele>631</ele>
        <time>2025-05-05T21:03:37Z</time>
      </trkpt>
      <trkpt lat="45.43415" lon="2.04504">
        <ele>624</ele>
        <time>2025-05-05T21:05:10Z</time>
      </trkpt>
      <trkpt lat="45.43491" lon="2.04547">
        <ele>622</ele>
        <time>2025-05-05T21:06:15Z</time>
      </trkpt>
      <trkpt lat="45.43561" lon="2.04601">
        <ele>614</ele>
        <time>2025-05-05T21:07:19Z</time>
      </trkpt>
      <trkpt lat="45.43618" lon="2.04657">
        <ele>604</ele>
        <time>2025-05-05T21:08:14Z</time>
      </trkpt>
      <trkpt lat="45.43676" lon="2.04727">
        <ele>598</ele>
        <time>2025-05-05T21:09:15Z</time>
      </trkpt>
      <trkpt lat="45.43723" lon="2.04804">
        <ele>596</ele>
        <time>2025-05-05T21:10:13Z</time>
      </trkpt>
      <trkpt lat="45.43766" lon="2.04887">
        <ele>599</ele>
        <time>2025-05-05T21:11:11Z</time>
      </trkpt>
      <trkpt lat="45.43805" lon="2.04986">
        <ele>595</ele>
        <time>2025-05-05T21:12:14Z</time>
      </trkpt>
      <trkpt lat="45.43831" lon="2.0507">
        <ele>585</ele>
        <time>2025-05-05T21:13:06Z</time>
      </trkpt>
      <trkpt lat="45.43852" lon="2.05164">
        <ele>578</ele>
        <time>2025-05-05T21:14:01Z</time>
      </trkpt>
      <trkpt lat="45.43862" lon="2.05225">
        <ele>573</ele>
        <time>2025-05-05T21:14:37Z</time>
      </trkpt>
      <trkpt lat="45.43878" lon="2.0536">
        <ele>564</ele>
        <time>2025-05-05T21:15:53Z</time>
      </trkpt>
      <trkpt lat="45.43898" lon="2.05584">
        <ele>559</ele>
        <time>2025-05-05T21:18:00Z</time>
      </trkpt>
      <trkpt lat="45.43922" lon="2.05773">
        <ele>576</ele>
        <time>2025-05-05T21:19:48Z</time>
      </trkpt>
      <trkpt lat="45.43946" lon="2.05888">
        <ele>590</ele>
        <time>2025-05-05T21:20:56Z</time>
      </trkpt>
      <trkpt lat="45.43964" lon="2.05956">
        <ele>596</ele>
        <time>2025-05-05T21:21:36Z</time>
      </trkpt>
      <trkpt lat="45.43984" lon="2.06022">
        <ele>598</ele>
        <time>2025-05-05T21:22:17Z</time>
      </trkpt>
      <trkpt lat="45.44024" lon="2.06133">
        <ele>601</ele>
        <time>2025-05-05T21:23:27Z</time>
      </trkpt>
      <trkpt lat="45.44059" lon="2.06215">
        <ele>606</ele>
        <time>2025-05-05T21:24:21Z</time>
      </trkpt>
      <trkpt lat="45.44099" lon="2.06295">
        <ele>613</ele>
        <time>2025-05-05T21:25:16Z</time>
      </trkpt>
      <trkpt lat="45.4419" lon="2.06441">
        <ele>613</ele>
        <time>2025-05-05T21:27:06Z</time>
      </trkpt>
      <trkpt lat="45.44267" lon="2.06535">
        <ele>611</ele>
        <time>2025-05-05T21:28:27Z</time>
      </trkpt>
      <trkpt lat="45.44348" lon="2.06619">
        <ele>606</ele>
        <time>2025-05-05T21:29:47Z</time>
      </trkpt>
      <trkpt lat="45.4443" lon="2.06685">
        <ele>599</ele>
        <time>2025-05-05T21:31:03Z</time>
      </trkpt>
      <trkpt lat="45.44513" lon="2.06741">
        <ele>603</ele>
        <time>2025-05-05T21:32:16Z</time>
      </trkpt>
      <trkpt lat="45.44612" lon="2.06788">
        <ele>610</ele>
        <time>2025-05-05T21:33:40Z</time>
      </trkpt>
      <trkpt lat="45.44708" lon="2.06822">
        <ele>611</ele>
        <time>2025-05-05T21:34:59Z</time>
      </trkpt>
      <trkpt lat="45.4487" lon="2.06853">
        <ele>613</ele>
        <time>2025-05-05T21:37:10Z</time>
      </trkpt>
      <trkpt lat="45.45023" lon="2.06875">
        <ele>614</ele>
        <time>2025-05-05T21:39:13Z</time>
      </trkpt>
      <trkpt lat="45.45118" lon="2.069">
        <ele>617</ele>
        <time>2025-05-05T21:40:30Z</time>
      </trkpt>
      <trkpt lat="45.45204" lon="2.06937">
        <ele>626</ele>
        <time>2025-05-05T21:41:42Z</time>
      </trkpt>
      <trkpt lat="45.45285" lon="2.06985">
        <ele>626</ele>
        <time>2025-05-05T21:42:52Z</time>
      </trkpt>
      <trkpt lat="45.45363" lon="2.07047">
        <ele>622</ele>
        <time>2025-05-05T21:44:04Z</time>
      </trkpt>
      <trkpt lat="45.4541" lon="2.07093">
        <ele>624</ele>
        <time>2025-05-05T21:44:49Z</time>
      </trkpt>
      <trkpt lat="45.45456" lon="2.07145">
        <ele>631</ele>
        <time>2025-05-05T21:45:37Z</time>
      </trkpt>
      <trkpt lat="45.45498" lon="2.072">
        <ele>633</ele>
        <time>2025-05-05T21:46:22Z</time>
      </trkpt>
      <trkpt lat="45.45538" lon="2.07259">
        <ele>633</ele>
        <time>2025-05-05T21:47:08Z</time>
      </trkpt>
      <trkpt lat="45.45573" lon="2.07321">
        <ele>630</ele>
        <time>2025-05-05T21:47:53Z</time>
      </trkpt>
      <trkpt lat="45.4559" lon="2.07352">
        <ele>629</ele>
        <time>2025-05-05T21:48:15Z</time>
      </trkpt>
      <trkpt lat="45.45632" lon="2.07444">
        <ele>619</ele>
        <time>2025-05-05T21:49:17Z</time>
      </trkpt>
      <trkpt lat="45.45676" lon="2.07573">
        <ele>611</ele>
        <time>2025-05-05T21:50:37Z</time>
      </trkpt>
      <trkpt lat="45.45707" lon="2.07699">
        <ele>616</ele>
        <time>2025-05-05T21:51:52Z</time>
      </trkpt>
      <trkpt lat="45.45719" lon="2.07763">
        <ele>618</ele>
        <time>2025-05-05T21:52:29Z</time>
      </trkpt>
      <trkpt lat="45.45772" lon="2.08112">
        <ele>636</ele>
        <time>2025-05-05T21:55:50Z</time>
      </trkpt>
      <trkpt lat="45.45784" lon="2.0817">
        <ele>634</ele>
        <time>2025-05-05T21:56:24Z</time>
      </trkpt>
      <trkpt lat="45.45817" lon="2.0828">
        <ele>630</ele>
        <time>2025-05-05T21:57:31Z</time>
      </trkpt>
      <trkpt lat="45.45838" lon="2.08332">
        <ele>626</ele>
        <time>2025-05-05T21:58:05Z</time>
      </trkpt>
      <trkpt lat="45.45887" lon="2.08434">
        <ele>619</ele>
        <time>2025-05-05T21:59:14Z</time>
      </trkpt>
      <trkpt lat="45.45947" lon="2.08532">
        <ele>606</ele>
        <time>2025-05-05T22:00:27Z</time>
      </trkpt>
      <trkpt lat="45.46034" lon="2.08665">
        <ele>601</ele>
        <time>2025-05-05T22:02:09Z</time>
      </trkpt>
      <trkpt lat="45.46084" lon="2.08754">
        <ele>594</ele>
        <time>2025-05-05T22:03:14Z</time>
      </trkpt>
      <trkpt lat="45.46116" lon="2.08823">
        <ele>590</ele>
        <time>2025-05-05T22:04:00Z</time>
      </trkpt>
      <trkpt lat="45.46151" lon="2.08927">
        <ele>579</ele>
        <time>2025-05-05T22:05:05Z</time>
      </trkpt>
      <trkpt lat="45.46177" lon="2.09034">
        <ele>578</ele>
        <time>2025-05-05T22:06:08Z</time>
      </trkpt>
      <trkpt lat="45.46188" lon="2.091">
        <ele>578</ele>
        <time>2025-05-05T22:06:46Z</time>
      </trkpt>
      <trkpt lat="45.46198" lon="2.09207">
        <ele>571</ele>
        <time>2025-05-05T22:07:47Z</time>
      </trkpt>
      <trkpt lat="45.46197" lon="2.0934">
        <ele>569</ele>
        <time>2025-05-05T22:09:02Z</time>
      </trkpt>
      <trkpt lat="45.46193" lon="2.09404">
        <ele>571</ele>
        <time>2025-05-05T22:09:38Z</time>
      </trkpt>
      <trkpt lat="45.46177" lon="2.0951">
        <ele>576</ele>
        <time>2025-05-05T22:10:39Z</time>
      </trkpt>
      <trkpt lat="45.4615" lon="2.09631">
        <ele>586</ele>
        <time>2025-05-05T22:11:50Z</time>
      </trkpt>
      <trkpt lat="45.46117" lon="2.09764">
        <ele>595</ele>
        <time>2025-05-05T22:13:09Z</time>
      </trkpt>
      <trkpt lat="45.46096" lon="2.09867">
        <ele>603</ele>
        <time>2025-05-05T22:14:10Z</time>
      </trkpt>
      <trkpt lat="45.46084" lon="2.09958">
        <ele>608</ele>
        <time>2025-05-05T22:15:02Z</time>
      </trkpt>
      <trkpt lat="45.46079" lon="2.10061">
        <ele>615</ele>
        <time>2025-05-05T22:15:59Z</time>
      </trkpt>
      <trkpt lat="45.46081" lon="2.10161">
        <ele>622</ele>
        <time>2025-05-05T22:16:56Z</time>
      </trkpt>
      <trkpt lat="45.46094" lon="2.10268">
        <ele>630</ele>
        <time>2025-05-05T22:17:57Z</time>
      </trkpt>
      <trkpt lat="45.46113" lon="2.10372">
        <ele>636</ele>
        <time>2025-05-05T22:18:57Z</time>
      </trkpt>
      <trkpt lat="45.46148" lon="2.10485">
        <ele>641</ele>
        <time>2025-05-05T22:20:06Z</time>
      </trkpt>
      <trkpt lat="45.4617" lon="2.10541">
        <ele>642</ele>
        <time>2025-05-05T22:20:42Z</time>
      </trkpt>
      <trkpt lat="45.46197" lon="2.106">
        <ele>646</ele>
        <time>2025-05-05T22:21:22Z</time>
      </trkpt>
      <trkpt lat="45.4625" lon="2.10693">
        <ele>646</ele>
        <time>2025-05-05T22:22:29Z</time>
      </trkpt>
      <trkpt lat="45.46336" lon="2.10806">
        <ele>644</ele>
        <time>2025-05-05T22:24:03Z</time>
      </trkpt>
      <trkpt lat="45.46465" lon="2.10963">
        <ele>641</ele>
        <time>2025-05-05T22:26:19Z</time>
      </trkpt>
      <trkpt lat="45.46526" lon="2.11048">
        <ele>632</ele>
        <time>2025-05-05T22:27:27Z</time>
      </trkpt>
      <trkpt lat="45.46558" lon="2.111">
        <ele>627</ele>
        <time>2025-05-05T22:28:06Z</time>
      </trkpt>
      <trkpt lat="45.46586" lon="2.1115">
        <ele>625</ele>
        <time>2025-05-05T22:28:42Z</time>
      </trkpt>
      <trkpt lat="45.46635" lon="2.11253">
        <ele>630</ele>
        <time>2025-05-05T22:29:52Z</time>
      </trkpt>
      <trkpt lat="45.46812" lon="2.11649">
        <ele>628</ele>
        <time>2025-05-05T22:34:15Z</time>
      </trkpt>
      <trkpt lat="45.46879" lon="2.11777">
        <ele>621</ele>
        <time>2025-05-05T22:35:45Z</time>
      </trkpt>
      <trkpt lat="45.46954" lon="2.11897">
        <ele>611</ele>
        <time>2025-05-05T22:37:15Z</time>
      </trkpt>
      <trkpt lat="45.47243" lon="2.12297">
        <ele>598</ele>
        <time>2025-05-05T22:42:38Z</time>
      </trkpt>
      <trkpt lat="45.47307" lon="2.12398">
        <ele>597</ele>
        <time>2025-05-05T22:43:54Z</time>
      </trkpt>
      <trkpt lat="45.47396" lon="2.12563">
        <ele>592</ele>
        <time>2025-05-05T22:45:51Z</time>
      </trkpt>
      <trkpt lat="45.47473" lon="2.12734">
        <ele>584</ele>
        <time>2025-05-05T22:47:45Z</time>
      </trkpt>
      <trkpt lat="45.47514" lon="2.12843">
        <ele>586</ele>
        <time>2025-05-05T22:48:55Z</time>
      </trkpt>
      <trkpt lat="45.4755" lon="2.12952">
        <ele>586</ele>
        <time>2025-05-05T22:50:02Z</time>
      </trkpt>
      <trkpt lat="45.47584" lon="2.13068">
        <ele>582</ele>
        <time>2025-05-05T22:51:13Z</time>
      </trkpt>
      <trkpt lat="45.47612" lon="2.13183">
        <ele>580</ele>
        <time>2025-05-05T22:52:21Z</time>
      </trkpt>
      <trkpt lat="45.47629" lon="2.13265">
        <ele>579</ele>
        <time>2025-05-05T22:53:09Z</time>
      </trkpt>
      <trkpt lat="45.47657" lon="2.13433">
        <ele>577</ele>
        <time>2025-05-05T22:54:46Z</time>
      </trkpt>
      <trkpt lat="45.47675" lon="2.13589">
        <ele>577</ele>
        <time>2025-05-05T22:56:15Z</time>
      </trkpt>
      <trkpt lat="45.47691" lon="2.13809">
        <ele>576</ele>
        <time>2025-05-05T22:58:19Z</time>
      </trkpt>
      <trkpt lat="45.47714" lon="2.14337">
        <ele>585</ele>
        <time>2025-05-05T23:03:16Z</time>
      </trkpt>
      <trkpt lat="45.47732" lon="2.14556">
        <ele>571</ele>
        <time>2025-05-05T23:05:20Z</time>
      </trkpt>
      <trkpt lat="45.47742" lon="2.14636">
        <ele>571</ele>
        <time>2025-05-05T23:06:06Z</time>
      </trkpt>
      <trkpt lat="45.47765" lon="2.1478">
        <ele>576</ele>
        <time>2025-05-05T23:07:28Z</time>
      </trkpt>
      <trkpt lat="45.47794" lon="2.14925">
        <ele>576</ele>
        <time>2025-05-05T23:08:53Z</time>
      </trkpt>
      <trkpt lat="45.47831" lon="2.15063">
        <ele>578</ele>
        <time>2025-05-05T23:10:16Z</time>
      </trkpt>
      <trkpt lat="45.47872" lon="2.15197">
        <ele>585</ele>
        <time>2025-05-05T23:11:38Z</time>
      </trkpt>
      <trkpt lat="45.47925" lon="2.15344">
        <ele>592</ele>
        <time>2025-05-05T23:13:11Z</time>
      </trkpt>
      <trkpt lat="45.47986" lon="2.15486">
        <ele>590</ele>
        <time>2025-05-05T23:14:44Z</time>
      </trkpt>
      <trkpt lat="45.48033" lon="2.15582">
        <ele>593</ele>
        <time>2025-05-05T23:15:50Z</time>
      </trkpt>
      <trkpt lat="45.48137" lon="2.1576">
        <ele>596</ele>
        <time>2025-05-05T23:18:00Z</time>
      </trkpt>
      <trkpt lat="45.48206" lon="2.15862">
        <ele>602</ele>
        <time>2025-05-05T23:19:20Z</time>
      </trkpt>
      <trkpt lat="45.48303" lon="2.15989">
        <ele>606</ele>
        <time>2025-05-05T23:21:05Z</time>
      </trkpt>
      <trkpt lat="45.48491" lon="2.16223">
        <ele>600</ele>
        <time>2025-05-05T23:24:25Z</time>
      </trkpt>
      <trkpt lat="45.48582" lon="2.16345">
        <ele>600</ele>
        <time>2025-05-05T23:26:05Z</time>
      </trkpt>
      <trkpt lat="45.48662" lon="2.16467">
        <ele>602</ele>
        <time>2025-05-05T23:27:39Z</time>
      </trkpt>
      <trkpt lat="45.48729" lon="2.16586">
        <ele>604</ele>
        <time>2025-05-05T23:29:04Z</time>
      </trkpt>
      <trkpt lat="45.48783" lon="2.167">
        <ele>607</ele>
        <time>2025-05-05T23:30:22Z</time>
      </trkpt>
      <trkpt lat="45.48824" lon="2.16802">
        <ele>607</ele>
        <time>2025-05-05T23:31:28Z</time>
      </trkpt>
      <trkpt lat="45.48869" lon="2.16932">
        <ele>603</ele>
        <time>2025-05-05T23:32:49Z</time>
      </trkpt>
      <trkpt lat="45.48905" lon="2.17064">
        <ele>601</ele>
        <time>2025-05-05T23:34:09Z</time>
      </trkpt>
      <trkpt lat="45.4894" lon="2.17214">
        <ele>610</ele>
        <time>2025-05-05T23:35:37Z</time>
      </trkpt>
      <trkpt lat="45.4896" lon="2.17331">
        <ele>623</ele>
        <time>2025-05-05T23:36:45Z</time>
      </trkpt>
      <trkpt lat="45.49023" lon="2.17807">
        <ele>625</ele>
        <time>2025-05-05T23:41:17Z</time>
      </trkpt>
      <trkpt lat="45.49048" lon="2.17966">
        <ele>617</ele>
        <time>2025-05-05T23:42:48Z</time>
      </trkpt>
      <trkpt lat="45.49071" lon="2.18084">
        <ele>616</ele>
        <time>2025-05-05T23:43:57Z</time>
      </trkpt>
      <trkpt lat="45.49098" lon="2.18199">
        <ele>626</ele>
        <time>2025-05-05T23:45:05Z</time>
      </trkpt>
      <trkpt lat="45.49141" lon="2.18354">
        <ele>634</ele>
        <time>2025-05-05T23:46:39Z</time>
      </trkpt>
      <trkpt lat="45.49182" lon="2.1848">
        <ele>639</ele>
        <time>2025-05-05T23:47:57Z</time>
      </trkpt>
      <trkpt lat="45.49254" lon="2.18656">
        <ele>645</ele>
        <time>2025-05-05T23:49:51Z</time>
      </trkpt>
      <trkpt lat="45.49294" lon="2.18743">
        <ele>645</ele>
        <time>2025-05-05T23:50:49Z</time>
      </trkpt>
      <trkpt lat="45.49338" lon="2.18828">
        <ele>643</ele>
        <time>2025-05-05T23:51:49Z</time>
      </trkpt>
      <trkpt lat="45.49421" lon="2.18968">
        <ele>652</ele>
        <time>2025-05-05T23:53:32Z</time>
      </trkpt>
      <trkpt lat="45.49513" lon="2.19104">
        <ele>655</ele>
        <time>2025-05-05T23:55:18Z</time>
      </trkpt>
      <trkpt lat="45.49605" lon="2.1922">
        <ele>661</ele>
        <time>2025-05-05T23:56:56Z</time>
      </trkpt>
      <trkpt lat="45.49699" lon="2.19319">
        <ele>659</ele>
        <time>2025-05-05T23:58:30Z</time>
      </trkpt>
      <trkpt lat="45.49781" lon="2.19394">
        <ele>660</ele>
        <time>2025-05-05T23:59:48Z</time>
      </trkpt>
      <trkpt lat="45.49841" lon="2.19444">
        <ele>660</ele>
        <time>2025-05-06T00:00:43Z</time>
      </trkpt>
      <trkpt lat="45.49903" lon="2.1949">
        <ele>661</ele>
        <time>2025-05-06T00:01:39Z</time>
      </trkpt>
      <trkpt lat="45.50057" lon="2.19598">
        <ele>673</ele>
        <time>2025-05-06T00:03:57Z</time>
      </trkpt>
      <trkpt lat="45.50212" lon="2.197">
        <ele>676</ele>
        <time>2025-05-06T00:06:13Z</time>
      </trkpt>
      <trkpt lat="45.5033" lon="2.19784">
        <ele>679</ele>
        <time>2025-05-06T00:07:59Z</time>
      </trkpt>
      <trkpt lat="45.50449" lon="2.19882">
        <ele>679</ele>
        <time>2025-05-06T00:09:49Z</time>
      </trkpt>
      <trkpt lat="45.50549" lon="2.19981">
        <ele>675</ele>
        <time>2025-05-06T00:11:26Z</time>
      </trkpt>
      <trkpt lat="45.5064" lon="2.20092">
        <ele>666</ele>
        <time>2025-05-06T00:13:02Z</time>
      </trkpt>
      <trkpt lat="45.50726" lon="2.20212">
        <ele>668</ele>
        <time>2025-05-06T00:14:38Z</time>
      </trkpt>
      <trkpt lat="45.50801" lon="2.20338">
        <ele>670</ele>
        <time>2025-05-06T00:16:11Z</time>
      </trkpt>
      <trkpt lat="45.50867" lon="2.20467">
        <ele>670</ele>
        <time>2025-05-06T00:17:41Z</time>
      </trkpt>
      <trkpt lat="45.50924" lon="2.20602">
        <ele>670</ele>
        <time>2025-05-06T00:19:09Z</time>
      </trkpt>
      <trkpt lat="45.50975" lon="2.20741">
        <ele>671</ele>
        <time>2025-05-06T00:20:37Z</time>
      </trkpt>
      <trkpt lat="45.51011" lon="2.20864">
        <ele>668</ele>
        <time>2025-05-06T00:21:52Z</time>
      </trkpt>
      <trkpt lat="45.5104" lon="2.20977">
        <ele>671</ele>
        <time>2025-05-06T00:23:00Z</time>
      </trkpt>
      <trkpt lat="45.51069" lon="2.21129">
        <ele>678</ele>
        <time>2025-05-06T00:24:28Z</time>
      </trkpt>
      <trkpt lat="45.51094" lon="2.21324">
        <ele>677</ele>
        <time>2025-05-06T00:26:19Z</time>
      </trkpt>
      <trkpt lat="45.51107" lon="2.21513">
        <ele>672</ele>
        <time>2025-05-06T00:28:06Z</time>
      </trkpt>
      <trkpt lat="45.5112" lon="2.21974">
        <ele>661</ele>
        <time>2025-05-06T00:32:25Z</time>
      </trkpt>
      <trkpt lat="45.51126" lon="2.22101">
        <ele>658</ele>
        <time>2025-05-06T00:33:36Z</time>
      </trkpt>
      <trkpt lat="45.51132" lon="2.22187">
        <ele>655</ele>
        <time>2025-05-06T00:34:25Z</time>
      </trkpt>
      <trkpt lat="45.51148" lon="2.22307">
        <ele>657</ele>
        <time>2025-05-06T00:35:33Z</time>
      </trkpt>
      <trkpt lat="45.51169" lon="2.22424">
        <ele>660</ele>
        <time>2025-05-06T00:36:41Z</time>
      </trkpt>
      <trkpt lat="45.51208" lon="2.22581">
        <ele>662</ele>
        <time>2025-05-06T00:38:14Z</time>
      </trkpt>
      <trkpt lat="45.51243" lon="2.22696">
        <ele>656</ele>
        <time>2025-05-06T00:39:25Z</time>
      </trkpt>
      <trkpt lat="45.51281" lon="2.2281">
        <ele>653</ele>
        <time>2025-05-06T00:40:36Z</time>
      </trkpt>
      <trkpt lat="45.51377" lon="2.23082">
        <ele>651</ele>
        <time>2025-05-06T00:43:26Z</time>
      </trkpt>
      <trkpt lat="45.51406" lon="2.23177">
        <ele>648</ele>
        <time>2025-05-06T00:44:25Z</time>
      </trkpt>
      <trkpt lat="45.51427" lon="2.2326">
        <ele>639</ele>
        <time>2025-05-06T00:45:14Z</time>
      </trkpt>
      <trkpt lat="45.51462" lon="2.2345">
        <ele>647</ele>
        <time>2025-05-06T00:47:04Z</time>
      </trkpt>
      <trkpt lat="45.51475" lon="2.23557">
        <ele>649</ele>
        <time>2025-05-06T00:48:05Z</time>
      </trkpt>
      <trkpt lat="45.51502" lon="2.23837">
        <ele>650</ele>
        <time>2025-05-06T00:50:44Z</time>
      </trkpt>
      <trkpt lat="45.51515" lon="2.23945">
        <ele>654</ele>
        <time>2025-05-06T00:51:45Z</time>
      </trkpt>
      <trkpt lat="45.5153" lon="2.24038">
        <ele>661</ele>
        <time>2025-05-06T00:52:39Z</time>
      </trkpt>
      <trkpt lat="45.51553" lon="2.24161">
        <ele>669</ele>
        <time>2025-05-06T00:53:50Z</time>
      </trkpt>
      <trkpt lat="45.5164" lon="2.2454">
        <ele>684</ele>
        <time>2025-05-06T00:57:34Z</time>
      </trkpt>
      <trkpt lat="45.51676" lon="2.24719">
        <ele>687</ele>
        <time>2025-05-06T00:59:18Z</time>
      </trkpt>
      <trkpt lat="45.51699" lon="2.24874">
        <ele>689</ele>
        <time>2025-05-06T01:00:47Z</time>
      </trkpt>
      <trkpt lat="45.51709" lon="2.2496">
        <ele>692</ele>
        <time>2025-05-06T01:01:36Z</time>
      </trkpt>
      <trkpt lat="45.51725" lon="2.25168">
        <ele>698</ele>
        <time>2025-05-06T01:03:34Z</time>
      </trkpt>
      <trkpt lat="45.51729" lon="2.25306">
        <ele>697</ele>
        <time>2025-05-06T01:04:51Z</time>
      </trkpt>
      <trkpt lat="45.51729" lon="2.25401">
        <ele>692</ele>
        <time>2025-05-06T01:05:44Z</time>
      </trkpt>
      <trkpt lat="45.51726" lon="2.25495">
        <ele>690</ele>
        <time>2025-05-06T01:06:37Z</time>
      </trkpt>
      <trkpt lat="45.51719" lon="2.25611">
        <ele>687</ele>
        <time>2025-05-06T01:07:43Z</time>
      </trkpt>
      <trkpt lat="45.51699" lon="2.25803">
        <ele>683</ele>
        <time>2025-05-06T01:09:31Z</time>
      </trkpt>
      <trkpt lat="45.51679" lon="2.25935">
        <ele>676</ele>
        <time>2025-05-06T01:10:47Z</time>
      </trkpt>
      <trkpt lat="45.51656" lon="2.26058">
        <ele>673</ele>
        <time>2025-05-06T01:11:59Z</time>
      </trkpt>
      <trkpt lat="45.5163" lon="2.26173">
        <ele>674</ele>
        <time>2025-05-06T01:13:06Z</time>
      </trkpt>
      <trkpt lat="45.51576" lon="2.26373">
        <ele>673</ele>
        <time>2025-05-06T01:15:07Z</time>
      </trkpt>
      <trkpt lat="45.51443" lon="2.26808">
        <ele>669</ele>
        <time>2025-05-06T01:19:33Z</time>
      </trkpt>
      <trkpt lat="45.51391" lon="2.26998">
        <ele>676</ele>
        <time>2025-05-06T01:21:27Z</time>
      </trkpt>
      <trkpt lat="45.51369" lon="2.27101">
        <ele>676</ele>
        <time>2025-05-06T01:22:28Z</time>
      </trkpt>
      <trkpt lat="45.51345" lon="2.2724">
        <ele>679</ele>
        <time>2025-05-06T01:23:48Z</time>
      </trkpt>
      <trkpt lat="45.51329" lon="2.27373">
        <ele>677</ele>
        <time>2025-05-06T01:25:04Z</time>
      </trkpt>
      <trkpt lat="45.51318" lon="2.27506">
        <ele>674</ele>
        <time>2025-05-06T01:26:19Z</time>
      </trkpt>
      <trkpt lat="45.51314" lon="2.27656">
        <ele>674</ele>
        <time>2025-05-06T01:27:43Z</time>
      </trkpt>
      <trkpt lat="45.51316" lon="2.278">
        <ele>674</ele>
        <time>2025-05-06T01:29:04Z</time>
      </trkpt>
      <trkpt lat="45.51329" lon="2.27955">
        <ele>666</ele>
        <time>2025-05-06T01:30:32Z</time>
      </trkpt>
      <trkpt lat="45.51347" lon="2.2811">
        <ele>662</ele>
        <time>2025-05-06T01:32:00Z</time>
      </trkpt>
      <trkpt lat="45.51391" lon="2.28332">
        <ele>648</ele>
        <time>2025-05-06T01:34:09Z</time>
      </trkpt>
      <trkpt lat="45.51505" lon="2.28775">
        <ele>634</ele>
        <time>2025-05-06T01:38:34Z</time>
      </trkpt>
      <trkpt lat="45.51551" lon="2.28986">
        <ele>626</ele>
        <time>2025-05-06T01:40:38Z</time>
      </trkpt>
      <trkpt lat="45.51576" lon="2.29154">
        <ele>623</ele>
        <time>2025-05-06T01:42:14Z</time>
      </trkpt>
      <trkpt lat="45.51585" lon="2.29272">
        <ele>623</ele>
        <time>2025-05-06T01:43:21Z</time>
      </trkpt>
      <trkpt lat="45.51587" lon="2.29372">
        <ele>625</ele>
        <time>2025-05-06T01:44:17Z</time>
      </trkpt>
      <trkpt lat="45.51585" lon="2.29473">
        <ele>628</ele>
        <time>2025-05-06T01:45:14Z</time>
      </trkpt>
      <trkpt lat="45.51578" lon="2.2959">
        <ele>624</ele>
        <time>2025-05-06T01:46:20Z</time>
      </trkpt>
      <trkpt lat="45.51566" lon="2.29701">
        <ele>615</ele>
        <time>2025-05-06T01:47:23Z</time>
      </trkpt>
      <trkpt lat="45.51539" lon="2.29853">
        <ele>609</ele>
        <time>2025-05-06T01:48:51Z</time>
      </trkpt>
      <trkpt lat="45.51502" lon="2.30005">
        <ele>602</ele>
        <time>2025-05-06T01:50:21Z</time>
      </trkpt>
      <trkpt lat="45.51374" lon="2.30438">
        <ele>608</ele>
        <time>2025-05-06T01:54:45Z</time>
      </trkpt>
      <trkpt lat="45.51346" lon="2.30561">
        <ele>605</ele>
        <time>2025-05-06T01:55:57Z</time>
      </trkpt>
      <trkpt lat="45.51326" lon="2.30684">
        <ele>604</ele>
        <time>2025-05-06T01:57:08Z</time>
      </trkpt>
      <trkpt lat="45.51315" lon="2.30775">
        <ele>602</ele>
        <time>2025-05-06T01:58:00Z</time>
      </trkpt>
      <trkpt lat="45.51311" lon="2.30835">
        <ele>600</ele>
        <time>2025-05-06T01:58:34Z</time>
      </trkpt>
      <trkpt lat="45.51308" lon="2.3096">
        <ele>595</ele>
        <time>2025-05-06T01:59:44Z</time>
      </trkpt>
      <trkpt lat="45.51309" lon="2.31026">
        <ele>594</ele>
        <time>2025-05-06T02:00:21Z</time>
      </trkpt>
      <trkpt lat="45.51316" lon="2.31155">
        <ele>592</ele>
        <time>2025-05-06T02:01:33Z</time>
      </trkpt>
      <trkpt lat="45.51328" lon="2.3125">
        <ele>588</ele>
        <time>2025-05-06T02:02:28Z</time>
      </trkpt>
      <trkpt lat="45.51345" lon="2.31353">
        <ele>588</ele>
        <time>2025-05-06T02:03:27Z</time>
      </trkpt>
      <trkpt lat="45.51367" lon="2.31451">
        <ele>588</ele>
        <time>2025-05-06T02:04:25Z</time>
      </trkpt>
      <trkpt lat="45.51392" lon="2.31541">
        <ele>590</ele>
        <time>2025-05-06T02:05:19Z</time>
      </trkpt>
      <trkpt lat="45.51416" lon="2.31617">
        <ele>593</ele>
        <time>2025-05-06T02:06:06Z</time>
      </trkpt>
      <trkpt lat="45.51445" lon="2.31695">
        <ele>596</ele>
        <time>2025-05-06T02:06:55Z</time>
      </trkpt>
      <trkpt lat="45.51497" lon="2.31812">
        <ele>603</ele>
        <time>2025-05-06T02:08:13Z</time>
      </trkpt>
      <trkpt lat="45.5153" lon="2.31875">
        <ele>609</ele>
        <time>2025-05-06T02:08:57Z</time>
      </trkpt>
      <trkpt lat="45.51588" lon="2.31968">
        <ele>607</ele>
        <time>2025-05-06T02:10:07Z</time>
      </trkpt>
      <trkpt lat="45.51662" lon="2.32065">
        <ele>601</ele>
        <time>2025-05-06T02:11:27Z</time>
      </trkpt>
      <trkpt lat="45.51738" lon="2.32157">
        <ele>611</ele>
        <time>2025-05-06T02:12:47Z</time>
      </trkpt>
      <trkpt lat="45.51771" lon="2.32191">
        <ele>617</ele>
        <time>2025-05-06T02:13:20Z</time>
      </trkpt>
      <trkpt lat="45.51807" lon="2.32226">
        <ele>621</ele>
        <time>2025-05-06T02:13:55Z</time>
      </trkpt>
      <trkpt lat="45.51879" lon="2.32286">
        <ele>626</ele>
        <time>2025-05-06T02:15:01Z</time>
      </trkpt>
      <trkpt lat="45.52103" lon="2.32467">
        <ele>639</ele>
        <time>2025-05-06T02:18:28Z</time>
      </trkpt>
      <trkpt lat="45.52202" lon="2.3256">
        <ele>641</ele>
        <time>2025-05-06T02:20:02Z</time>
      </trkpt>
      <trkpt lat="45.52256" lon="2.32619">
        <ele>637</ele>
        <time>2025-05-06T02:20:57Z</time>
      </trkpt>
      <trkpt lat="45.52308" lon="2.32682">
        <ele>640</ele>
        <time>2025-05-06T02:21:52Z</time>
      </trkpt>
      <trkpt lat="45.52384" lon="2.32794">
        <ele>644</ele>
        <time>2025-05-06T02:23:19Z</time>
      </trkpt>
      <trkpt lat="45.52454" lon="2.32917">
        <ele>651</ele>
        <time>2025-05-06T02:24:48Z</time>
      </trkpt>
      <trkpt lat="45.52493" lon="2.32996">
        <ele>657</ele>
        <time>2025-05-06T02:25:42Z</time>
      </trkpt>
      <trkpt lat="45.5256" lon="2.33163">
        <ele>664</ele>
        <time>2025-05-06T02:27:30Z</time>
      </trkpt>
      <trkpt lat="45.52588" lon="2.33252">
        <ele>664</ele>
        <time>2025-05-06T02:28:25Z</time>
      </trkpt>
      <trkpt lat="45.52617" lon="2.33357">
        <ele>673</ele>
        <time>2025-05-06T02:29:28Z</time>
      </trkpt>
      <trkpt lat="45.52645" lon="2.33483">
        <ele>678</ele>
        <time>2025-05-06T02:30:42Z</time>
      </trkpt>
      <trkpt lat="45.52668" lon="2.33611">
        <ele>678</ele>
        <time>2025-05-06T02:31:56Z</time>
      </trkpt>
      <trkpt lat="45.52739" lon="2.34038">
        <ele>688</ele>
        <time>2025-05-06T02:36:03Z</time>
      </trkpt>
      <trkpt lat="45.5276" lon="2.34141">
        <ele>690</ele>
        <time>2025-05-06T02:37:03Z</time>
      </trkpt>
      <trkpt lat="45.52812" lon="2.3434">
        <ele>681</ele>
        <time>2025-05-06T02:39:02Z</time>
      </trkpt>
      <trkpt lat="45.52842" lon="2.34435">
        <ele>678</ele>
        <time>2025-05-06T02:40:00Z</time>
      </trkpt>
      <trkpt lat="45.52902" lon="2.3459">
        <ele>681</ele>
        <time>2025-05-06T02:41:40Z</time>
      </trkpt>
      <trkpt lat="45.52934" lon="2.34662">
        <ele>681</ele>
        <time>2025-05-06T02:42:27Z</time>
      </trkpt>
      <trkpt lat="45.53002" lon="2.34797">
        <ele>686</ele>
        <time>2025-05-06T02:44:01Z</time>
      </trkpt>
      <trkpt lat="45.5304" lon="2.34862">
        <ele>687</ele>
        <time>2025-05-06T02:44:48Z</time>
      </trkpt>
      <trkpt lat="45.53119" lon="2.34985">
        <ele>691</ele>
        <time>2025-05-06T02:46:22Z</time>
      </trkpt>
      <trkpt lat="45.53204" lon="2.35094">
        <ele>696</ele>
        <time>2025-05-06T02:47:53Z</time>
      </trkpt>
      <trkpt lat="45.533" lon="2.352">
        <ele>700</ele>
        <time>2025-05-06T02:49:30Z</time>
      </trkpt>
      <trkpt lat="45.5341" lon="2.35312">
        <ele>701</ele>
        <time>2025-05-06T02:51:19Z</time>
      </trkpt>
      <trkpt lat="45.53521" lon="2.35407">
        <ele>699</ele>
        <time>2025-05-06T02:53:02Z</time>
      </trkpt>
      <trkpt lat="45.53665" lon="2.35518">
        <ele>694</ele>
        <time>2025-05-06T02:55:13Z</time>
      </trkpt>
      <trkpt lat="45.53785" lon="2.35602">
        <ele>695</ele>
        <time>2025-05-06T02:57:00Z</time>
      </trkpt>
      <trkpt lat="45.53907" lon="2.3568">
        <ele>698</ele>
        <time>2025-05-06T02:58:47Z</time>
      </trkpt>
      <trkpt lat="45.54247" lon="2.35873">
        <ele>713</ele>
        <time>2025-05-06T03:03:40Z</time>
      </trkpt>
      <trkpt lat="45.54416" lon="2.35976">
        <ele>725</ele>
        <time>2025-05-06T03:06:07Z</time>
      </trkpt>
      <trkpt lat="45.54582" lon="2.36094">
        <ele>726</ele>
        <time>2025-05-06T03:08:36Z</time>
      </trkpt>
      <trkpt lat="45.54677" lon="2.36171">
        <ele>724</ele>
        <time>2025-05-06T03:10:03Z</time>
      </trkpt>
      <trkpt lat="45.54773" lon="2.36254">
        <ele>726</ele>
        <time>2025-05-06T03:11:33Z</time>
      </trkpt>
      <trkpt lat="45.55228" lon="2.36695">
        <ele>707</ele>
        <time>2025-05-06T03:18:54Z</time>
      </trkpt>
      <trkpt lat="45.55347" lon="2.36805">
        <ele>704</ele>
        <time>2025-05-06T03:20:47Z</time>
      </trkpt>
      <trkpt lat="45.55466" lon="2.36901">
        <ele>699</ele>
        <time>2025-05-06T03:22:36Z</time>
      </trkpt>
      <trkpt lat="45.55562" lon="2.3697">
        <ele>688</ele>
        <time>2025-05-06T03:24:02Z</time>
      </trkpt>
      <trkpt lat="45.5566" lon="2.37035">
        <ele>686</ele>
        <time>2025-05-06T03:25:29Z</time>
      </trkpt>
      <trkpt lat="45.55762" lon="2.37092">
        <ele>690</ele>
        <time>2025-05-06T03:26:57Z</time>
      </trkpt>
      <trkpt lat="45.55864" lon="2.37142">
        <ele>700</ele>
        <time>2025-05-06T03:28:23Z</time>
      </trkpt>
      <trkpt lat="45.55984" lon="2.37192">
        <ele>704</ele>
        <time>2025-05-06T03:30:03Z</time>
      </trkpt>
      <trkpt lat="45.5611" lon="2.37233">
        <ele>706</ele>
        <time>2025-05-06T03:31:47Z</time>
      </trkpt>
      <trkpt lat="45.56506" lon="2.37347">
        <ele>725</ele>
        <time>2025-05-06T03:37:10Z</time>
      </trkpt>
      <trkpt lat="45.56629" lon="2.37388">
        <ele>724</ele>
        <time>2025-05-06T03:38:51Z</time>
      </trkpt>
      <trkpt lat="45.56771" lon="2.37455">
        <ele>730</ele>
        <time>2025-05-06T03:40:51Z</time>
      </trkpt>
      <trkpt lat="45.56843" lon="2.37495">
        <ele>736</ele>
        <time>2025-05-06T03:41:53Z</time>
      </trkpt>
      <trkpt lat="45.56921" lon="2.37543">
        <ele>744</ele>
        <time>2025-05-06T03:43:01Z</time>
      </trkpt>
      <trkpt lat="45.57009" lon="2.37604">
        <ele>753</ele>
        <time>2025-05-06T03:44:19Z</time>
      </trkpt>
      <trkpt lat="45.57087" lon="2.37667">
        <ele>753</ele>
        <time>2025-05-06T03:45:31Z</time>
      </trkpt>
      <trkpt lat="45.57161" lon="2.37733">
        <ele>748</ele>
        <time>2025-05-06T03:46:41Z</time>
      </trkpt>
      <trkpt lat="45.5727" lon="2.37844">
        <ele>752</ele>
        <time>2025-05-06T03:48:28Z</time>
      </trkpt>
      <trkpt lat="45.5738" lon="2.37979">
        <ele>762</ele>
        <time>2025-05-06T03:50:24Z</time>
      </trkpt>
      <trkpt lat="45.57435" lon="2.38054">
        <ele>763</ele>
        <time>2025-05-06T03:51:25Z</time>
      </trkpt>
      <trkpt lat="45.57511" lon="2.38171">
        <ele>772</ele>
        <time>2025-05-06T03:52:54Z</time>
      </trkpt>
      <trkpt lat="45.57581" lon="2.38291">
        <ele>782</ele>
        <time>2025-05-06T03:54:22Z</time>
      </trkpt>
      <trkpt lat="45.57622" lon="2.38369">
        <ele>787</ele>
        <time>2025-05-06T03:55:17Z</time>
      </trkpt>
      <trkpt lat="45.57698" lon="2.38531">
        <ele>797</ele>
        <time>2025-05-06T03:57:06Z</time>
      </trkpt>
      <trkpt lat="45.57737" lon="2.38629">
        <ele>798</ele>
        <time>2025-05-06T03:58:09Z</time>
      </trkpt>
      <trkpt lat="45.5777" lon="2.38718">
        <ele>801</ele>
        <time>2025-05-06T03:59:05Z</time>
      </trkpt>
      <trkpt lat="45.57827" lon="2.38895">
        <ele>800</ele>
        <time>2025-05-06T04:00:55Z</time>
      </trkpt>
      <trkpt lat="45.57873" lon="2.39071">
        <ele>808</ele>
        <time>2025-05-06T04:02:40Z</time>
      </trkpt>
      <trkpt lat="45.57912" lon="2.39253">
        <ele>799</ele>
        <time>2025-05-06T04:04:27Z</time>
      </trkpt>
      <trkpt lat="45.57972" lon="2.39593">
        <ele>790</ele>
        <time>2025-05-06T04:07:43Z</time>
      </trkpt>
      <trkpt lat="45.58143" lon="2.40603">
        <ele>744</ele>
        <time>2025-05-06T04:17:25Z</time>
      </trkpt>
      <trkpt lat="45.58176" lon="2.40765">
        <ele>743</ele>
        <time>2025-05-06T04:19:00Z</time>
      </trkpt>
      <trkpt lat="45.58214" lon="2.40931">
        <ele>747</ele>
        <time>2025-05-06T04:20:38Z</time>
      </trkpt>
      <trkpt lat="45.58243" lon="2.4104">
        <ele>750</ele>
        <time>2025-05-06T04:21:43Z</time>
      </trkpt>
      <trkpt lat="45.58275" lon="2.41148">
        <ele>751</ele>
        <time>2025-05-06T04:22:49Z</time>
      </trkpt>
      <trkpt lat="45.58361" lon="2.41407">
        <ele>749</ele>
        <time>2025-05-06T04:25:30Z</time>
      </trkpt>
      <trkpt lat="45.58407" lon="2.41527">
        <ele>745</ele>
        <time>2025-05-06T04:26:46Z</time>
      </trkpt>
      <trkpt lat="45.58417" lon="2.41571">
        <ele>743</ele>
        <time>2025-05-06T04:27:12Z</time>
      </trkpt>
      <trkpt lat="45.58431" lon="2.41614">
        <ele>744</ele>
        <time>2025-05-06T04:27:39Z</time>
      </trkpt>
      <trkpt lat="45.58438" lon="2.41663">
        <ele>745</ele>
        <time>2025-05-06T04:28:07Z</time>
      </trkpt>
      <trkpt lat="45.58438" lon="2.41705">
        <ele>745</ele>
        <time>2025-05-06T04:28:30Z</time>
      </trkpt>
      <trkpt lat="45.5842" lon="2.41813">
        <ele>745</ele>
        <time>2025-05-06T04:29:33Z</time>
      </trkpt>
      <trkpt lat="45.5842" lon="2.41839">
        <ele>744</ele>
        <time>2025-05-06T04:29:47Z</time>
      </trkpt>
      <trkpt lat="45.58428" lon="2.41872">
        <ele>743</ele>
        <time>2025-05-06T04:30:07Z</time>
      </trkpt>
      <trkpt lat="45.58434" lon="2.41882">
        <ele>742</ele>
        <time>2025-05-06T04:30:14Z</time>
      </trkpt>
      <trkpt lat="45.58451" lon="2.41899">
        <ele>741</ele>
        <time>2025-05-06T04:30:31Z</time>
      </trkpt>
      <trkpt lat="45.58462" lon="2.41904">
        <ele>741</ele>
        <time>2025-05-06T04:30:40Z</time>
      </trkpt>
      <trkpt lat="45.5848" lon="2.41905">
        <ele>740</ele>
        <time>2025-05-06T04:30:54Z</time>
      </trkpt>
      <trkpt lat="45.58497" lon="2.41898">
        <ele>739</ele>
        <time>2025-05-06T04:31:08Z</time>
      </trkpt>
      <trkpt lat="45.58512" lon="2.41887">
        <ele>739</ele>
        <time>2025-05-06T04:31:22Z</time>
      </trkpt>
      <trkpt lat="45.58536" lon="2.41867">
        <ele>739</ele>
        <time>2025-05-06T04:31:44Z</time>
      </trkpt>
      <trkpt lat="45.5872" lon="2.41678">
        <ele>745</ele>
        <time>2025-05-06T04:34:46Z</time>
      </trkpt>
      <trkpt lat="45.58856" lon="2.4151">
        <ele>749</ele>
        <time>2025-05-06T04:37:10Z</time>
      </trkpt>
      <trkpt lat="45.58899" lon="2.41463">
        <ele>749</ele>
        <time>2025-05-06T04:37:53Z</time>
      </trkpt>
      <trkpt lat="45.59014" lon="2.41297">
        <ele>750</ele>
        <time>2025-05-06T04:40:04Z</time>
      </trkpt>
      <trkpt lat="45.59169" lon="2.41104">
        <ele>762</ele>
        <time>2025-05-06T04:42:48Z</time>
      </trkpt>
      <trkpt lat="45.59279" lon="2.40961">
        <ele>764</ele>
        <time>2025-05-06T04:44:48Z</time>
      </trkpt>
      <trkpt lat="45.5948" lon="2.40707">
        <ele>785</ele>
        <time>2025-05-06T04:48:22Z</time>
      </trkpt>
      <trkpt lat="45.59558" lon="2.40624">
        <ele>780</ele>
        <time>2025-05-06T04:49:40Z</time>
      </trkpt>
      <trkpt lat="45.59624" lon="2.40561">
        <ele>779</ele>
        <time>2025-05-06T04:50:44Z</time>
      </trkpt>
      <trkpt lat="45.59716" lon="2.40492">
        <ele>778</ele>
        <time>2025-05-06T04:52:07Z</time>
      </trkpt>
      <trkpt lat="45.5994" lon="2.40338">
        <ele>779</ele>
        <time>2025-05-06T04:55:26Z</time>
      </trkpt>
      <trkpt lat="45.5998" lon="2.40314">
        <ele>777</ele>
        <time>2025-05-06T04:56:01Z</time>
      </trkpt>
      <trkpt lat="45.59993" lon="2.40312">
        <ele>776</ele>
        <time>2025-05-06T04:56:11Z</time>
      </trkpt>
      <trkpt lat="45.60004" lon="2.40306">
        <ele>775</ele>
        <time>2025-05-06T04:56:21Z</time>
      </trkpt>
      <trkpt lat="45.60017" lon="2.40294">
        <ele>774</ele>
        <time>2025-05-06T04:56:33Z</time>
      </trkpt>
      <trkpt lat="45.60078" lon="2.4039">
        <ele>771</ele>
        <time>2025-05-06T04:57:46Z</time>
      </trkpt>
      <trkpt lat="45.60115" lon="2.40441">
        <ele>771</ele>
        <time>2025-05-06T04:58:27Z</time>
      </trkpt>
      <trkpt lat="45.60156" lon="2.40504">
        <ele>773</ele>
        <time>2025-05-06T04:59:15Z</time>
      </trkpt>
      <trkpt lat="45.60275" lon="2.40694">
        <ele>782</ele>
        <time>2025-05-06T05:01:38Z</time>
      </trkpt>
      <trkpt lat="45.60284" lon="2.40714">
        <ele>782</ele>
        <time>2025-05-06T05:01:51Z</time>
      </trkpt>
      <trkpt lat="45.60302" lon="2.40772">
        <ele>779</ele>
        <time>2025-05-06T05:02:27Z</time>
      </trkpt>
      <trkpt lat="45.60341" lon="2.40956">
        <ele>765</ele>
        <time>2025-05-06T05:04:14Z</time>
      </trkpt>
      <trkpt lat="45.60362" lon="2.41002">
        <ele>762</ele>
        <time>2025-05-06T05:04:45Z</time>
      </trkpt>
      <trkpt lat="45.60391" lon="2.41042">
        <ele>763</ele>
        <time>2025-05-06T05:05:17Z</time>
      </trkpt>
      <trkpt lat="45.60411" lon="2.41081">
        <ele>765</ele>
        <time>2025-05-06T05:05:45Z</time>
      </trkpt>
      <trkpt lat="45.6042" lon="2.41121">
        <ele>764</ele>
        <time>2025-05-06T05:06:08Z</time>
      </trkpt>
      <trkpt lat="45.6042" lon="2.41185">
        <ele>763</ele>
        <time>2025-05-06T05:06:44Z</time>
      </trkpt>
      <trkpt lat="45.60423" lon="2.4121">
        <ele>763</ele>
        <time>2025-05-06T05:06:58Z</time>
      </trkpt>
      <trkpt lat="45.60435" lon="2.41247">
        <ele>762</ele>
        <time>2025-05-06T05:07:21Z</time>
      </trkpt>
      <trkpt lat="45.60446" lon="2.41265">
        <ele>762</ele>
        <time>2025-05-06T05:07:34Z</time>
      </trkpt>
      <trkpt lat="45.60469" lon="2.41291">
        <ele>761</ele>
        <time>2025-05-06T05:07:58Z</time>
      </trkpt>
      <trkpt lat="45.60517" lon="2.4133">
        <ele>758</ele>
        <time>2025-05-06T05:08:42Z</time>
      </trkpt>
      <trkpt lat="45.60555" lon="2.41347">
        <ele>755</ele>
        <time>2025-05-06T05:09:14Z</time>
      </trkpt>
      <trkpt lat="45.60598" lon="2.41355">
        <ele>752</ele>
        <time>2025-05-06T05:09:49Z</time>
      </trkpt>
      <trkpt lat="45.60637" lon="2.41368">
        <ele>751</ele>
        <time>2025-05-06T05:10:21Z</time>
      </trkpt>
      <trkpt lat="45.60672" lon="2.41385">
        <ele>750</ele>
        <time>2025-05-06T05:10:50Z</time>
      </trkpt>
      <trkpt lat="45.60698" lon="2.41406">
        <ele>749</ele>
        <time>2025-05-06T05:11:14Z</time>
      </trkpt>
      <trkpt lat="45.60724" lon="2.41423">
        <ele>747</ele>
        <time>2025-05-06T05:11:37Z</time>
      </trkpt>
      <trkpt lat="45.60763" lon="2.41432">
        <ele>746</ele>
        <time>2025-05-06T05:12:09Z</time>
      </trkpt>
      <trkpt lat="45.61058" lon="2.41481">
        <ele>757</ele>
        <time>2025-05-06T05:16:07Z</time>
      </trkpt>
      <trkpt lat="45.61178" lon="2.41497">
        <ele>752</ele>
        <time>2025-05-06T05:17:43Z</time>
      </trkpt>
      <trkpt lat="45.61202" lon="2.41496">
        <ele>751</ele>
        <time>2025-05-06T05:18:02Z</time>
      </trkpt>
      <trkpt lat="45.61218" lon="2.41492">
        <ele>751</ele>
        <time>2025-05-06T05:18:15Z</time>
      </trkpt>
      <trkpt lat="45.61235" lon="2.41484">
        <ele>751</ele>
        <time>2025-05-06T05:18:30Z</time>
      </trkpt>
      <trkpt lat="45.61265" lon="2.41465">
        <ele>752</ele>
        <time>2025-05-06T05:18:56Z</time>
      </trkpt>
      <trkpt lat="45.613" lon="2.4145">
        <ele>752</ele>
        <time>2025-05-06T05:19:25Z</time>
      </trkpt>
      <trkpt lat="45.61315" lon="2.41448">
        <ele>751</ele>
        <time>2025-05-06T05:19:37Z</time>
      </trkpt>
      <trkpt lat="45.61385" lon="2.41458">
        <ele>752</ele>
        <time>2025-05-06T05:20:33Z</time>
      </trkpt>
      <trkpt lat="45.61413" lon="2.41453">
        <ele>752</ele>
        <time>2025-05-06T05:20:56Z</time>
      </trkpt>
      <trkpt lat="45.61429" lon="2.41446">
        <ele>753</ele>
        <time>2025-05-06T05:21:09Z</time>
      </trkpt>
      <trkpt lat="45.61588" lon="2.41353">
        <ele>758</ele>
        <time>2025-05-06T05:23:27Z</time>
      </trkpt>
      <trkpt lat="45.61655" lon="2.41311">
        <ele>758</ele>
        <time>2025-05-06T05:24:26Z</time>
      </trkpt>
      <trkpt lat="45.61694" lon="2.4128">
        <ele>758</ele>
        <time>2025-05-06T05:25:01Z</time>
      </trkpt>
      <trkpt lat="45.61759" lon="2.41223">
        <ele>759</ele>
        <time>2025-05-06T05:26:02Z</time>
      </trkpt>
      <trkpt lat="45.61779" lon="2.41209">
        <ele>759</ele>
        <time>2025-05-06T05:26:20Z</time>
      </trkpt>
      <trkpt lat="45.61809" lon="2.41202">
        <ele>760</ele>
        <time>2025-05-06T05:26:45Z</time>
      </trkpt>
      <trkpt lat="45.61861" lon="2.41203">
        <ele>763</ele>
        <time>2025-05-06T05:27:26Z</time>
      </trkpt>
      <trkpt lat="45.61879" lon="2.41198">
        <ele>764</ele>
        <time>2025-05-06T05:27:41Z</time>
      </trkpt>
      <trkpt lat="45.61894" lon="2.4119">
        <ele>765</ele>
        <time>2025-05-06T05:27:54Z</time>
      </trkpt>
      <trkpt lat="45.61967" lon="2.41137">
        <ele>769</ele>
        <time>2025-05-06T05:28:59Z</time>
      </trkpt>
      <trkpt lat="45.62001" lon="2.41122">
        <ele>771</ele>
        <time>2025-05-06T05:29:28Z</time>
      </trkpt>
      <trkpt lat="45.62099" lon="2.41086">
        <ele>772</ele>
        <time>2025-05-06T05:30:49Z</time>
      </trkpt>
      <trkpt lat="45.6212" lon="2.41076">
        <ele>773</ele>
        <time>2025-05-06T05:31:06Z</time>
      </trkpt>
      <trkpt lat="45.62154" lon="2.41046">
        <ele>776</ele>
        <time>2025-05-06T05:31:38Z</time>
      </trkpt>
      <trkpt lat="45.62283" lon="2.40906">
        <ele>781</ele>
        <time>2025-05-06T05:33:48Z</time>
      </trkpt>
      <trkpt lat="45.62303" lon="2.40888">
        <ele>780</ele>
        <time>2025-05-06T05:34:07Z</time>
      </trkpt>
      <trkpt lat="45.62322" lon="2.40876">
        <ele>779</ele>
        <time>2025-05-06T05:34:24Z</time>
      </trkpt>
      <trkpt lat="45.62347" lon="2.40865">
        <ele>778</ele>
        <time>2025-05-06T05:34:45Z</time>
      </trkpt>
      <trkpt lat="45.62446" lon="2.40831">
        <ele>776</ele>
        <time>2025-05-06T05:36:06Z</time>
      </trkpt>
      <trkpt lat="45.62498" lon="2.40826">
        <ele>776</ele>
        <time>2025-05-06T05:36:48Z</time>
      </trkpt>
      <trkpt lat="45.62552" lon="2.40829">
        <ele>776</ele>
        <time>2025-05-06T05:37:31Z</time>
      </trkpt>
      <trkpt lat="45.62595" lon="2.40845">
        <ele>775</ele>
        <time>2025-05-06T05:38:07Z</time>
      </trkpt>
      <trkpt lat="45.62614" lon="2.40857">
        <ele>774</ele>
        <time>2025-05-06T05:38:23Z</time>
      </trkpt>
      <trkpt lat="45.62634" lon="2.40876">
        <ele>773</ele>
        <time>2025-05-06T05:38:43Z</time>
      </trkpt>
      <trkpt lat="45.62651" lon="2.40895">
        <ele>771</ele>
        <time>2025-05-06T05:39:00Z</time>
      </trkpt>
      <trkpt lat="45.62666" lon="2.40918">
        <ele>769</ele>
        <time>2025-05-06T05:39:17Z</time>
      </trkpt>
      <trkpt lat="45.62686" lon="2.40962">
        <ele>766</ele>
        <time>2025-05-06T05:39:47Z</time>
      </trkpt>
      <trkpt lat="45.62695" lon="2.4099">
        <ele>765</ele>
        <time>2025-05-06T05:40:04Z</time>
      </trkpt>
      <trkpt lat="45.62824" lon="2.41561">
        <ele>755</ele>
        <time>2025-05-06T05:45:40Z</time>
      </trkpt>
      <trkpt lat="45.62838" lon="2.41616">
        <ele>754</ele>
        <time>2025-05-06T05:46:13Z</time>
      </trkpt>
      <trkpt lat="45.62853" lon="2.41654">
        <ele>753</ele>
        <time>2025-05-06T05:46:37Z</time>
      </trkpt>
      <trkpt lat="45.62903" lon="2.41729">
        <ele>752</ele>
        <time>2025-05-06T05:47:35Z</time>
      </trkpt>
      <trkpt lat="45.63165" lon="2.42096">
        <ele>738</ele>
        <time>2025-05-06T05:52:29Z</time>
      </trkpt>
      <trkpt lat="45.64448" lon="2.4388">
        <ele>758</ele>
        <time>2025-05-06T06:16:22Z</time>
      </trkpt>
      <trkpt lat="45.64465" lon="2.43906">
        <ele>757</ele>
        <time>2025-05-06T06:16:42Z</time>
      </trkpt>
      <trkpt lat="45.6449" lon="2.43954">
        <ele>756</ele>
        <time>2025-05-06T06:17:15Z</time>
      </trkpt>
      <trkpt lat="45.64512" lon="2.44007">
        <ele>756</ele>
        <time>2025-05-06T06:17:50Z</time>
      </trkpt>
      <trkpt lat="45.6453" lon="2.44058">
        <ele>754</ele>
        <time>2025-05-06T06:18:22Z</time>
      </trkpt>
      <trkpt lat="45.64546" lon="2.44115">
        <ele>752</ele>
        <time>2025-05-06T06:18:56Z</time>
      </trkpt>
      <trkpt lat="45.6456" lon="2.44194">
        <ele>750</ele>
        <time>2025-05-06T06:19:42Z</time>
      </trkpt>
      <trkpt lat="45.64566" lon="2.44251">
        <ele>749</ele>
        <time>2025-05-06T06:20:14Z</time>
      </trkpt>
      <trkpt lat="45.64633" lon="2.45343">
        <ele>735</ele>
        <time>2025-05-06T06:30:27Z</time>
      </trkpt>
      <trkpt lat="45.64654" lon="2.4576">
        <ele>725</ele>
        <time>2025-05-06T06:34:22Z</time>
      </trkpt>
      <trkpt lat="45.64661" lon="2.45787">
        <ele>724</ele>
        <time>2025-05-06T06:34:38Z</time>
      </trkpt>
      <trkpt lat="45.6468" lon="2.45818">
        <ele>722</ele>
        <time>2025-05-06T06:35:01Z</time>
      </trkpt>
      <trkpt lat="45.64698" lon="2.45835">
        <ele>721</ele>
        <time>2025-05-06T06:35:18Z</time>
      </trkpt>
      <trkpt lat="45.64953" lon="2.45995">
        <ele>712</ele>
        <time>2025-05-06T06:39:01Z</time>
      </trkpt>
      <trkpt lat="45.65046" lon="2.46056">
        <ele>710</ele>
        <time>2025-05-06T06:40:23Z</time>
      </trkpt>
      <trkpt lat="45.65075" lon="2.46082">
        <ele>709</ele>
        <time>2025-05-06T06:40:50Z</time>
      </trkpt>
      <trkpt lat="45.65155" lon="2.46175">
        <ele>704</ele>
        <time>2025-05-06T06:42:13Z</time>
      </trkpt>
      <trkpt lat="45.65194" lon="2.46225">
        <ele>708</ele>
        <time>2025-05-06T06:42:55Z</time>
      </trkpt>
      <trkpt lat="45.65222" lon="2.46263">
        <ele>709</ele>
        <time>2025-05-06T06:43:26Z</time>
      </trkpt>
      <trkpt lat="45.65263" lon="2.46328">
        <ele>712</ele>
        <time>2025-05-06T06:44:15Z</time>
      </trkpt>
      <trkpt lat="45.6529" lon="2.46387">
        <ele>717</ele>
        <time>2025-05-06T06:44:54Z</time>
      </trkpt>
      <trkpt lat="45.65325" lon="2.46475">
        <ele>720</ele>
        <time>2025-05-06T06:45:51Z</time>
      </trkpt>
      <trkpt lat="45.65354" lon="2.46535">
        <ele>721</ele>
        <time>2025-05-06T06:46:32Z</time>
      </trkpt>
      <trkpt lat="45.6578" lon="2.47333">
        <ele>711</ele>
        <time>2025-05-06T06:55:54Z</time>
      </trkpt>
      <trkpt lat="45.65807" lon="2.47421">
        <ele>713</ele>
        <time>2025-05-06T06:56:47Z</time>
      </trkpt>
      <trkpt lat="45.65827" lon="2.47475">
        <ele>714</ele>
        <time>2025-05-06T06:57:22Z</time>
      </trkpt>
      <trkpt lat="45.65873" lon="2.47589">
        <ele>716</ele>
        <time>2025-05-06T06:58:35Z</time>
      </trkpt>
      <trkpt lat="45.65889" lon="2.47623">
        <ele>717</ele>
        <time>2025-05-06T06:58:58Z</time>
      </trkpt>
      <trkpt lat="45.65905" lon="2.47653">
        <ele>717</ele>
        <time>2025-05-06T06:59:19Z</time>
      </trkpt>
      <trkpt lat="45.65922" lon="2.47674">
        <ele>718</ele>
        <time>2025-05-06T06:59:37Z</time>
      </trkpt>
      <trkpt lat="45.65942" lon="2.4769">
        <ele>720</ele>
        <time>2025-05-06T06:59:56Z</time>
      </trkpt>
      <trkpt lat="45.65978" lon="2.47706">
        <ele>722</ele>
        <time>2025-05-06T07:00:26Z</time>
      </trkpt>
      <trkpt lat="45.65998" lon="2.47726">
        <ele>724</ele>
        <time>2025-05-06T07:00:45Z</time>
      </trkpt>
      <trkpt lat="45.66016" lon="2.47747">
        <ele>725</ele>
        <time>2025-05-06T07:01:04Z</time>
      </trkpt>
      <trkpt lat="45.66039" lon="2.47787">
        <ele>726</ele>
        <time>2025-05-06T07:01:33Z</time>
      </trkpt>
      <trkpt lat="45.66047" lon="2.47816">
        <ele>727</ele>
        <time>2025-05-06T07:01:50Z</time>
      </trkpt>
      <trkpt lat="45.66057" lon="2.47868">
        <ele>730</ele>
        <time>2025-05-06T07:02:20Z</time>
      </trkpt>
      <trkpt lat="45.66065" lon="2.47938">
        <ele>733</ele>
        <time>2025-05-06T07:03:00Z</time>
      </trkpt>
      <trkpt lat="45.66078" lon="2.47986">
        <ele>735</ele>
        <time>2025-05-06T07:03:29Z</time>
      </trkpt>
      <trkpt lat="45.66197" lon="2.48179">
        <ele>735</ele>
        <time>2025-05-06T07:05:53Z</time>
      </trkpt>
      <trkpt lat="45.66209" lon="2.48209">
        <ele>735</ele>
        <time>2025-05-06T07:06:12Z</time>
      </trkpt>
      <trkpt lat="45.66213" lon="2.4824">
        <ele>734</ele>
        <time>2025-05-06T07:06:30Z</time>
      </trkpt>
      <trkpt lat="45.66212" lon="2.48261">
        <ele>733</ele>
        <time>2025-05-06T07:06:42Z</time>
      </trkpt>
      <trkpt lat="45.66197" lon="2.48327">
        <ele>730</ele>
        <time>2025-05-06T07:07:21Z</time>
      </trkpt>
      <trkpt lat="45.66197" lon="2.48345">
        <ele>730</ele>
        <time>2025-05-06T07:07:31Z</time>
      </trkpt>
      <trkpt lat="45.66207" lon="2.48531">
        <ele>728</ele>
        <time>2025-05-06T07:09:15Z</time>
      </trkpt>
      <trkpt lat="45.66214" lon="2.48568">
        <ele>729</ele>
        <time>2025-05-06T07:09:37Z</time>
      </trkpt>
      <trkpt lat="45.66227" lon="2.48597">
        <ele>730</ele>
        <time>2025-05-06T07:09:56Z</time>
      </trkpt>
      <trkpt lat="45.66299" lon="2.48722">
        <ele>740</ele>
        <time>2025-05-06T07:11:26Z</time>
      </trkpt>
      <trkpt lat="45.66338" lon="2.48769">
        <ele>742</ele>
        <time>2025-05-06T07:12:07Z</time>
      </trkpt>
      <trkpt lat="45.66346" lon="2.48784">
        <ele>743</ele>
        <time>2025-05-06T07:12:18Z</time>
      </trkpt>
      <trkpt lat="45.66352" lon="2.48812">
        <ele>744</ele>
        <time>2025-05-06T07:12:34Z</time>
      </trkpt>
      <trkpt lat="45.66351" lon="2.48829">
        <ele>744</ele>
        <time>2025-05-06T07:12:44Z</time>
      </trkpt>
      <trkpt lat="45.66343" lon="2.48857">
        <ele>744</ele>
        <time>2025-05-06T07:13:01Z</time>
      </trkpt>
      <trkpt lat="45.65994" lon="2.4988">
        <ele>759</ele>
        <time>2025-05-06T07:23:38Z</time>
      </trkpt>
      <trkpt lat="45.6577" lon="2.50549">
        <ele>755</ele>
        <time>2025-05-06T07:30:33Z</time>
      </trkpt>
      <trkpt lat="45.6575" lon="2.50616">
        <ele>752</ele>
        <time>2025-05-06T07:31:14Z</time>
      </trkpt>
      <trkpt lat="45.65742" lon="2.5066">
        <ele>751</ele>
        <time>2025-05-06T07:31:39Z</time>
      </trkpt>
      <trkpt lat="45.65727" lon="2.50801">
        <ele>747</ele>
        <time>2025-05-06T07:32:59Z</time>
      </trkpt>
      <trkpt lat="45.6572" lon="2.50829">
        <ele>747</ele>
        <time>2025-05-06T07:33:16Z</time>
      </trkpt>
      <trkpt lat="45.65702" lon="2.50881">
        <ele>743</ele>
        <time>2025-05-06T07:33:48Z</time>
      </trkpt>
      <trkpt lat="45.65684" lon="2.5092">
        <ele>742</ele>
        <time>2025-05-06T07:34:14Z</time>
      </trkpt>
      <trkpt lat="45.65654" lon="2.50962">
        <ele>739</ele>
        <time>2025-05-06T07:34:48Z</time>
      </trkpt>
      <trkpt lat="45.65626" lon="2.50989">
        <ele>735</ele>
        <time>2025-05-06T07:35:15Z</time>
      </trkpt>
      <trkpt lat="45.65601" lon="2.51007">
        <ele>733</ele>
        <time>2025-05-06T07:35:37Z</time>
      </trkpt>
      <trkpt lat="45.65574" lon="2.51022">
        <ele>733</ele>
        <time>2025-05-06T07:36:00Z</time>
      </trkpt>
      <trkpt lat="45.65538" lon="2.51035">
        <ele>731</ele>
        <time>2025-05-06T07:36:30Z</time>
      </trkpt>
      <trkpt lat="45.65518" lon="2.51046">
        <ele>730</ele>
        <time>2025-05-06T07:36:47Z</time>
      </trkpt>
      <trkpt lat="45.65469" lon="2.51087">
        <ele>729</ele>
        <time>2025-05-06T07:37:33Z</time>
      </trkpt>
      <trkpt lat="45.65441" lon="2.51122">
        <ele>728</ele>
        <time>2025-05-06T07:38:02Z</time>
      </trkpt>
      <trkpt lat="45.6539" lon="2.51201">
        <ele>723</ele>
        <time>2025-05-06T07:39:03Z</time>
      </trkpt>
      <trkpt lat="45.65367" lon="2.51256">
        <ele>721</ele>
        <time>2025-05-06T07:39:39Z</time>
      </trkpt>
      <trkpt lat="45.65355" lon="2.51271">
        <ele>721</ele>
        <time>2025-05-06T07:39:51Z</time>
      </trkpt>
      <trkpt lat="45.65294" lon="2.51301">
        <ele>720</ele>
        <time>2025-05-06T07:40:43Z</time>
      </trkpt>
      <trkpt lat="45.6522" lon="2.51342">
        <ele>716</ele>
        <time>2025-05-06T07:41:46Z</time>
      </trkpt>
      <trkpt lat="45.6515" lon="2.51406">
        <ele>716</ele>
        <time>2025-05-06T07:42:53Z</time>
      </trkpt>
      <trkpt lat="45.6505" lon="2.51474">
        <ele>710</ele>
        <time>2025-05-06T07:44:22Z</time>
      </trkpt>
      <trkpt lat="45.64982" lon="2.51549">
        <ele>706</ele>
        <time>2025-05-06T07:45:30Z</time>
      </trkpt>
      <trkpt lat="45.64943" lon="2.5158">
        <ele>702</ele>
        <time>2025-05-06T07:46:06Z</time>
      </trkpt>
      <trkpt lat="45.64924" lon="2.51616">
        <ele>697</ele>
        <time>2025-05-06T07:46:31Z</time>
      </trkpt>
      <trkpt lat="45.64918" lon="2.5164">
        <ele>694</ele>
        <time>2025-05-06T07:46:46Z</time>
      </trkpt>
      <trkpt lat="45.64905" lon="2.51708">
        <ele>691</ele>
        <time>2025-05-06T07:47:25Z</time>
      </trkpt>
      <trkpt lat="45.64905" lon="2.51727">
        <ele>690</ele>
        <time>2025-05-06T07:47:36Z</time>
      </trkpt>
      <trkpt lat="45.64911" lon="2.51777">
        <ele>688</ele>
        <time>2025-05-06T07:48:04Z</time>
      </trkpt>
      <trkpt lat="45.6491" lon="2.51788">
        <ele>687</ele>
        <time>2025-05-06T07:48:10Z</time>
      </trkpt>
      <trkpt lat="45.64887" lon="2.51866">
        <ele>673</ele>
        <time>2025-05-06T07:48:58Z</time>
      </trkpt>
      <trkpt lat="45.64888" lon="2.51895">
        <ele>668</ele>
        <time>2025-05-06T07:49:14Z</time>
      </trkpt>
      <trkpt lat="45.64895" lon="2.51911">
        <ele>668</ele>
        <time>2025-05-06T07:49:25Z</time>
      </trkpt>
      <trkpt lat="45.64917" lon="2.51937">
        <ele>666</ele>
        <time>2025-05-06T07:49:47Z</time>
      </trkpt>
      <trkpt lat="45.64935" lon="2.51952">
        <ele>667</ele>
        <time>2025-05-06T07:50:04Z</time>
      </trkpt>
      <trkpt lat="45.64957" lon="2.51969">
        <ele>666</ele>
        <time>2025-05-06T07:50:24Z</time>
      </trkpt>
      <trkpt lat="45.65026" lon="2.52013">
        <ele>670</ele>
        <time>2025-05-06T07:51:25Z</time>
      </trkpt>
      <trkpt lat="45.65041" lon="2.52026">
        <ele>671</ele>
        <time>2025-05-06T07:51:39Z</time>
      </trkpt>
      <trkpt lat="45.65122" lon="2.52131">
        <ele>664</ele>
        <time>2025-05-06T07:53:06Z</time>
      </trkpt>
      <trkpt lat="45.65169" lon="2.52188">
        <ele>662</ele>
        <time>2025-05-06T07:53:55Z</time>
      </trkpt>
      <trkpt lat="45.65179" lon="2.52206">
        <ele>661</ele>
        <time>2025-05-06T07:54:08Z</time>
      </trkpt>
      <trkpt lat="45.65184" lon="2.52225">
        <ele>659</ele>
        <time>2025-05-06T07:54:20Z</time>
      </trkpt>
      <trkpt lat="45.6518" lon="2.52253">
        <ele>652</ele>
        <time>2025-05-06T07:54:36Z</time>
      </trkpt>
      <trkpt lat="45.65103" lon="2.52392">
        <ele>653</ele>
        <time>2025-05-06T07:56:15Z</time>
      </trkpt>
      <trkpt lat="45.65088" lon="2.52422">
        <ele>655</ele>
        <time>2025-05-06T07:56:36Z</time>
      </trkpt>
      <trkpt lat="45.65085" lon="2.52434">
        <ele>655</ele>
        <time>2025-05-06T07:56:43Z</time>
      </trkpt>
      <trkpt lat="45.65083" lon="2.52448">
        <ele>656</ele>
        <time>2025-05-06T07:56:51Z</time>
      </trkpt>
      <trkpt lat="45.65086" lon="2.5248">
        <ele>658</ele>
        <time>2025-05-06T07:57:09Z</time>
      </trkpt>
      <trkpt lat="45.65099" lon="2.52512">
        <ele>663</ele>
        <time>2025-05-06T07:57:30Z</time>
      </trkpt>
      <trkpt lat="45.65132" lon="2.52559">
        <ele>672</ele>
        <time>2025-05-06T07:58:07Z</time>
      </trkpt>
      <trkpt lat="45.6514" lon="2.52586">
        <ele>676</ele>
        <time>2025-05-06T07:58:23Z</time>
      </trkpt>
      <trkpt lat="45.65141" lon="2.52611">
        <ele>680</ele>
        <time>2025-05-06T07:58:37Z</time>
      </trkpt>
      <trkpt lat="45.65133" lon="2.52646">
        <ele>682</ele>
        <time>2025-05-06T07:58:58Z</time>
      </trkpt>
      <trkpt lat="45.65075" lon="2.5275">
        <ele>680</ele>
        <time>2025-05-06T08:00:12Z</time>
      </trkpt>
      <trkpt lat="45.65059" lon="2.52793">
        <ele>685</ele>
        <time>2025-05-06T08:00:40Z</time>
      </trkpt>
      <trkpt lat="45.65054" lon="2.52811">
        <ele>686</ele>
        <time>2025-05-06T08:00:50Z</time>
      </trkpt>
      <trkpt lat="45.65052" lon="2.52854">
        <ele>689</ele>
        <time>2025-05-06T08:01:15Z</time>
      </trkpt>
      <trkpt lat="45.65057" lon="2.52907">
        <ele>693</ele>
        <time>2025-05-06T08:01:44Z</time>
      </trkpt>
      <trkpt lat="45.65064" lon="2.52929">
        <ele>694</ele>
        <time>2025-05-06T08:01:58Z</time>
      </trkpt>
      <trkpt lat="45.65084" lon="2.52969">
        <ele>695</ele>
        <time>2025-05-06T08:02:26Z</time>
      </trkpt>
      <trkpt lat="45.6509" lon="2.5299">
        <ele>697</ele>
        <time>2025-05-06T08:02:38Z</time>
      </trkpt>
      <trkpt lat="45.65092" lon="2.5302">
        <ele>698</ele>
        <time>2025-05-06T08:02:55Z</time>
      </trkpt>
      <trkpt lat="45.65083" lon="2.53058">
        <ele>697</ele>
        <time>2025-05-06T08:03:18Z</time>
      </trkpt>
      <trkpt lat="45.65081" lon="2.53077">
        <ele>699</ele>
        <time>2025-05-06T08:03:28Z</time>
      </trkpt>
      <trkpt lat="45.65082" lon="2.53104">
        <ele>700</ele>
        <time>2025-05-06T08:03:43Z</time>
      </trkpt>
      <trkpt lat="45.6509" lon="2.53136">
        <ele>705</ele>
        <time>2025-05-06T08:04:02Z</time>
      </trkpt>
      <trkpt lat="45.65092" lon="2.53162">
        <ele>707</ele>
        <time>2025-05-06T08:04:17Z</time>
      </trkpt>
      <trkpt lat="45.65075" lon="2.53278">
        <ele>710</ele>
        <time>2025-05-06T08:05:23Z</time>
      </trkpt>
      <trkpt lat="45.65076" lon="2.53314">
        <ele>711</ele>
        <time>2025-05-06T08:05:44Z</time>
      </trkpt>
      <trkpt lat="45.65066" lon="2.53385">
        <ele>714</ele>
        <time>2025-05-06T08:06:24Z</time>
      </trkpt>
      <trkpt lat="45.65064" lon="2.53418">
        <ele>716</ele>
        <time>2025-05-06T08:06:43Z</time>
      </trkpt>
      <trkpt lat="45.65067" lon="2.53443">
        <ele>716</ele>
        <time>2025-05-06T08:06:57Z</time>
      </trkpt>
      <trkpt lat="45.65092" lon="2.53535">
        <ele>720</ele>
        <time>2025-05-06T08:07:52Z</time>
      </trkpt>
      <trkpt lat="45.65128" lon="2.53619">
        <ele>726</ele>
        <time>2025-05-06T08:08:47Z</time>
      </trkpt>
      <trkpt lat="45.65183" lon="2.53725">
        <ele>733</ele>
        <time>2025-05-06T08:10:01Z</time>
      </trkpt>
      <trkpt lat="45.65194" lon="2.53754">
        <ele>734</ele>
        <time>2025-05-06T08:10:20Z</time>
      </trkpt>
      <trkpt lat="45.65199" lon="2.53788">
        <ele>734</ele>
        <time>2025-05-06T08:10:39Z</time>
      </trkpt>
      <trkpt lat="45.652" lon="2.53822">
        <ele>734</ele>
        <time>2025-05-06T08:10:58Z</time>
      </trkpt>
      <trkpt lat="45.65194" lon="2.54212">
        <ele>743</ele>
        <time>2025-05-06T08:14:36Z</time>
      </trkpt>
      <trkpt lat="45.65184" lon="2.54293">
        <ele>746</ele>
        <time>2025-05-06T08:15:22Z</time>
      </trkpt>
      <trkpt lat="45.64924" lon="2.55368">
        <ele>770</ele>
        <time>2025-05-06T08:25:59Z</time>
      </trkpt>
      <trkpt lat="45.649" lon="2.55436">
        <ele>771</ele>
        <time>2025-05-06T08:26:42Z</time>
      </trkpt>
      <trkpt lat="45.64877" lon="2.5549">
        <ele>770</ele>
        <time>2025-05-06T08:27:17Z</time>
      </trkpt>
      <trkpt lat="45.64859" lon="2.5554">
        <ele>769</ele>
        <time>2025-05-06T08:27:49Z</time>
      </trkpt>
      <trkpt lat="45.64902" lon="2.55559">
        <ele>767</ele>
        <time>2025-05-06T08:28:25Z</time>
      </trkpt>
      <trkpt lat="45.64916" lon="2.55568">
        <ele>766</ele>
        <time>2025-05-06T08:28:37Z</time>
      </trkpt>
      <trkpt lat="45.64926" lon="2.55578">
        <ele>765</ele>
        <time>2025-05-06T08:28:47Z</time>
      </trkpt>
      <trkpt lat="45.64931" lon="2.55588">
        <ele>765</ele>
        <time>2025-05-06T08:28:54Z</time>
      </trkpt>
      <trkpt lat="45.64935" lon="2.55607">
        <ele>764</ele>
        <time>2025-05-06T08:29:05Z</time>
      </trkpt>
      <trkpt lat="45.64934" lon="2.55631">
        <ele>763</ele>
        <time>2025-05-06T08:29:18Z</time>
      </trkpt>
      <trkpt lat="45.64925" lon="2.55727">
        <ele>761</ele>
        <time>2025-05-06T08:30:12Z</time>
      </trkpt>
      <trkpt lat="45.6494" lon="2.55786">
        <ele>760</ele>
        <time>2025-05-06T08:30:48Z</time>
      </trkpt>
      <trkpt lat="45.64943" lon="2.55807">
        <ele>760</ele>
        <time>2025-05-06T08:31:00Z</time>
      </trkpt>
      <trkpt lat="45.64955" lon="2.55814">
        <ele>761</ele>
        <time>2025-05-06T08:31:10Z</time>
      </trkpt>
      <trkpt lat="45.65005" lon="2.55873">
        <ele>763</ele>
        <time>2025-05-06T08:32:02Z</time>
      </trkpt>
      <trkpt lat="45.65022" lon="2.55886">
        <ele>763</ele>
        <time>2025-05-06T08:32:17Z</time>
      </trkpt>
      <trkpt lat="45.65041" lon="2.55891">
        <ele>764</ele>
        <time>2025-05-06T08:32:33Z</time>
      </trkpt>
      <trkpt lat="45.65136" lon="2.559">
        <ele>764</ele>
        <time>2025-05-06T08:33:49Z</time>
      </trkpt>
      <trkpt lat="45.65158" lon="2.55907">
        <ele>764</ele>
        <time>2025-05-06T08:34:07Z</time>
      </trkpt>
      <trkpt lat="45.65185" lon="2.55921">
        <ele>764</ele>
        <time>2025-05-06T08:34:30Z</time>
      </trkpt>
      <trkpt lat="45.65211" lon="2.55927">
        <ele>764</ele>
        <time>2025-05-06T08:34:51Z</time>
      </trkpt>
      <trkpt lat="45.65227" lon="2.55925">
        <ele>764</ele>
        <time>2025-05-06T08:35:04Z</time>
      </trkpt>
      <trkpt lat="45.65238" lon="2.55917">
        <ele>764</ele>
        <time>2025-05-06T08:35:14Z</time>
      </trkpt>
      <trkpt lat="45.65427" lon="2.55674">
        <ele>772</ele>
        <time>2025-05-06T08:38:37Z</time>
      </trkpt>
      <trkpt lat="45.65444" lon="2.55657">
        <ele>773</ele>
        <time>2025-05-06T08:38:54Z</time>
      </trkpt>
      <trkpt lat="45.65461" lon="2.55652">
        <ele>773</ele>
        <time>2025-05-06T08:39:08Z</time>
      </trkpt>
      <trkpt lat="45.65482" lon="2.55656">
        <ele>775</ele>
        <time>2025-05-06T08:39:25Z</time>
      </trkpt>
      <trkpt lat="45.65499" lon="2.55656">
        <ele>775</ele>
        <time>2025-05-06T08:39:38Z</time>
      </trkpt>
      <trkpt lat="45.65525" lon="2.5564">
        <ele>776</ele>
        <time>2025-05-06T08:40:01Z</time>
      </trkpt>
      <trkpt lat="45.65566" lon="2.55603">
        <ele>777</ele>
        <time>2025-05-06T08:40:40Z</time>
      </trkpt>
      <trkpt lat="45.65594" lon="2.55572">
        <ele>777</ele>
        <time>2025-05-06T08:41:08Z</time>
      </trkpt>
      <trkpt lat="45.65616" lon="2.55529">
        <ele>777</ele>
        <time>2025-05-06T08:41:38Z</time>
      </trkpt>
      <trkpt lat="45.65632" lon="2.55506">
        <ele>777</ele>
        <time>2025-05-06T08:41:56Z</time>
      </trkpt>
      <trkpt lat="45.65649" lon="2.55498">
        <ele>778</ele>
        <time>2025-05-06T08:42:10Z</time>
      </trkpt>
      <trkpt lat="45.65666" lon="2.55499">
        <ele>780</ele>
        <time>2025-05-06T08:42:24Z</time>
      </trkpt>
      <trkpt lat="45.65736" lon="2.55526">
        <ele>780</ele>
        <time>2025-05-06T08:43:22Z</time>
      </trkpt>
      <trkpt lat="45.658" lon="2.5553">
        <ele>779</ele>
        <time>2025-05-06T08:44:13Z</time>
      </trkpt>
      <trkpt lat="45.65921" lon="2.55574">
        <ele>776</ele>
        <time>2025-05-06T08:45:53Z</time>
      </trkpt>
      <trkpt lat="45.6594" lon="2.55589">
        <ele>775</ele>
        <time>2025-05-06T08:46:11Z</time>
      </trkpt>
      <trkpt lat="45.65974" lon="2.55626">
        <ele>773</ele>
        <time>2025-05-06T08:46:45Z</time>
      </trkpt>
      <trkpt lat="45.66007" lon="2.55652">
        <ele>772</ele>
        <time>2025-05-06T08:47:15Z</time>
      </trkpt>
      <trkpt lat="45.66025" lon="2.55677">
        <ele>770</ele>
        <time>2025-05-06T08:47:35Z</time>
      </trkpt>
      <trkpt lat="45.66083" lon="2.55771">
        <ele>768</ele>
        <time>2025-05-06T08:48:45Z</time>
      </trkpt>
      <trkpt lat="45.66109" lon="2.55801">
        <ele>768</ele>
        <time>2025-05-06T08:49:12Z</time>
      </trkpt>
      <trkpt lat="45.66154" lon="2.55838">
        <ele>768</ele>
        <time>2025-05-06T08:49:54Z</time>
      </trkpt>
      <trkpt lat="45.66173" lon="2.5586">
        <ele>769</ele>
        <time>2025-05-06T08:50:13Z</time>
      </trkpt>
      <trkpt lat="45.66221" lon="2.55946">
        <ele>768</ele>
        <time>2025-05-06T08:51:15Z</time>
      </trkpt>
      <trkpt lat="45.66236" lon="2.55978">
        <ele>767</ele>
        <time>2025-05-06T08:51:36Z</time>
      </trkpt>
      <trkpt lat="45.66291" lon="2.56073">
        <ele>761</ele>
        <time>2025-05-06T08:52:45Z</time>
      </trkpt>
      <trkpt lat="45.66332" lon="2.5616">
        <ele>757</ele>
        <time>2025-05-06T08:53:44Z</time>
      </trkpt>
      <trkpt lat="45.66343" lon="2.562">
        <ele>755</ele>
        <time>2025-05-06T08:54:08Z</time>
      </trkpt>
      <trkpt lat="45.66361" lon="2.56227">
        <ele>753</ele>
        <time>2025-05-06T08:54:29Z</time>
      </trkpt>
      <trkpt lat="45.66381" lon="2.56235">
        <ele>750</ele>
        <time>2025-05-06T08:54:46Z</time>
      </trkpt>
      <trkpt lat="45.66408" lon="2.56234">
        <ele>747</ele>
        <time>2025-05-06T08:55:07Z</time>
      </trkpt>
      <trkpt lat="45.66425" lon="2.5624">
        <ele>745</ele>
        <time>2025-05-06T08:55:21Z</time>
      </trkpt>
      <trkpt lat="45.66472" lon="2.5628">
        <ele>739</ele>
        <time>2025-05-06T08:56:05Z</time>
      </trkpt>
      <trkpt lat="45.665" lon="2.56296">
        <ele>736</ele>
        <time>2025-05-06T08:56:29Z</time>
      </trkpt>
      <trkpt lat="45.6653" lon="2.56306">
        <ele>732</ele>
        <time>2025-05-06T08:56:54Z</time>
      </trkpt>
      <trkpt lat="45.66573" lon="2.56329">
        <ele>726</ele>
        <time>2025-05-06T08:57:31Z</time>
      </trkpt>
      <trkpt lat="45.66591" lon="2.5633">
        <ele>724</ele>
        <time>2025-05-06T08:57:45Z</time>
      </trkpt>
      <trkpt lat="45.66645" lon="2.56324">
        <ele>718</ele>
        <time>2025-05-06T08:58:29Z</time>
      </trkpt>
      <trkpt lat="45.6667" lon="2.56326">
        <ele>715</ele>
        <time>2025-05-06T08:58:49Z</time>
      </trkpt>
      <trkpt lat="45.6668" lon="2.5633">
        <ele>714</ele>
        <time>2025-05-06T08:58:57Z</time>
      </trkpt>
      <trkpt lat="45.66687" lon="2.56342">
        <ele>713</ele>
        <time>2025-05-06T08:59:06Z</time>
      </trkpt>
      <trkpt lat="45.66694" lon="2.56339">
        <ele>712</ele>
        <time>2025-05-06T08:59:11Z</time>
      </trkpt>
      <trkpt lat="45.66707" lon="2.56338">
        <ele>712</ele>
        <time>2025-05-06T08:59:22Z</time>
      </trkpt>
      <trkpt lat="45.66803" lon="2.56371">
        <ele>711</ele>
        <time>2025-05-06T09:00:41Z</time>
      </trkpt>
      <trkpt lat="45.66825" lon="2.56373">
        <ele>711</ele>
        <time>2025-05-06T09:00:59Z</time>
      </trkpt>
      <trkpt lat="45.66846" lon="2.5637">
        <ele>710</ele>
        <time>2025-05-06T09:01:16Z</time>
      </trkpt>
      <trkpt lat="45.66965" lon="2.56335">
        <ele>711</ele>
        <time>2025-05-06T09:02:53Z</time>
      </trkpt>
      <trkpt lat="45.66982" lon="2.56339">
        <ele>712</ele>
        <time>2025-05-06T09:03:07Z</time>
      </trkpt>
      <trkpt lat="45.66996" lon="2.56347">
        <ele>713</ele>
        <time>2025-05-06T09:03:19Z</time>
      </trkpt>
      <trkpt lat="45.67007" lon="2.56358">
        <ele>714</ele>
        <time>2025-05-06T09:03:29Z</time>
      </trkpt>
      <trkpt lat="45.67031" lon="2.56396">
        <ele>717</ele>
        <time>2025-05-06T09:03:58Z</time>
      </trkpt>
      <trkpt lat="45.6709" lon="2.5652">
        <ele>720</ele>
        <time>2025-05-06T09:05:22Z</time>
      </trkpt>
      <trkpt lat="45.67108" lon="2.56553">
        <ele>721</ele>
        <time>2025-05-06T09:05:45Z</time>
      </trkpt>
      <trkpt lat="45.67117" lon="2.56576">
        <ele>721</ele>
        <time>2025-05-06T09:06:00Z</time>
      </trkpt>
      <trkpt lat="45.6712" lon="2.56637">
        <ele>720</ele>
        <time>2025-05-06T09:06:34Z</time>
      </trkpt>
      <trkpt lat="45.67127" lon="2.56671">
        <ele>721</ele>
        <time>2025-05-06T09:06:54Z</time>
      </trkpt>
      <trkpt lat="45.67151" lon="2.56735">
        <ele>722</ele>
        <time>2025-05-06T09:07:35Z</time>
      </trkpt>
      <trkpt lat="45.67169" lon="2.56768">
        <ele>722</ele>
        <time>2025-05-06T09:07:58Z</time>
      </trkpt>
      <trkpt lat="45.67178" lon="2.56774">
        <ele>724</ele>
        <time>2025-05-06T09:08:06Z</time>
      </trkpt>
      <trkpt lat="45.67189" lon="2.56775">
        <ele>725</ele>
        <time>2025-05-06T09:08:15Z</time>
      </trkpt>
      <trkpt lat="45.67203" lon="2.5677">
        <ele>727</ele>
        <time>2025-05-06T09:08:27Z</time>
      </trkpt>
      <trkpt lat="45.67232" lon="2.56751">
        <ele>732</ele>
        <time>2025-05-06T09:08:52Z</time>
      </trkpt>
      <trkpt lat="45.67277" lon="2.56732">
        <ele>737</ele>
        <time>2025-05-06T09:09:30Z</time>
      </trkpt>
      <trkpt lat="45.67391" lon="2.56723">
        <ele>740</ele>
        <time>2025-05-06T09:11:01Z</time>
      </trkpt>
      <trkpt lat="45.67411" lon="2.56714">
        <ele>741</ele>
        <time>2025-05-06T09:11:18Z</time>
      </trkpt>
      <trkpt lat="45.67427" lon="2.5671">
        <ele>743</ele>
        <time>2025-05-06T09:11:31Z</time>
      </trkpt>
      <trkpt lat="45.67443" lon="2.56712">
        <ele>744</ele>
        <time>2025-05-06T09:11:44Z</time>
      </trkpt>
      <trkpt lat="45.67485" lon="2.56729">
        <ele>746</ele>
        <time>2025-05-06T09:12:19Z</time>
      </trkpt>
      <trkpt lat="45.67503" lon="2.56732">
        <ele>748</ele>
        <time>2025-05-06T09:12:33Z</time>
      </trkpt>
      <trkpt lat="45.67542" lon="2.56733">
        <ele>748</ele>
        <time>2025-05-06T09:13:04Z</time>
      </trkpt>
      <trkpt lat="45.67575" lon="2.56742">
        <ele>748</ele>
        <time>2025-05-06T09:13:31Z</time>
      </trkpt>
      <trkpt lat="45.67598" lon="2.56745">
        <ele>747</ele>
        <time>2025-05-06T09:13:50Z</time>
      </trkpt>
      <trkpt lat="45.67621" lon="2.56741">
        <ele>748</ele>
        <time>2025-05-06T09:14:08Z</time>
      </trkpt>
      <trkpt lat="45.67692" lon="2.56703">
        <ele>751</ele>
        <time>2025-05-06T09:15:09Z</time>
      </trkpt>
      <trkpt lat="45.67704" lon="2.567">
        <ele>751</ele>
        <time>2025-05-06T09:15:19Z</time>
      </trkpt>
      <trkpt lat="45.67728" lon="2.56698">
        <ele>751</ele>
        <time>2025-05-06T09:15:38Z</time>
      </trkpt>
      <trkpt lat="45.67754" lon="2.56706">
        <ele>751</ele>
        <time>2025-05-06T09:15:59Z</time>
      </trkpt>
      <trkpt lat="45.67772" lon="2.56716">
        <ele>752</ele>
        <time>2025-05-06T09:16:15Z</time>
      </trkpt>
      <trkpt lat="45.67792" lon="2.56731">
        <ele>753</ele>
        <time>2025-05-06T09:16:33Z</time>
      </trkpt>
      <trkpt lat="45.68032" lon="2.56975">
        <ele>775</ele>
        <time>2025-05-06T09:20:29Z</time>
      </trkpt>
      <trkpt lat="45.68066" lon="2.57016">
        <ele>777</ele>
        <time>2025-05-06T09:21:04Z</time>
      </trkpt>
      <trkpt lat="45.68099" lon="2.57066">
        <ele>779</ele>
        <time>2025-05-06T09:21:43Z</time>
      </trkpt>
      <trkpt lat="45.68231" lon="2.57304">
        <ele>777</ele>
        <time>2025-05-06T09:24:33Z</time>
      </trkpt>
      <trkpt lat="45.6827" lon="2.5738">
        <ele>777</ele>
        <time>2025-05-06T09:25:25Z</time>
      </trkpt>
      <trkpt lat="45.68308" lon="2.57466">
        <ele>777</ele>
        <time>2025-05-06T09:26:22Z</time>
      </trkpt>
      <trkpt lat="45.6848" lon="2.57901">
        <ele>788</ele>
        <time>2025-05-06T09:31:02Z</time>
      </trkpt>
      <trkpt lat="45.68511" lon="2.57968">
        <ele>793</ele>
        <time>2025-05-06T09:31:47Z</time>
      </trkpt>
      <trkpt lat="45.68566" lon="2.58056">
        <ele>798</ele>
        <time>2025-05-06T09:32:53Z</time>
      </trkpt>
      <trkpt lat="45.68982" lon="2.58607">
        <ele>802</ele>
        <time>2025-05-06T09:40:27Z</time>
      </trkpt>
      <trkpt lat="45.69035" lon="2.58671">
        <ele>799</ele>
        <time>2025-05-06T09:41:22Z</time>
      </trkpt>
      <trkpt lat="45.6906" lon="2.58695">
        <ele>797</ele>
        <time>2025-05-06T09:41:46Z</time>
      </trkpt>
      <trkpt lat="45.69092" lon="2.5871">
        <ele>795</ele>
        <time>2025-05-06T09:42:13Z</time>
      </trkpt>
      <trkpt lat="45.69121" lon="2.58718">
        <ele>797</ele>
        <time>2025-05-06T09:42:37Z</time>
      </trkpt>
      <trkpt lat="45.69157" lon="2.58718">
        <ele>799</ele>
        <time>2025-05-06T09:43:06Z</time>
      </trkpt>
      <trkpt lat="45.69203" lon="2.58701">
        <ele>800</ele>
        <time>2025-05-06T09:43:44Z</time>
      </trkpt>
      <trkpt lat="45.69215" lon="2.58694">
        <ele>800</ele>
        <time>2025-05-06T09:43:54Z</time>
      </trkpt>
      <trkpt lat="45.69239" lon="2.58674">
        <ele>799</ele>
        <time>2025-05-06T09:44:16Z</time>
      </trkpt>
      <trkpt lat="45.69262" lon="2.58647">
        <ele>797</ele>
        <time>2025-05-06T09:44:40Z</time>
      </trkpt>
      <trkpt lat="45.69576" lon="2.58164">
        <ele>780</ele>
        <time>2025-05-06T09:50:49Z</time>
      </trkpt>
      <trkpt lat="45.69646" lon="2.58032">
        <ele>780</ele>
        <time>2025-05-06T09:52:22Z</time>
      </trkpt>
      <trkpt lat="45.69669" lon="2.57999">
        <ele>780</ele>
        <time>2025-05-06T09:52:48Z</time>
      </trkpt>
      <trkpt lat="45.6969" lon="2.57974">
        <ele>777</ele>
        <time>2025-05-06T09:53:10Z</time>
      </trkpt>
      <trkpt lat="45.69723" lon="2.57945">
        <ele>775</ele>
        <time>2025-05-06T09:53:41Z</time>
      </trkpt>
      <trkpt lat="45.70259" lon="2.57565">
        <ele>743</ele>
        <time>2025-05-06T10:01:40Z</time>
      </trkpt>
      <trkpt lat="45.70283" lon="2.57547">
        <ele>743</ele>
        <time>2025-05-06T10:02:01Z</time>
      </trkpt>
      <trkpt lat="45.70306" lon="2.57525">
        <ele>744</ele>
        <time>2025-05-06T10:02:24Z</time>
      </trkpt>
      <trkpt lat="45.70324" lon="2.575">
        <ele>744</ele>
        <time>2025-05-06T10:02:44Z</time>
      </trkpt>
      <trkpt lat="45.7034" lon="2.57466">
        <ele>748</ele>
        <time>2025-05-06T10:03:07Z</time>
      </trkpt>
      <trkpt lat="45.7035" lon="2.57422">
        <ele>750</ele>
        <time>2025-05-06T10:03:33Z</time>
      </trkpt>
      <trkpt lat="45.70354" lon="2.57336">
        <ele>751</ele>
        <time>2025-05-06T10:04:21Z</time>
      </trkpt>
      <trkpt lat="45.70351" lon="2.57252">
        <ele>752</ele>
        <time>2025-05-06T10:05:08Z</time>
      </trkpt>
      <trkpt lat="45.70355" lon="2.57202">
        <ele>754</ele>
        <time>2025-05-06T10:05:36Z</time>
      </trkpt>
      <trkpt lat="45.70365" lon="2.57157">
        <ele>755</ele>
        <time>2025-05-06T10:06:02Z</time>
      </trkpt>
      <trkpt lat="45.70377" lon="2.57121">
        <ele>755</ele>
        <time>2025-05-06T10:06:25Z</time>
      </trkpt>
      <trkpt lat="45.70438" lon="2.56971">
        <ele>756</ele>
        <time>2025-05-06T10:08:02Z</time>
      </trkpt>
      <trkpt lat="45.70484" lon="2.56901">
        <ele>756</ele>
        <time>2025-05-06T10:08:55Z</time>
      </trkpt>
      <trkpt lat="45.70512" lon="2.56869">
        <ele>757</ele>
        <time>2025-05-06T10:09:24Z</time>
      </trkpt>
      <trkpt lat="45.70682" lon="2.56723">
        <ele>762</ele>
        <time>2025-05-06T10:12:03Z</time>
      </trkpt>
      <trkpt lat="45.70701" lon="2.56718">
        <ele>762</ele>
        <time>2025-05-06T10:12:18Z</time>
      </trkpt>
      <trkpt lat="45.7073" lon="2.56715">
        <ele>762</ele>
        <time>2025-05-06T10:12:42Z</time>
      </trkpt>
      <trkpt lat="45.70796" lon="2.56718">
        <ele>762</ele>
        <time>2025-05-06T10:13:34Z</time>
      </trkpt>
      <trkpt lat="45.70827" lon="2.56726">
        <ele>762</ele>
        <time>2025-05-06T10:14:00Z</time>
      </trkpt>
      <trkpt lat="45.70844" lon="2.56728">
        <ele>762</ele>
        <time>2025-05-06T10:14:13Z</time>
      </trkpt>
      <trkpt lat="45.70886" lon="2.56722">
        <ele>762</ele>
        <time>2025-05-06T10:14:47Z</time>
      </trkpt>
      <trkpt lat="45.70897" lon="2.56723">
        <ele>762</ele>
        <time>2025-05-06T10:14:56Z</time>
      </trkpt>
      <trkpt lat="45.71003" lon="2.56739">
        <ele>766</ele>
        <time>2025-05-06T10:16:21Z</time>
      </trkpt>
      <trkpt lat="45.71019" lon="2.56745">
        <ele>766</ele>
        <time>2025-05-06T10:16:34Z</time>
      </trkpt>
      <trkpt lat="45.71039" lon="2.56757">
        <ele>766</ele>
        <time>2025-05-06T10:16:52Z</time>
      </trkpt>
      <trkpt lat="45.71065" lon="2.56778">
        <ele>766</ele>
        <time>2025-05-06T10:17:16Z</time>
      </trkpt>
      <trkpt lat="45.71073" lon="2.56788">
        <ele>766</ele>
        <time>2025-05-06T10:17:24Z</time>
      </trkpt>
      <trkpt lat="45.71079" lon="2.56801">
        <ele>766</ele>
        <time>2025-05-06T10:17:33Z</time>
      </trkpt>
      <trkpt lat="45.71088" lon="2.56833">
        <ele>766</ele>
        <time>2025-05-06T10:17:52Z</time>
      </trkpt>
      <trkpt lat="45.71111" lon="2.56879">
        <ele>762</ele>
        <time>2025-05-06T10:18:24Z</time>
      </trkpt>
      <trkpt lat="45.71128" lon="2.56908">
        <ele>761</ele>
        <time>2025-05-06T10:18:45Z</time>
      </trkpt>
      <trkpt lat="45.7114" lon="2.5692">
        <ele>760</ele>
        <time>2025-05-06T10:18:57Z</time>
      </trkpt>
      <trkpt lat="45.7116" lon="2.56932">
        <ele>760</ele>
        <time>2025-05-06T10:19:14Z</time>
      </trkpt>
      <trkpt lat="45.71236" lon="2.56962">
        <ele>758</ele>
        <time>2025-05-06T10:20:17Z</time>
      </trkpt>
      <trkpt lat="45.71263" lon="2.56979">
        <ele>757</ele>
        <time>2025-05-06T10:20:41Z</time>
      </trkpt>
      <trkpt lat="45.71291" lon="2.57002">
        <ele>757</ele>
        <time>2025-05-06T10:21:07Z</time>
      </trkpt>
      <trkpt lat="45.7218" lon="2.57819">
        <ele>754</ele>
        <time>2025-05-06T10:35:12Z</time>
      </trkpt>
      <trkpt lat="45.72496" lon="2.58105">
        <ele>763</ele>
        <time>2025-05-06T10:40:12Z</time>
      </trkpt>
      <trkpt lat="45.72803" lon="2.58387">
        <ele>757</ele>
        <time>2025-05-06T10:45:04Z</time>
      </trkpt>
      <trkpt lat="45.72841" lon="2.58416">
        <ele>758</ele>
        <time>2025-05-06T10:45:38Z</time>
      </trkpt>
      <trkpt lat="45.72857" lon="2.58435">
        <ele>758</ele>
        <time>2025-05-06T10:45:55Z</time>
      </trkpt>
      <trkpt lat="45.72859" lon="2.58444">
        <ele>759</ele>
        <time>2025-05-06T10:46:00Z</time>
      </trkpt>
      <trkpt lat="45.72857" lon="2.58469">
        <ele>759</ele>
        <time>2025-05-06T10:46:14Z</time>
      </trkpt>
      <trkpt lat="45.72865" lon="2.58482">
        <ele>760</ele>
        <time>2025-05-06T10:46:24Z</time>
      </trkpt>
      <trkpt lat="45.72873" lon="2.58484">
        <ele>760</ele>
        <time>2025-05-06T10:46:30Z</time>
      </trkpt>
      <trkpt lat="45.72877" lon="2.58482">
        <ele>759</ele>
        <time>2025-05-06T10:46:34Z</time>
      </trkpt>
      <trkpt lat="45.72884" lon="2.58473">
        <ele>759</ele>
        <time>2025-05-06T10:46:41Z</time>
      </trkpt>
      <trkpt lat="45.72886" lon="2.58465">
        <ele>759</ele>
        <time>2025-05-06T10:46:46Z</time>
      </trkpt>
      <trkpt lat="45.72901" lon="2.58462">
        <ele>758</ele>
        <time>2025-05-06T10:46:58Z</time>
      </trkpt>
      <trkpt lat="45.72909" lon="2.58464">
        <ele>758</ele>
        <time>2025-05-06T10:47:05Z</time>
      </trkpt>
      <trkpt lat="45.72961" lon="2.585">
        <ele>758</ele>
        <time>2025-05-06T10:47:51Z</time>
      </trkpt>
      <trkpt lat="45.72992" lon="2.58514">
        <ele>759</ele>
        <time>2025-05-06T10:48:17Z</time>
      </trkpt>
      <trkpt lat="45.73025" lon="2.58516">
        <ele>758</ele>
        <time>2025-05-06T10:48:43Z</time>
      </trkpt>
      <trkpt lat="45.73133" lon="2.58509">
        <ele>753</ele>
        <time>2025-05-06T10:50:10Z</time>
      </trkpt>
      <trkpt lat="45.73171" lon="2.58501">
        <ele>751</ele>
        <time>2025-05-06T10:50:41Z</time>
      </trkpt>
      <trkpt lat="45.73196" lon="2.5849">
        <ele>751</ele>
        <time>2025-05-06T10:51:02Z</time>
      </trkpt>
      <trkpt lat="45.7323" lon="2.58469">
        <ele>752</ele>
        <time>2025-05-06T10:51:31Z</time>
      </trkpt>
      <trkpt lat="45.74202" lon="2.57743">
        <ele>737</ele>
        <time>2025-05-06T11:06:09Z</time>
      </trkpt>
      <trkpt lat="45.74274" lon="2.57691">
        <ele>737</ele>
        <time>2025-05-06T11:07:14Z</time>
      </trkpt>
      <trkpt lat="45.74299" lon="2.57677">
        <ele>736</ele>
        <time>2025-05-06T11:07:35Z</time>
      </trkpt>
      <trkpt lat="45.74325" lon="2.57668">
        <ele>735</ele>
        <time>2025-05-06T11:07:56Z</time>
      </trkpt>
      <trkpt lat="45.74352" lon="2.57664">
        <ele>736</ele>
        <time>2025-05-06T11:08:18Z</time>
      </trkpt>
      <trkpt lat="45.74375" lon="2.57665">
        <ele>737</ele>
        <time>2025-05-06T11:08:37Z</time>
      </trkpt>
      <trkpt lat="45.74397" lon="2.57669">
        <ele>738</ele>
        <time>2025-05-06T11:08:54Z</time>
      </trkpt>
      <trkpt lat="45.74423" lon="2.5768">
        <ele>739</ele>
        <time>2025-05-06T11:09:16Z</time>
      </trkpt>
      <trkpt lat="45.74466" lon="2.57706">
        <ele>741</ele>
        <time>2025-05-06T11:09:53Z</time>
      </trkpt>
      <trkpt lat="45.74483" lon="2.57713">
        <ele>742</ele>
        <time>2025-05-06T11:10:08Z</time>
      </trkpt>
      <trkpt lat="45.74499" lon="2.57715">
        <ele>743</ele>
        <time>2025-05-06T11:10:20Z</time>
      </trkpt>
      <trkpt lat="45.74518" lon="2.57713">
        <ele>744</ele>
        <time>2025-05-06T11:10:36Z</time>
      </trkpt>
      <trkpt lat="45.7454" lon="2.577">
        <ele>745</ele>
        <time>2025-05-06T11:10:55Z</time>
      </trkpt>
      <trkpt lat="45.74759" lon="2.57479">
        <ele>755</ele>
        <time>2025-05-06T11:14:29Z</time>
      </trkpt>
      <trkpt lat="45.74846" lon="2.57378">
        <ele>761</ele>
        <time>2025-05-06T11:15:59Z</time>
      </trkpt>
      <trkpt lat="45.74927" lon="2.57292">
        <ele>767</ele>
        <time>2025-05-06T11:17:20Z</time>
      </trkpt>
      <trkpt lat="45.74951" lon="2.57263">
        <ele>771</ele>
        <time>2025-05-06T11:17:45Z</time>
      </trkpt>
      <trkpt lat="45.75018" lon="2.57172">
        <ele>777</ele>
        <time>2025-05-06T11:18:59Z</time>
      </trkpt>
      <trkpt lat="45.75035" lon="2.57155">
        <ele>778</ele>
        <time>2025-05-06T11:19:15Z</time>
      </trkpt>
      <trkpt lat="45.75043" lon="2.5715">
        <ele>778</ele>
        <time>2025-05-06T11:19:22Z</time>
      </trkpt>
      <trkpt lat="45.75144" lon="2.5711">
        <ele>784</ele>
        <time>2025-05-06T11:20:46Z</time>
      </trkpt>
      <trkpt lat="45.75325" lon="2.57056">
        <ele>795</ele>
        <time>2025-05-06T11:23:14Z</time>
      </trkpt>
      <trkpt lat="45.75333" lon="2.5708">
        <ele>793</ele>
        <time>2025-05-06T11:23:29Z</time>
      </trkpt>
      <trkpt lat="45.75328" lon="2.5721">
        <ele>785</ele>
        <time>2025-05-06T11:24:42Z</time>
      </trkpt>
      <trkpt lat="45.75331" lon="2.57276">
        <ele>781</ele>
        <time>2025-05-06T11:25:19Z</time>
      </trkpt>
      <trkpt lat="45.75345" lon="2.57322">
        <ele>779</ele>
        <time>2025-05-06T11:25:47Z</time>
      </trkpt>
      <trkpt lat="45.75407" lon="2.57455">
        <ele>771</ele>
        <time>2025-05-06T11:27:16Z</time>
      </trkpt>
      <trkpt lat="45.75426" lon="2.57483">
        <ele>769</ele>
        <time>2025-05-06T11:27:38Z</time>
      </trkpt>
      <trkpt lat="45.75447" lon="2.57506">
        <ele>768</ele>
        <time>2025-05-06T11:27:59Z</time>
      </trkpt>
      <trkpt lat="45.75474" lon="2.57528">
        <ele>766</ele>
        <time>2025-05-06T11:28:24Z</time>
      </trkpt>
      <trkpt lat="45.75504" lon="2.57542">
        <ele>765</ele>
        <time>2025-05-06T11:28:49Z</time>
      </trkpt>
      <trkpt lat="45.75689" lon="2.57599">
        <ele>756</ele>
        <time>2025-05-06T11:31:21Z</time>
      </trkpt>
      <trkpt lat="45.7572" lon="2.57614">
        <ele>754</ele>
        <time>2025-05-06T11:31:47Z</time>
      </trkpt>
      <trkpt lat="45.75754" lon="2.57646">
        <ele>751</ele>
        <time>2025-05-06T11:32:19Z</time>
      </trkpt>
      <trkpt lat="45.75772" lon="2.57667">
        <ele>751</ele>
        <time>2025-05-06T11:32:38Z</time>
      </trkpt>
      <trkpt lat="45.75784" lon="2.57684">
        <ele>750</ele>
        <time>2025-05-06T11:32:52Z</time>
      </trkpt>
      <trkpt lat="45.76024" lon="2.58132">
        <ele>723</ele>
        <time>2025-05-06T11:38:07Z</time>
      </trkpt>
      <trkpt lat="45.76438" lon="2.58754">
        <ele>717</ele>
        <time>2025-05-06T11:46:07Z</time>
      </trkpt>
      <trkpt lat="45.76466" lon="2.58782">
        <ele>717</ele>
        <time>2025-05-06T11:46:35Z</time>
      </trkpt>
      <trkpt lat="45.76497" lon="2.58801">
        <ele>718</ele>
        <time>2025-05-06T11:47:02Z</time>
      </trkpt>
      <trkpt lat="45.76529" lon="2.58815">
        <ele>718</ele>
        <time>2025-05-06T11:47:28Z</time>
      </trkpt>
      <trkpt lat="45.7657" lon="2.58838">
        <ele>717</ele>
        <time>2025-05-06T11:48:04Z</time>
      </trkpt>
      <trkpt lat="45.76586" lon="2.5885">
        <ele>717</ele>
        <time>2025-05-06T11:48:18Z</time>
      </trkpt>
      <trkpt lat="45.76619" lon="2.58894">
        <ele>717</ele>
        <time>2025-05-06T11:48:54Z</time>
      </trkpt>
      <trkpt lat="45.76636" lon="2.58926">
        <ele>717</ele>
        <time>2025-05-06T11:49:17Z</time>
      </trkpt>
      <trkpt lat="45.76649" lon="2.58961">
        <ele>714</ele>
        <time>2025-05-06T11:49:39Z</time>
      </trkpt>
      <trkpt lat="45.76687" lon="2.59093">
        <ele>704</ele>
        <time>2025-05-06T11:50:59Z</time>
      </trkpt>
      <trkpt lat="45.76695" lon="2.59142">
        <ele>702</ele>
        <time>2025-05-06T11:51:27Z</time>
      </trkpt>
      <trkpt lat="45.76702" lon="2.59285">
        <ele>693</ele>
        <time>2025-05-06T11:52:47Z</time>
      </trkpt>
      <trkpt lat="45.76714" lon="2.59359">
        <ele>690</ele>
        <time>2025-05-06T11:53:29Z</time>
      </trkpt>
      <trkpt lat="45.76729" lon="2.59416">
        <ele>687</ele>
        <time>2025-05-06T11:54:03Z</time>
      </trkpt>
      <trkpt lat="45.76748" lon="2.59463">
        <ele>684</ele>
        <time>2025-05-06T11:54:34Z</time>
      </trkpt>
      <trkpt lat="45.76773" lon="2.59505">
        <ele>682</ele>
        <time>2025-05-06T11:55:04Z</time>
      </trkpt>
      <trkpt lat="45.76809" lon="2.59553">
        <ele>679</ele>
        <time>2025-05-06T11:55:44Z</time>
      </trkpt>
      <trkpt lat="45.76861" lon="2.59611">
        <ele>676</ele>
        <time>2025-05-06T11:56:37Z</time>
      </trkpt>
      <trkpt lat="45.76875" lon="2.59634">
        <ele>675</ele>
        <time>2025-05-06T11:56:54Z</time>
      </trkpt>
      <trkpt lat="45.76963" lon="2.59824">
        <ele>672</ele>
        <time>2025-05-06T11:59:01Z</time>
      </trkpt>
      <trkpt lat="45.76993" lon="2.59871">
        <ele>676</ele>
        <time>2025-05-06T11:59:37Z</time>
      </trkpt>
      <trkpt lat="45.77049" lon="2.59934">
        <ele>679</ele>
        <time>2025-05-06T12:00:34Z</time>
      </trkpt>
      <trkpt lat="45.77066" lon="2.59966">
        <ele>681</ele>
        <time>2025-05-06T12:00:56Z</time>
      </trkpt>
      <trkpt lat="45.77077" lon="2.59993">
        <ele>683</ele>
        <time>2025-05-06T12:01:13Z</time>
      </trkpt>
      <trkpt lat="45.77083" lon="2.60023">
        <ele>685</ele>
        <time>2025-05-06T12:01:31Z</time>
      </trkpt>
      <trkpt lat="45.77086" lon="2.60062">
        <ele>687</ele>
        <time>2025-05-06T12:01:53Z</time>
      </trkpt>
      <trkpt lat="45.77085" lon="2.60104">
        <ele>690</ele>
        <time>2025-05-06T12:02:16Z</time>
      </trkpt>
      <trkpt lat="45.77045" lon="2.60709">
        <ele>698</ele>
        <time>2025-05-06T12:07:56Z</time>
      </trkpt>
      <trkpt lat="45.76981" lon="2.61503">
        <ele>712</ele>
        <time>2025-05-06T12:15:22Z</time>
      </trkpt>
      <trkpt lat="45.76982" lon="2.6154">
        <ele>715</ele>
        <time>2025-05-06T12:15:43Z</time>
      </trkpt>
      <trkpt lat="45.76994" lon="2.61634">
        <ele>719</ele>
        <time>2025-05-06T12:16:36Z</time>
      </trkpt>
      <trkpt lat="45.7698" lon="2.61724">
        <ele>721</ele>
        <time>2025-05-06T12:17:28Z</time>
      </trkpt>
      <trkpt lat="45.76982" lon="2.61745">
        <ele>721</ele>
        <time>2025-05-06T12:17:39Z</time>
      </trkpt>
      <trkpt lat="45.76996" lon="2.61799">
        <ele>723</ele>
        <time>2025-05-06T12:18:12Z</time>
      </trkpt>
      <trkpt lat="45.77076" lon="2.61991">
        <ele>728</ele>
        <time>2025-05-06T12:20:17Z</time>
      </trkpt>
      <trkpt lat="45.77087" lon="2.61987">
        <ele>728</ele>
        <time>2025-05-06T12:20:26Z</time>
      </trkpt>
      <trkpt lat="45.77131" lon="2.61994">
        <ele>727</ele>
        <time>2025-05-06T12:21:01Z</time>
      </trkpt>
      <trkpt lat="45.77249" lon="2.62004">
        <ele>722</ele>
        <time>2025-05-06T12:22:36Z</time>
      </trkpt>
      <trkpt lat="45.77334" lon="2.61995">
        <ele>718</ele>
        <time>2025-05-06T12:23:44Z</time>
      </trkpt>
      <trkpt lat="45.77354" lon="2.62002">
        <ele>718</ele>
        <time>2025-05-06T12:24:00Z</time>
      </trkpt>
      <trkpt lat="45.77677" lon="2.62146">
        <ele>718</ele>
        <time>2025-05-06T12:28:31Z</time>
      </trkpt>
      <trkpt lat="45.77698" lon="2.62153">
        <ele>719</ele>
        <time>2025-05-06T12:28:49Z</time>
      </trkpt>
      <trkpt lat="45.77859" lon="2.62196">
        <ele>716</ele>
        <time>2025-05-06T12:31:00Z</time>
      </trkpt>
      <trkpt lat="45.7796" lon="2.62231">
        <ele>712</ele>
        <time>2025-05-06T12:32:23Z</time>
      </trkpt>
      <trkpt lat="45.77989" lon="2.62239">
        <ele>710</ele>
        <time>2025-05-06T12:32:47Z</time>
      </trkpt>
      <trkpt lat="45.78133" lon="2.62247">
        <ele>707</ele>
        <time>2025-05-06T12:34:42Z</time>
      </trkpt>
      <trkpt lat="45.78162" lon="2.6225">
        <ele>707</ele>
        <time>2025-05-06T12:35:05Z</time>
      </trkpt>
      <trkpt lat="45.78185" lon="2.62256">
        <ele>707</ele>
        <time>2025-05-06T12:35:24Z</time>
      </trkpt>
      <trkpt lat="45.7846" lon="2.62342">
        <ele>697</ele>
        <time>2025-05-06T12:39:09Z</time>
      </trkpt>
      <trkpt lat="45.78509" lon="2.62364">
        <ele>694</ele>
        <time>2025-05-06T12:39:50Z</time>
      </trkpt>
      <trkpt lat="45.78562" lon="2.62393">
        <ele>693</ele>
        <time>2025-05-06T12:40:36Z</time>
      </trkpt>
      <trkpt lat="45.78605" lon="2.62424">
        <ele>692</ele>
        <time>2025-05-06T12:41:14Z</time>
      </trkpt>
      <trkpt lat="45.78617" lon="2.62435">
        <ele>692</ele>
        <time>2025-05-06T12:41:26Z</time>
      </trkpt>
      <trkpt lat="45.78626" lon="2.6245">
        <ele>692</ele>
        <time>2025-05-06T12:41:37Z</time>
      </trkpt>
      <trkpt lat="45.78645" lon="2.62499">
        <ele>692</ele>
        <time>2025-05-06T12:42:08Z</time>
      </trkpt>
      <trkpt lat="45.78686" lon="2.6263">
        <ele>698</ele>
        <time>2025-05-06T12:43:28Z</time>
      </trkpt>
      <trkpt lat="45.78708" lon="2.62709">
        <ele>699</ele>
        <time>2025-05-06T12:44:16Z</time>
      </trkpt>
      <trkpt lat="45.78715" lon="2.62748">
        <ele>699</ele>
        <time>2025-05-06T12:44:38Z</time>
      </trkpt>
      <trkpt lat="45.78718" lon="2.62781">
        <ele>700</ele>
        <time>2025-05-06T12:44:57Z</time>
      </trkpt>
      <trkpt lat="45.78721" lon="2.63064">
        <ele>705</ele>
        <time>2025-05-06T12:47:35Z</time>
      </trkpt>
      <trkpt lat="45.78725" lon="2.63095">
        <ele>705</ele>
        <time>2025-05-06T12:47:52Z</time>
      </trkpt>
      <trkpt lat="45.78734" lon="2.63123">
        <ele>706</ele>
        <time>2025-05-06T12:48:10Z</time>
      </trkpt>
      <trkpt lat="45.78751" lon="2.63148">
        <ele>708</ele>
        <time>2025-05-06T12:48:29Z</time>
      </trkpt>
      <trkpt lat="45.78764" lon="2.63158">
        <ele>708</ele>
        <time>2025-05-06T12:48:41Z</time>
      </trkpt>
      <trkpt lat="45.78777" lon="2.63164">
        <ele>709</ele>
        <time>2025-05-06T12:48:52Z</time>
      </trkpt>
      <trkpt lat="45.78795" lon="2.63168">
        <ele>710</ele>
        <time>2025-05-06T12:49:06Z</time>
      </trkpt>
      <trkpt lat="45.7889" lon="2.6316">
        <ele>712</ele>
        <time>2025-05-06T12:50:23Z</time>
      </trkpt>
      <trkpt lat="45.78908" lon="2.63161">
        <ele>711</ele>
        <time>2025-05-06T12:50:37Z</time>
      </trkpt>
      <trkpt lat="45.78923" lon="2.63167">
        <ele>711</ele>
        <time>2025-05-06T12:50:50Z</time>
      </trkpt>
      <trkpt lat="45.79019" lon="2.63237">
        <ele>703</ele>
        <time>2025-05-06T12:52:16Z</time>
      </trkpt>
      <trkpt lat="45.79069" lon="2.6327">
        <ele>701</ele>
        <time>2025-05-06T12:53:00Z</time>
      </trkpt>
      <trkpt lat="45.79154" lon="2.63348">
        <ele>695</ele>
        <time>2025-05-06T12:54:21Z</time>
      </trkpt>
      <trkpt lat="45.79191" lon="2.63379">
        <ele>693</ele>
        <time>2025-05-06T12:54:55Z</time>
      </trkpt>
      <trkpt lat="45.79278" lon="2.63435">
        <ele>690</ele>
        <time>2025-05-06T12:56:11Z</time>
      </trkpt>
      <trkpt lat="45.79305" lon="2.63448">
        <ele>689</ele>
        <time>2025-05-06T12:56:34Z</time>
      </trkpt>
      <trkpt lat="45.79501" lon="2.63505">
        <ele>683</ele>
        <time>2025-05-06T12:59:14Z</time>
      </trkpt>
      <trkpt lat="45.79623" lon="2.63519">
        <ele>677</ele>
        <time>2025-05-06T13:00:52Z</time>
      </trkpt>
      <trkpt lat="45.79731" lon="2.63528">
        <ele>671</ele>
        <time>2025-05-06T13:02:19Z</time>
      </trkpt>
      <trkpt lat="45.79753" lon="2.63528">
        <ele>671</ele>
        <time>2025-05-06T13:02:36Z</time>
      </trkpt>
      <trkpt lat="45.79886" lon="2.63486">
        <ele>669</ele>
        <time>2025-05-06T13:04:26Z</time>
      </trkpt>
      <trkpt lat="45.79967" lon="2.63456">
        <ele>666</ele>
        <time>2025-05-06T13:05:33Z</time>
      </trkpt>
      <trkpt lat="45.80024" lon="2.63413">
        <ele>664</ele>
        <time>2025-05-06T13:06:24Z</time>
      </trkpt>
      <trkpt lat="45.80187" lon="2.63278">
        <ele>659</ele>
        <time>2025-05-06T13:08:55Z</time>
      </trkpt>
      <trkpt lat="45.80214" lon="2.63262">
        <ele>659</ele>
        <time>2025-05-06T13:09:18Z</time>
      </trkpt>
      <trkpt lat="45.80332" lon="2.63222">
        <ele>655</ele>
        <time>2025-05-06T13:10:55Z</time>
      </trkpt>
      <trkpt lat="45.80374" lon="2.63204">
        <ele>654</ele>
        <time>2025-05-06T13:11:30Z</time>
      </trkpt>
      <trkpt lat="45.80417" lon="2.6317">
        <ele>653</ele>
        <time>2025-05-06T13:12:10Z</time>
      </trkpt>
      <trkpt lat="45.80461" lon="2.63141">
        <ele>654</ele>
        <time>2025-05-06T13:12:48Z</time>
      </trkpt>
      <trkpt lat="45.80476" lon="2.63138">
        <ele>654</ele>
        <time>2025-05-06T13:13:01Z</time>
      </trkpt>
      <trkpt lat="45.80501" lon="2.63145">
        <ele>653</ele>
        <time>2025-05-06T13:13:21Z</time>
      </trkpt>
      <trkpt lat="45.80542" lon="2.63165">
        <ele>653</ele>
        <time>2025-05-06T13:13:56Z</time>
      </trkpt>
      <trkpt lat="45.80756" lon="2.63296">
        <ele>650</ele>
        <time>2025-05-06T13:17:02Z</time>
      </trkpt>
      <trkpt lat="45.80804" lon="2.63323">
        <ele>649</ele>
        <time>2025-05-06T13:17:43Z</time>
      </trkpt>
      <trkpt lat="45.80828" lon="2.63331">
        <ele>648</ele>
        <time>2025-05-06T13:18:03Z</time>
      </trkpt>
      <trkpt lat="45.80848" lon="2.63328">
        <ele>648</ele>
        <time>2025-05-06T13:18:19Z</time>
      </trkpt>
      <trkpt lat="45.80896" lon="2.63304">
        <ele>646</ele>
        <time>2025-05-06T13:19:00Z</time>
      </trkpt>
      <trkpt lat="45.80916" lon="2.63305">
        <ele>646</ele>
        <time>2025-05-06T13:19:16Z</time>
      </trkpt>
      <trkpt lat="45.80988" lon="2.63327">
        <ele>645</ele>
        <time>2025-05-06T13:20:15Z</time>
      </trkpt>
      <trkpt lat="45.81006" lon="2.63329">
        <ele>645</ele>
        <time>2025-05-06T13:20:29Z</time>
      </trkpt>
      <trkpt lat="45.81051" lon="2.63301">
        <ele>647</ele>
        <time>2025-05-06T13:21:08Z</time>
      </trkpt>
      <trkpt lat="45.81077" lon="2.63294">
        <ele>647</ele>
        <time>2025-05-06T13:21:30Z</time>
      </trkpt>
      <trkpt lat="45.81134" lon="2.63304">
        <ele>653</ele>
        <time>2025-05-06T13:22:16Z</time>
      </trkpt>
      <trkpt lat="45.81152" lon="2.63301">
        <ele>654</ele>
        <time>2025-05-06T13:22:30Z</time>
      </trkpt>
      <trkpt lat="45.8123" lon="2.63275">
        <ele>656</ele>
        <time>2025-05-06T13:23:34Z</time>
      </trkpt>
      <trkpt lat="45.81251" lon="2.63263">
        <ele>657</ele>
        <time>2025-05-06T13:23:52Z</time>
      </trkpt>
      <trkpt lat="45.81309" lon="2.63219">
        <ele>660</ele>
        <time>2025-05-06T13:24:45Z</time>
      </trkpt>
      <trkpt lat="45.81355" lon="2.63188">
        <ele>662</ele>
        <time>2025-05-06T13:25:26Z</time>
      </trkpt>
      <trkpt lat="45.81387" lon="2.63188">
        <ele>662</ele>
        <time>2025-05-06T13:25:51Z</time>
      </trkpt>
      <trkpt lat="45.8145" lon="2.63216">
        <ele>664</ele>
        <time>2025-05-06T13:26:44Z</time>
      </trkpt>
      <trkpt lat="45.81509" lon="2.63269">
        <ele>667</ele>
        <time>2025-05-06T13:27:40Z</time>
      </trkpt>
      <trkpt lat="45.81639" lon="2.63395">
        <ele>667</ele>
        <time>2025-05-06T13:29:45Z</time>
      </trkpt>
      <trkpt lat="45.81748" lon="2.63495">
        <ele>665</ele>
        <time>2025-05-06T13:31:29Z</time>
      </trkpt>
      <trkpt lat="45.81781" lon="2.63518">
        <ele>664</ele>
        <time>2025-05-06T13:31:58Z</time>
      </trkpt>
      <trkpt lat="45.81885" lon="2.63571">
        <ele>665</ele>
        <time>2025-05-06T13:33:27Z</time>
      </trkpt>
      <trkpt lat="45.81914" lon="2.63581">
        <ele>665</ele>
        <time>2025-05-06T13:33:51Z</time>
      </trkpt>
      <trkpt lat="45.81931" lon="2.63582">
        <ele>665</ele>
        <time>2025-05-06T13:34:04Z</time>
      </trkpt>
      <trkpt lat="45.81958" lon="2.63575">
        <ele>666</ele>
        <time>2025-05-06T13:34:26Z</time>
      </trkpt>
      <trkpt lat="45.81993" lon="2.63555">
        <ele>667</ele>
        <time>2025-05-06T13:34:56Z</time>
      </trkpt>
      <trkpt lat="45.82524" lon="2.63225">
        <ele>677</ele>
        <time>2025-05-06T13:42:40Z</time>
      </trkpt>
      <trkpt lat="45.82545" lon="2.63203">
        <ele>677</ele>
        <time>2025-05-06T13:43:00Z</time>
      </trkpt>
      <trkpt lat="45.82565" lon="2.63171">
        <ele>678</ele>
        <time>2025-05-06T13:43:24Z</time>
      </trkpt>
      <trkpt lat="45.82642" lon="2.63003">
        <ele>676</ele>
        <time>2025-05-06T13:45:17Z</time>
      </trkpt>
      <trkpt lat="45.82658" lon="2.62972">
        <ele>676</ele>
        <time>2025-05-06T13:45:38Z</time>
      </trkpt>
      <trkpt lat="45.82676" lon="2.62944">
        <ele>676</ele>
        <time>2025-05-06T13:45:59Z</time>
      </trkpt>
      <trkpt lat="45.82701" lon="2.62924">
        <ele>676</ele>
        <time>2025-05-06T13:46:22Z</time>
      </trkpt>
      <trkpt lat="45.82733" lon="2.6291">
        <ele>675</ele>
        <time>2025-05-06T13:46:49Z</time>
      </trkpt>
      <trkpt lat="45.82745" lon="2.62908">
        <ele>675</ele>
        <time>2025-05-06T13:46:59Z</time>
      </trkpt>
      <trkpt lat="45.82773" lon="2.62908">
        <ele>675</ele>
        <time>2025-05-06T13:47:21Z</time>
      </trkpt>
      <trkpt lat="45.82804" lon="2.62914">
        <ele>676</ele>
        <time>2025-05-06T13:47:46Z</time>
      </trkpt>
      <trkpt lat="45.82924" lon="2.62946">
        <ele>678</ele>
        <time>2025-05-06T13:49:24Z</time>
      </trkpt>
      <trkpt lat="45.82963" lon="2.62959">
        <ele>678</ele>
        <time>2025-05-06T13:49:56Z</time>
      </trkpt>
      <trkpt lat="45.83426" lon="2.63139">
        <ele>677</ele>
        <time>2025-05-06T13:56:20Z</time>
      </trkpt>
      <trkpt lat="45.83448" lon="2.63127">
        <ele>677</ele>
        <time>2025-05-06T13:56:39Z</time>
      </trkpt>
      <trkpt lat="45.83484" lon="2.63124">
        <ele>676</ele>
        <time>2025-05-06T13:57:08Z</time>
      </trkpt>
      <trkpt lat="45.83877" lon="2.6311">
        <ele>679</ele>
        <time>2025-05-06T14:02:23Z</time>
      </trkpt>
      <trkpt lat="45.83925" lon="2.63112">
        <ele>678</ele>
        <time>2025-05-06T14:03:01Z</time>
      </trkpt>
      <trkpt lat="45.83942" lon="2.63116">
        <ele>679</ele>
        <time>2025-05-06T14:03:15Z</time>
      </trkpt>
      <trkpt lat="45.83959" lon="2.63125">
        <ele>679</ele>
        <time>2025-05-06T14:03:29Z</time>
      </trkpt>
      <trkpt lat="45.83973" lon="2.63139">
        <ele>679</ele>
        <time>2025-05-06T14:03:43Z</time>
      </trkpt>
      <trkpt lat="45.8398" lon="2.63153">
        <ele>679</ele>
        <time>2025-05-06T14:03:53Z</time>
      </trkpt>
      <trkpt lat="45.83983" lon="2.63187">
        <ele>679</ele>
        <time>2025-05-06T14:04:12Z</time>
      </trkpt>
      <trkpt lat="45.83988" lon="2.63205">
        <ele>679</ele>
        <time>2025-05-06T14:04:23Z</time>
      </trkpt>
      <trkpt lat="45.84014" lon="2.63267">
        <ele>681</ele>
        <time>2025-05-06T14:05:03Z</time>
      </trkpt>
      <trkpt lat="45.84025" lon="2.63308">
        <ele>681</ele>
        <time>2025-05-06T14:05:27Z</time>
      </trkpt>
      <trkpt lat="45.84042" lon="2.63305">
        <ele>682</ele>
        <time>2025-05-06T14:05:41Z</time>
      </trkpt>
      <trkpt lat="45.84069" lon="2.63318">
        <ele>683</ele>
        <time>2025-05-06T14:06:04Z</time>
      </trkpt>
      <trkpt lat="45.84083" lon="2.63329">
        <ele>683</ele>
        <time>2025-05-06T14:06:17Z</time>
      </trkpt>
      <trkpt lat="45.84105" lon="2.63373">
        <ele>684</ele>
        <time>2025-05-06T14:06:47Z</time>
      </trkpt>
      <trkpt lat="45.84114" lon="2.63381">
        <ele>684</ele>
        <time>2025-05-06T14:06:55Z</time>
      </trkpt>
      <trkpt lat="45.84124" lon="2.63386">
        <ele>684</ele>
        <time>2025-05-06T14:07:04Z</time>
      </trkpt>
      <trkpt lat="45.8413" lon="2.6338">
        <ele>685</ele>
        <time>2025-05-06T14:07:10Z</time>
      </trkpt>
      <trkpt lat="45.84149" lon="2.6339">
        <ele>685</ele>
        <time>2025-05-06T14:07:26Z</time>
      </trkpt>
      <trkpt lat="45.84197" lon="2.63428">
        <ele>685</ele>
        <time>2025-05-06T14:08:10Z</time>
      </trkpt>
      <trkpt lat="45.84219" lon="2.63438">
        <ele>685</ele>
        <time>2025-05-06T14:08:28Z</time>
      </trkpt>
      <trkpt lat="45.84248" lon="2.63447">
        <ele>686</ele>
        <time>2025-05-06T14:08:52Z</time>
      </trkpt>
      <trkpt lat="45.8426" lon="2.63447">
        <ele>686</ele>
        <time>2025-05-06T14:09:02Z</time>
      </trkpt>
      <trkpt lat="45.84286" lon="2.63441">
        <ele>685</ele>
        <time>2025-05-06T14:09:23Z</time>
      </trkpt>
      <trkpt lat="45.84331" lon="2.63552">
        <ele>679</ele>
        <time>2025-05-06T14:10:34Z</time>
      </trkpt>
      <trkpt lat="45.84364" lon="2.63624">
        <ele>674</ele>
        <time>2025-05-06T14:11:22Z</time>
      </trkpt>
      <trkpt lat="45.84416" lon="2.63721">
        <ele>672</ele>
        <time>2025-05-06T14:12:31Z</time>
      </trkpt>
      <trkpt lat="45.84436" lon="2.63769">
        <ele>673</ele>
        <time>2025-05-06T14:13:02Z</time>
      </trkpt>
      <trkpt lat="45.84467" lon="2.63855">
        <ele>673</ele>
        <time>2025-05-06T14:13:56Z</time>
      </trkpt>
      <trkpt lat="45.84485" lon="2.63891">
        <ele>673</ele>
        <time>2025-05-06T14:14:21Z</time>
      </trkpt>
      <trkpt lat="45.84509" lon="2.63931">
        <ele>675</ele>
        <time>2025-05-06T14:14:50Z</time>
      </trkpt>
      <trkpt lat="45.84547" lon="2.63953">
        <ele>680</ele>
        <time>2025-05-06T14:15:23Z</time>
      </trkpt>
      <trkpt lat="45.84583" lon="2.63992">
        <ele>686</ele>
        <time>2025-05-06T14:15:59Z</time>
      </trkpt>
      <trkpt lat="45.84596" lon="2.64001">
        <ele>687</ele>
        <time>2025-05-06T14:16:11Z</time>
      </trkpt>
      <trkpt lat="45.84627" lon="2.6401">
        <ele>690</ele>
        <time>2025-05-06T14:16:36Z</time>
      </trkpt>
      <trkpt lat="45.84655" lon="2.64009">
        <ele>693</ele>
        <time>2025-05-06T14:16:58Z</time>
      </trkpt>
      <trkpt lat="45.84675" lon="2.64012">
        <ele>694</ele>
        <time>2025-05-06T14:17:14Z</time>
      </trkpt>
      <trkpt lat="45.84698" lon="2.64025">
        <ele>696</ele>
        <time>2025-05-06T14:17:34Z</time>
      </trkpt>
      <trkpt lat="45.84699" lon="2.64035">
        <ele>697</ele>
        <time>2025-05-06T14:17:40Z</time>
      </trkpt>
      <trkpt lat="45.8469" lon="2.64083">
        <ele>700</ele>
        <time>2025-05-06T14:18:08Z</time>
      </trkpt>
      <trkpt lat="45.84662" lon="2.64166">
        <ele>705</ele>
        <time>2025-05-06T14:18:59Z</time>
      </trkpt>
      <trkpt lat="45.84659" lon="2.64199">
        <ele>708</ele>
        <time>2025-05-06T14:19:18Z</time>
      </trkpt>
      <trkpt lat="45.84666" lon="2.6421">
        <ele>710</ele>
        <time>2025-05-06T14:19:26Z</time>
      </trkpt>
      <trkpt lat="45.84674" lon="2.64217">
        <ele>711</ele>
        <time>2025-05-06T14:19:33Z</time>
      </trkpt>
      <trkpt lat="45.84703" lon="2.64228">
        <ele>711</ele>
        <time>2025-05-06T14:19:57Z</time>
      </trkpt>
      <trkpt lat="45.84711" lon="2.64234">
        <ele>711</ele>
        <time>2025-05-06T14:20:05Z</time>
      </trkpt>
      <trkpt lat="45.84723" lon="2.64275">
        <ele>711</ele>
        <time>2025-05-06T14:20:29Z</time>
      </trkpt>
      <trkpt lat="45.84724" lon="2.64294">
        <ele>710</ele>
        <time>2025-05-06T14:20:40Z</time>
      </trkpt>
      <trkpt lat="45.84719" lon="2.64325">
        <ele>710</ele>
        <time>2025-05-06T14:20:58Z</time>
      </trkpt>
      <trkpt lat="45.84722" lon="2.64383">
        <ele>706</ele>
        <time>2025-05-06T14:21:30Z</time>
      </trkpt>
      <trkpt lat="45.84721" lon="2.64452">
        <ele>701</ele>
        <time>2025-05-06T14:22:09Z</time>
      </trkpt>
      <trkpt lat="45.84725" lon="2.64475">
        <ele>698</ele>
        <time>2025-05-06T14:22:22Z</time>
      </trkpt>
      <trkpt lat="45.84768" lon="2.64591">
        <ele>682</ele>
        <time>2025-05-06T14:23:35Z</time>
      </trkpt>
      <trkpt lat="45.84774" lon="2.64658">
        <ele>675</ele>
        <time>2025-05-06T14:24:13Z</time>
      </trkpt>
      <trkpt lat="45.8478" lon="2.64689">
        <ele>670</ele>
        <time>2025-05-06T14:24:31Z</time>
      </trkpt>
      <trkpt lat="45.84789" lon="2.64706">
        <ele>666</ele>
        <time>2025-05-06T14:24:43Z</time>
      </trkpt>
      <trkpt lat="45.84807" lon="2.64721">
        <ele>662</ele>
        <time>2025-05-06T14:24:59Z</time>
      </trkpt>
      <trkpt lat="45.84818" lon="2.64737">
        <ele>660</ele>
        <time>2025-05-06T14:25:12Z</time>
      </trkpt>
      <trkpt lat="45.84835" lon="2.64749">
        <ele>658</ele>
        <time>2025-05-06T14:25:27Z</time>
      </trkpt>
      <trkpt lat="45.84851" lon="2.64753">
        <ele>654</ele>
        <time>2025-05-06T14:25:40Z</time>
      </trkpt>
      <trkpt lat="45.8486" lon="2.6475">
        <ele>653</ele>
        <time>2025-05-06T14:25:47Z</time>
      </trkpt>
      <trkpt lat="45.84873" lon="2.64733">
        <ele>651</ele>
        <time>2025-05-06T14:26:02Z</time>
      </trkpt>
      <trkpt lat="45.8488" lon="2.64728">
        <ele>649</ele>
        <time>2025-05-06T14:26:08Z</time>
      </trkpt>
      <trkpt lat="45.84888" lon="2.64728">
        <ele>648</ele>
        <time>2025-05-06T14:26:14Z</time>
      </trkpt>
      <trkpt lat="45.84897" lon="2.64735">
        <ele>646</ele>
        <time>2025-05-06T14:26:22Z</time>
      </trkpt>
      <trkpt lat="45.84909" lon="2.6475">
        <ele>643</ele>
        <time>2025-05-06T14:26:35Z</time>
      </trkpt>
      <trkpt lat="45.84923" lon="2.64774">
        <ele>639</ele>
        <time>2025-05-06T14:26:53Z</time>
      </trkpt>
      <trkpt lat="45.84947" lon="2.64846">
        <ele>630</ele>
        <time>2025-05-06T14:27:37Z</time>
      </trkpt>
      <trkpt lat="45.8496" lon="2.64877">
        <ele>625</ele>
        <time>2025-05-06T14:27:57Z</time>
      </trkpt>
      <trkpt lat="45.8497" lon="2.64897">
        <ele>622</ele>
        <time>2025-05-06T14:28:11Z</time>
      </trkpt>
      <trkpt lat="45.84978" lon="2.64904">
        <ele>621</ele>
        <time>2025-05-06T14:28:19Z</time>
      </trkpt>
      <trkpt lat="45.85014" lon="2.64918">
        <ele>616</ele>
        <time>2025-05-06T14:28:48Z</time>
      </trkpt>
      <trkpt lat="45.85108" lon="2.64985">
        <ele>598</ele>
        <time>2025-05-06T14:30:12Z</time>
      </trkpt>
      <trkpt lat="45.8512" lon="2.64985">
        <ele>596</ele>
        <time>2025-05-06T14:30:22Z</time>
      </trkpt>
      <trkpt lat="45.85138" lon="2.6497">
        <ele>594</ele>
        <time>2025-05-06T14:30:39Z</time>
      </trkpt>
      <trkpt lat="45.85149" lon="2.64951">
        <ele>593</ele>
        <time>2025-05-06T14:30:53Z</time>
      </trkpt>
      <trkpt lat="45.85152" lon="2.64927">
        <ele>594</ele>
        <time>2025-05-06T14:31:06Z</time>
      </trkpt>
      <trkpt lat="45.85154" lon="2.64877">
        <ele>592</ele>
        <time>2025-05-06T14:31:34Z</time>
      </trkpt>
      <trkpt lat="45.8517" lon="2.64772">
        <ele>584</ele>
        <time>2025-05-06T14:32:34Z</time>
      </trkpt>
      <trkpt lat="45.85169" lon="2.64741">
        <ele>582</ele>
        <time>2025-05-06T14:32:51Z</time>
      </trkpt>
      <trkpt lat="45.85164" lon="2.64702">
        <ele>579</ele>
        <time>2025-05-06T14:33:13Z</time>
      </trkpt>
      <trkpt lat="45.85176" lon="2.64613">
        <ele>574</ele>
        <time>2025-05-06T14:34:04Z</time>
      </trkpt>
      <trkpt lat="45.85182" lon="2.64594">
        <ele>573</ele>
        <time>2025-05-06T14:34:16Z</time>
      </trkpt>
      <trkpt lat="45.85189" lon="2.64584">
        <ele>572</ele>
        <time>2025-05-06T14:34:23Z</time>
      </trkpt>
      <trkpt lat="45.85197" lon="2.6458">
        <ele>571</ele>
        <time>2025-05-06T14:34:30Z</time>
      </trkpt>
      <trkpt lat="45.8521" lon="2.64578">
        <ele>569</ele>
        <time>2025-05-06T14:34:41Z</time>
      </trkpt>
      <trkpt lat="45.85217" lon="2.64573">
        <ele>568</ele>
        <time>2025-05-06T14:34:47Z</time>
      </trkpt>
      <trkpt lat="45.85238" lon="2.64498">
        <ele>566</ele>
        <time>2025-05-06T14:35:32Z</time>
      </trkpt>
      <trkpt lat="45.85246" lon="2.64481">
        <ele>565</ele>
        <time>2025-05-06T14:35:44Z</time>
      </trkpt>
      <trkpt lat="45.85251" lon="2.64479">
        <ele>564</ele>
        <time>2025-05-06T14:35:48Z</time>
      </trkpt>
      <trkpt lat="45.85263" lon="2.64487">
        <ele>564</ele>
        <time>2025-05-06T14:35:58Z</time>
      </trkpt>
      <trkpt lat="45.85279" lon="2.64511">
        <ele>562</ele>
        <time>2025-05-06T14:36:17Z</time>
      </trkpt>
      <trkpt lat="45.85294" lon="2.64541">
        <ele>561</ele>
        <time>2025-05-06T14:36:37Z</time>
      </trkpt>
      <trkpt lat="45.85306" lon="2.64546">
        <ele>559</ele>
        <time>2025-05-06T14:36:47Z</time>
      </trkpt>
      <trkpt lat="45.85319" lon="2.64545">
        <ele>558</ele>
        <time>2025-05-06T14:36:58Z</time>
      </trkpt>
      <trkpt lat="45.85327" lon="2.64538">
        <ele>558</ele>
        <time>2025-05-06T14:37:05Z</time>
      </trkpt>
      <trkpt lat="45.85345" lon="2.64509">
        <ele>558</ele>
        <time>2025-05-06T14:37:27Z</time>
      </trkpt>
      <trkpt lat="45.85356" lon="2.64482">
        <ele>557</ele>
        <time>2025-05-06T14:37:44Z</time>
      </trkpt>
      <trkpt lat="45.85363" lon="2.64452">
        <ele>557</ele>
        <time>2025-05-06T14:38:02Z</time>
      </trkpt>
      <trkpt lat="45.85375" lon="2.64387">
        <ele>557</ele>
        <time>2025-05-06T14:38:40Z</time>
      </trkpt>
      <trkpt lat="45.85383" lon="2.64274">
        <ele>557</ele>
        <time>2025-05-06T14:39:43Z</time>
      </trkpt>
      <trkpt lat="45.85437" lon="2.64258">
        <ele>557</ele>
        <time>2025-05-06T14:40:27Z</time>
      </trkpt>
      <trkpt lat="45.85443" lon="2.64237">
        <ele>558</ele>
        <time>2025-05-06T14:40:40Z</time>
      </trkpt>
      <trkpt lat="45.85443" lon="2.64214">
        <ele>559</ele>
        <time>2025-05-06T14:40:53Z</time>
      </trkpt>
      <trkpt lat="45.85446" lon="2.64198">
        <ele>560</ele>
        <time>2025-05-06T14:41:02Z</time>
      </trkpt>
      <trkpt lat="45.85485" lon="2.64201">
        <ele>563</ele>
        <time>2025-05-06T14:41:33Z</time>
      </trkpt>
      <trkpt lat="45.85507" lon="2.64207">
        <ele>567</ele>
        <time>2025-05-06T14:41:51Z</time>
      </trkpt>
      <trkpt lat="45.85528" lon="2.64214">
        <ele>574</ele>
        <time>2025-05-06T14:42:08Z</time>
      </trkpt>
      <trkpt lat="45.85537" lon="2.64224">
        <ele>576</ele>
        <time>2025-05-06T14:42:17Z</time>
      </trkpt>
      <trkpt lat="45.85541" lon="2.64236">
        <ele>575</ele>
        <time>2025-05-06T14:42:25Z</time>
      </trkpt>
      <trkpt lat="45.85548" lon="2.6433">
        <ele>569</ele>
        <time>2025-05-06T14:43:18Z</time>
      </trkpt>
      <trkpt lat="45.85559" lon="2.64371">
        <ele>568</ele>
        <time>2025-05-06T14:43:42Z</time>
      </trkpt>
      <trkpt lat="45.85574" lon="2.64413">
        <ele>567</ele>
        <time>2025-05-06T14:44:08Z</time>
      </trkpt>
      <trkpt lat="45.85618" lon="2.64486">
        <ele>570</ele>
        <time>2025-05-06T14:45:02Z</time>
      </trkpt>
      <trkpt lat="45.85643" lon="2.64558">
        <ele>568</ele>
        <time>2025-05-06T14:45:47Z</time>
      </trkpt>
      <trkpt lat="45.8566" lon="2.64589">
        <ele>569</ele>
        <time>2025-05-06T14:46:09Z</time>
      </trkpt>
      <trkpt lat="45.85674" lon="2.64598">
        <ele>572</ele>
        <time>2025-05-06T14:46:21Z</time>
      </trkpt>
      <trkpt lat="45.85685" lon="2.64599">
        <ele>574</ele>
        <time>2025-05-06T14:46:30Z</time>
      </trkpt>
      <trkpt lat="45.85695" lon="2.64595">
        <ele>576</ele>
        <time>2025-05-06T14:46:38Z</time>
      </trkpt>
      <trkpt lat="45.85716" lon="2.64577">
        <ele>581</ele>
        <time>2025-05-06T14:46:58Z</time>
      </trkpt>
      <trkpt lat="45.8575" lon="2.64559">
        <ele>591</ele>
        <time>2025-05-06T14:47:27Z</time>
      </trkpt>
      <trkpt lat="45.85781" lon="2.64551">
        <ele>596</ele>
        <time>2025-05-06T14:47:52Z</time>
      </trkpt>
      <trkpt lat="45.85797" lon="2.6454">
        <ele>600</ele>
        <time>2025-05-06T14:48:06Z</time>
      </trkpt>
      <trkpt lat="45.85807" lon="2.64537">
        <ele>602</ele>
        <time>2025-05-06T14:48:15Z</time>
      </trkpt>
      <trkpt lat="45.85818" lon="2.64546">
        <ele>602</ele>
        <time>2025-05-06T14:48:25Z</time>
      </trkpt>
      <trkpt lat="45.85831" lon="2.64566">
        <ele>601</ele>
        <time>2025-05-06T14:48:40Z</time>
      </trkpt>
      <trkpt lat="45.85846" lon="2.6458">
        <ele>603</ele>
        <time>2025-05-06T14:48:54Z</time>
      </trkpt>
      <trkpt lat="45.85878" lon="2.64601">
        <ele>610</ele>
        <time>2025-05-06T14:49:23Z</time>
      </trkpt>
      <trkpt lat="45.85925" lon="2.64641">
        <ele>616</ele>
        <time>2025-05-06T14:50:06Z</time>
      </trkpt>
      <trkpt lat="45.85937" lon="2.64662">
        <ele>616</ele>
        <time>2025-05-06T14:50:21Z</time>
      </trkpt>
      <trkpt lat="45.85945" lon="2.64683">
        <ele>617</ele>
        <time>2025-05-06T14:50:35Z</time>
      </trkpt>
      <trkpt lat="45.85953" lon="2.64731">
        <ele>620</ele>
        <time>2025-05-06T14:51:02Z</time>
      </trkpt>
      <trkpt lat="45.8596" lon="2.64754">
        <ele>621</ele>
        <time>2025-05-06T14:51:16Z</time>
      </trkpt>
      <trkpt lat="45.8597" lon="2.64768">
        <ele>622</ele>
        <time>2025-05-06T14:51:27Z</time>
      </trkpt>
      <trkpt lat="45.85985" lon="2.64783">
        <ele>624</ele>
        <time>2025-05-06T14:51:42Z</time>
      </trkpt>
      <trkpt lat="45.85996" lon="2.64802">
        <ele>624</ele>
        <time>2025-05-06T14:51:56Z</time>
      </trkpt>
      <trkpt lat="45.86005" lon="2.64828">
        <ele>625</ele>
        <time>2025-05-06T14:52:12Z</time>
      </trkpt>
      <trkpt lat="45.8601" lon="2.64836">
        <ele>625</ele>
        <time>2025-05-06T14:52:18Z</time>
      </trkpt>
      <trkpt lat="45.86022" lon="2.64834">
        <ele>626</ele>
        <time>2025-05-06T14:52:28Z</time>
      </trkpt>
      <trkpt lat="45.86045" lon="2.64822">
        <ele>627</ele>
        <time>2025-05-06T14:52:47Z</time>
      </trkpt>
      <trkpt lat="45.8605" lon="2.64817">
        <ele>627</ele>
        <time>2025-05-06T14:52:52Z</time>
      </trkpt>
      <trkpt lat="45.86162" lon="2.65389">
        <ele>616</ele>
        <time>2025-05-06T14:58:24Z</time>
      </trkpt>
      <trkpt lat="45.86182" lon="2.65442">
        <ele>615</ele>
        <time>2025-05-06T14:58:57Z</time>
      </trkpt>
      <trkpt lat="45.86315" lon="2.65699">
        <ele>607</ele>
        <time>2025-05-06T15:01:56Z</time>
      </trkpt>
      <trkpt lat="45.86338" lon="2.65751">
        <ele>606</ele>
        <time>2025-05-06T15:02:30Z</time>
      </trkpt>
      <trkpt lat="45.86379" lon="2.65863">
        <ele>603</ele>
        <time>2025-05-06T15:03:41Z</time>
      </trkpt>
      <trkpt lat="45.86396" lon="2.65937">
        <ele>602</ele>
        <time>2025-05-06T15:04:24Z</time>
      </trkpt>
      <trkpt lat="45.86412" lon="2.66055">
        <ele>599</ele>
        <time>2025-05-06T15:05:31Z</time>
      </trkpt>
      <trkpt lat="45.86413" lon="2.66172">
        <ele>598</ele>
        <time>2025-05-06T15:06:36Z</time>
      </trkpt>
      <trkpt lat="45.86411" lon="2.6625">
        <ele>596</ele>
        <time>2025-05-06T15:07:20Z</time>
      </trkpt>
      <trkpt lat="45.86414" lon="2.66275">
        <ele>596</ele>
        <time>2025-05-06T15:07:34Z</time>
      </trkpt>
      <trkpt lat="45.86426" lon="2.66317">
        <ele>595</ele>
        <time>2025-05-06T15:07:59Z</time>
      </trkpt>
      <trkpt lat="45.86429" lon="2.66338">
        <ele>595</ele>
        <time>2025-05-06T15:08:11Z</time>
      </trkpt>
      <trkpt lat="45.86428" lon="2.66352">
        <ele>595</ele>
        <time>2025-05-06T15:08:19Z</time>
      </trkpt>
      <trkpt lat="45.86423" lon="2.66364">
        <ele>594</ele>
        <time>2025-05-06T15:08:27Z</time>
      </trkpt>
      <trkpt lat="45.86422" lon="2.6638">
        <ele>593</ele>
        <time>2025-05-06T15:08:36Z</time>
      </trkpt>
      <trkpt lat="45.86424" lon="2.6639">
        <ele>593</ele>
        <time>2025-05-06T15:08:42Z</time>
      </trkpt>
      <trkpt lat="45.86434" lon="2.66404">
        <ele>593</ele>
        <time>2025-05-06T15:08:53Z</time>
      </trkpt>
      <trkpt lat="45.86441" lon="2.66429">
        <ele>593</ele>
        <time>2025-05-06T15:09:08Z</time>
      </trkpt>
      <trkpt lat="45.8644" lon="2.66448">
        <ele>592</ele>
        <time>2025-05-06T15:09:18Z</time>
      </trkpt>
      <trkpt lat="45.86419" lon="2.66529">
        <ele>588</ele>
        <time>2025-05-06T15:10:07Z</time>
      </trkpt>
      <trkpt lat="45.86416" lon="2.66576">
        <ele>584</ele>
        <time>2025-05-06T15:10:33Z</time>
      </trkpt>
      <trkpt lat="45.8642" lon="2.66603">
        <ele>583</ele>
        <time>2025-05-06T15:10:48Z</time>
      </trkpt>
      <trkpt lat="45.86463" lon="2.66781">
        <ele>573</ele>
        <time>2025-05-06T15:12:33Z</time>
      </trkpt>
      <trkpt lat="45.86486" lon="2.66842">
        <ele>569</ele>
        <time>2025-05-06T15:13:12Z</time>
      </trkpt>
      <trkpt lat="45.86501" lon="2.66868">
        <ele>567</ele>
        <time>2025-05-06T15:13:31Z</time>
      </trkpt>
      <trkpt lat="45.86541" lon="2.66916">
        <ele>567</ele>
        <time>2025-05-06T15:14:13Z</time>
      </trkpt>
      <trkpt lat="45.86591" lon="2.66967">
        <ele>564</ele>
        <time>2025-05-06T15:15:02Z</time>
      </trkpt>
      <trkpt lat="45.86651" lon="2.67019">
        <ele>562</ele>
        <time>2025-05-06T15:15:58Z</time>
      </trkpt>
      <trkpt lat="45.86762" lon="2.67154">
        <ele>552</ele>
        <time>2025-05-06T15:17:54Z</time>
      </trkpt>
      <trkpt lat="45.86807" lon="2.67202">
        <ele>549</ele>
        <time>2025-05-06T15:18:39Z</time>
      </trkpt>
      <trkpt lat="45.86863" lon="2.67253">
        <ele>543</ele>
        <time>2025-05-06T15:19:32Z</time>
      </trkpt>
      <trkpt lat="45.86871" lon="2.67269">
        <ele>541</ele>
        <time>2025-05-06T15:19:43Z</time>
      </trkpt>
      <trkpt lat="45.86871" lon="2.67289">
        <ele>539</ele>
        <time>2025-05-06T15:19:54Z</time>
      </trkpt>
      <trkpt lat="45.86904" lon="2.67298">
        <ele>538</ele>
        <time>2025-05-06T15:20:21Z</time>
      </trkpt>
      <trkpt lat="45.86936" lon="2.67313">
        <ele>536</ele>
        <time>2025-05-06T15:20:48Z</time>
      </trkpt>
      <trkpt lat="45.87046" lon="2.67379">
        <ele>537</ele>
        <time>2025-05-06T15:22:24Z</time>
      </trkpt>
      <trkpt lat="45.87064" lon="2.67385">
        <ele>538</ele>
        <time>2025-05-06T15:22:39Z</time>
      </trkpt>
      <trkpt lat="45.87085" lon="2.67387">
        <ele>539</ele>
        <time>2025-05-06T15:22:55Z</time>
      </trkpt>
      <trkpt lat="45.87099" lon="2.67393">
        <ele>542</ele>
        <time>2025-05-06T15:23:07Z</time>
      </trkpt>
      <trkpt lat="45.87109" lon="2.67404">
        <ele>544</ele>
        <time>2025-05-06T15:23:17Z</time>
      </trkpt>
      <trkpt lat="45.87162" lon="2.67512">
        <ele>545</ele>
        <time>2025-05-06T15:24:31Z</time>
      </trkpt>
      <trkpt lat="45.87182" lon="2.67544">
        <ele>546</ele>
        <time>2025-05-06T15:24:55Z</time>
      </trkpt>
      <trkpt lat="45.87195" lon="2.67555">
        <ele>548</ele>
        <time>2025-05-06T15:25:07Z</time>
      </trkpt>
      <trkpt lat="45.87235" lon="2.67577">
        <ele>552</ele>
        <time>2025-05-06T15:25:41Z</time>
      </trkpt>
      <trkpt lat="45.87275" lon="2.67593">
        <ele>552</ele>
        <time>2025-05-06T15:26:14Z</time>
      </trkpt>
      <trkpt lat="45.87289" lon="2.67595">
        <ele>552</ele>
        <time>2025-05-06T15:26:26Z</time>
      </trkpt>
      <trkpt lat="45.87298" lon="2.67593">
        <ele>552</ele>
        <time>2025-05-06T15:26:33Z</time>
      </trkpt>
      <trkpt lat="45.87306" lon="2.67588">
        <ele>553</ele>
        <time>2025-05-06T15:26:40Z</time>
      </trkpt>
      <trkpt lat="45.87366" lon="2.67481">
        <ele>562</ele>
        <time>2025-05-06T15:27:57Z</time>
      </trkpt>
      <trkpt lat="45.87386" lon="2.67469">
        <ele>562</ele>
        <time>2025-05-06T15:28:14Z</time>
      </trkpt>
      <trkpt lat="45.87396" lon="2.67469">
        <ele>562</ele>
        <time>2025-05-06T15:28:22Z</time>
      </trkpt>
      <trkpt lat="45.8741" lon="2.67476">
        <ele>561</ele>
        <time>2025-05-06T15:28:34Z</time>
      </trkpt>
      <trkpt lat="45.87417" lon="2.67482">
        <ele>561</ele>
        <time>2025-05-06T15:28:40Z</time>
      </trkpt>
      <trkpt lat="45.8743" lon="2.67504">
        <ele>565</ele>
        <time>2025-05-06T15:28:56Z</time>
      </trkpt>
      <trkpt lat="45.87435" lon="2.67523">
        <ele>567</ele>
        <time>2025-05-06T15:29:08Z</time>
      </trkpt>
      <trkpt lat="45.8743" lon="2.67628">
        <ele>564</ele>
        <time>2025-05-06T15:30:06Z</time>
      </trkpt>
      <trkpt lat="45.87434" lon="2.6765">
        <ele>565</ele>
        <time>2025-05-06T15:30:19Z</time>
      </trkpt>
      <trkpt lat="45.87443" lon="2.67668">
        <ele>567</ele>
        <time>2025-05-06T15:30:31Z</time>
      </trkpt>
      <trkpt lat="45.87455" lon="2.67683">
        <ele>569</ele>
        <time>2025-05-06T15:30:44Z</time>
      </trkpt>
      <trkpt lat="45.87482" lon="2.67706">
        <ele>573</ele>
        <time>2025-05-06T15:31:09Z</time>
      </trkpt>
      <trkpt lat="45.87556" lon="2.67749">
        <ele>579</ele>
        <time>2025-05-06T15:32:13Z</time>
      </trkpt>
      <trkpt lat="45.87589" lon="2.67765">
        <ele>581</ele>
        <time>2025-05-06T15:32:41Z</time>
      </trkpt>
      <trkpt lat="45.87645" lon="2.67786">
        <ele>584</ele>
        <time>2025-05-06T15:33:27Z</time>
      </trkpt>
      <trkpt lat="45.87708" lon="2.67814">
        <ele>586</ele>
        <time>2025-05-06T15:34:20Z</time>
      </trkpt>
      <trkpt lat="45.87728" lon="2.6783">
        <ele>587</ele>
        <time>2025-05-06T15:34:39Z</time>
      </trkpt>
      <trkpt lat="45.87746" lon="2.67851">
        <ele>587</ele>
        <time>2025-05-06T15:34:57Z</time>
      </trkpt>
      <trkpt lat="45.87772" lon="2.67888">
        <ele>587</ele>
        <time>2025-05-06T15:35:26Z</time>
      </trkpt>
      <trkpt lat="45.87796" lon="2.67912">
        <ele>589</ele>
        <time>2025-05-06T15:35:50Z</time>
      </trkpt>
      <trkpt lat="45.87878" lon="2.67983">
        <ele>592</ele>
        <time>2025-05-06T15:37:06Z</time>
      </trkpt>
      <trkpt lat="45.87933" lon="2.68014">
        <ele>594</ele>
        <time>2025-05-06T15:37:54Z</time>
      </trkpt>
      <trkpt lat="45.87957" lon="2.68029">
        <ele>594</ele>
        <time>2025-05-06T15:38:15Z</time>
      </trkpt>
      <trkpt lat="45.87985" lon="2.68051">
        <ele>595</ele>
        <time>2025-05-06T15:38:40Z</time>
      </trkpt>
      <trkpt lat="45.88057" lon="2.6809">
        <ele>598</ele>
        <time>2025-05-06T15:39:42Z</time>
      </trkpt>
      <trkpt lat="45.88066" lon="2.68098">
        <ele>599</ele>
        <time>2025-05-06T15:39:50Z</time>
      </trkpt>
      <trkpt lat="45.88084" lon="2.68116">
        <ele>600</ele>
        <time>2025-05-06T15:40:08Z</time>
      </trkpt>
      <trkpt lat="45.88136" lon="2.68186">
        <ele>605</ele>
        <time>2025-05-06T15:41:05Z</time>
      </trkpt>
      <trkpt lat="45.88178" lon="2.68234">
        <ele>609</ele>
        <time>2025-05-06T15:41:48Z</time>
      </trkpt>
      <trkpt lat="45.88856" lon="2.68546">
        <ele>616</ele>
        <time>2025-05-06T15:51:18Z</time>
      </trkpt>
      <trkpt lat="45.89053" lon="2.68639">
        <ele>607</ele>
        <time>2025-05-06T15:54:04Z</time>
      </trkpt>
      <trkpt lat="45.89188" lon="2.68699">
        <ele>602</ele>
        <time>2025-05-06T15:55:57Z</time>
      </trkpt>
      <trkpt lat="45.89279" lon="2.68761">
        <ele>600</ele>
        <time>2025-05-06T15:57:18Z</time>
      </trkpt>
      <trkpt lat="45.89343" lon="2.68809">
        <ele>598</ele>
        <time>2025-05-06T15:58:16Z</time>
      </trkpt>
      <trkpt lat="45.89436" lon="2.68874">
        <ele>595</ele>
        <time>2025-05-06T15:59:38Z</time>
      </trkpt>
      <trkpt lat="45.89588" lon="2.68946">
        <ele>593</ele>
        <time>2025-05-06T16:01:47Z</time>
      </trkpt>
      <trkpt lat="45.89764" lon="2.69039">
        <ele>591</ele>
        <time>2025-05-06T16:04:17Z</time>
      </trkpt>
      <trkpt lat="45.89803" lon="2.69066">
        <ele>587</ele>
        <time>2025-05-06T16:04:51Z</time>
      </trkpt>
      <trkpt lat="45.89833" lon="2.69095">
        <ele>585</ele>
        <time>2025-05-06T16:05:20Z</time>
      </trkpt>
      <trkpt lat="45.8995" lon="2.6922">
        <ele>579</ele>
        <time>2025-05-06T16:07:17Z</time>
      </trkpt>
      <trkpt lat="45.90182" lon="2.69471">
        <ele>578</ele>
        <time>2025-05-06T16:11:10Z</time>
      </trkpt>
      <trkpt lat="45.90278" lon="2.6959">
        <ele>577</ele>
        <time>2025-05-06T16:12:51Z</time>
      </trkpt>
      <trkpt lat="45.90362" lon="2.69732">
        <ele>574</ele>
        <time>2025-05-06T16:14:35Z</time>
      </trkpt>
      <trkpt lat="45.90377" lon="2.69751">
        <ele>574</ele>
        <time>2025-05-06T16:14:51Z</time>
      </trkpt>
      <trkpt lat="45.90461" lon="2.69816">
        <ele>573</ele>
        <time>2025-05-06T16:16:07Z</time>
      </trkpt>
      <trkpt lat="45.90478" lon="2.69835">
        <ele>572</ele>
        <time>2025-05-06T16:16:25Z</time>
      </trkpt>
      <trkpt lat="45.90493" lon="2.69869">
        <ele>569</ele>
        <time>2025-05-06T16:16:47Z</time>
      </trkpt>
      <trkpt lat="45.90536" lon="2.69999">
        <ele>558</ele>
        <time>2025-05-06T16:18:07Z</time>
      </trkpt>
      <trkpt lat="45.9058" lon="2.70091">
        <ele>550</ele>
        <time>2025-05-06T16:19:09Z</time>
      </trkpt>
      <trkpt lat="45.9059" lon="2.70103">
        <ele>548</ele>
        <time>2025-05-06T16:19:20Z</time>
      </trkpt>
      <trkpt lat="45.90605" lon="2.70113">
        <ele>546</ele>
        <time>2025-05-06T16:19:33Z</time>
      </trkpt>
      <trkpt lat="45.90742" lon="2.70184">
        <ele>536</ele>
        <time>2025-05-06T16:21:30Z</time>
      </trkpt>
      <trkpt lat="45.90777" lon="2.70196">
        <ele>533</ele>
        <time>2025-05-06T16:21:59Z</time>
      </trkpt>
      <trkpt lat="45.90835" lon="2.70207">
        <ele>530</ele>
        <time>2025-05-06T16:22:45Z</time>
      </trkpt>
      <trkpt lat="45.90848" lon="2.70207">
        <ele>530</ele>
        <time>2025-05-06T16:22:56Z</time>
      </trkpt>
      <trkpt lat="45.90859" lon="2.70205">
        <ele>529</ele>
        <time>2025-05-06T16:23:05Z</time>
      </trkpt>
      <trkpt lat="45.90873" lon="2.70198">
        <ele>528</ele>
        <time>2025-05-06T16:23:17Z</time>
      </trkpt>
      <trkpt lat="45.90894" lon="2.70179">
        <ele>527</ele>
        <time>2025-05-06T16:23:36Z</time>
      </trkpt>
      <trkpt lat="45.90925" lon="2.70219">
        <ele>524</ele>
        <time>2025-05-06T16:24:10Z</time>
      </trkpt>
      <trkpt lat="45.90929" lon="2.70236">
        <ele>523</ele>
        <time>2025-05-06T16:24:20Z</time>
      </trkpt>
      <trkpt lat="45.90928" lon="2.70256">
        <ele>523</ele>
        <time>2025-05-06T16:24:31Z</time>
      </trkpt>
      <trkpt lat="45.90921" lon="2.70272">
        <ele>523</ele>
        <time>2025-05-06T16:24:41Z</time>
      </trkpt>
      <trkpt lat="45.90717" lon="2.70614">
        <ele>521</ele>
        <time>2025-05-06T16:28:52Z</time>
      </trkpt>
      <trkpt lat="45.90694" lon="2.70655">
        <ele>526</ele>
        <time>2025-05-06T16:29:22Z</time>
      </trkpt>
      <trkpt lat="45.90689" lon="2.70674">
        <ele>529</ele>
        <time>2025-05-06T16:29:33Z</time>
      </trkpt>
      <trkpt lat="45.90687" lon="2.707">
        <ele>533</ele>
        <time>2025-05-06T16:29:48Z</time>
      </trkpt>
      <trkpt lat="45.90692" lon="2.7072">
        <ele>535</ele>
        <time>2025-05-06T16:29:59Z</time>
      </trkpt>
      <trkpt lat="45.90702" lon="2.70739">
        <ele>537</ele>
        <time>2025-05-06T16:30:13Z</time>
      </trkpt>
      <trkpt lat="45.90721" lon="2.70759">
        <ele>538</ele>
        <time>2025-05-06T16:30:32Z</time>
      </trkpt>
      <trkpt lat="45.90789" lon="2.70816">
        <ele>540</ele>
        <time>2025-05-06T16:31:35Z</time>
      </trkpt>
      <trkpt lat="45.90797" lon="2.70828">
        <ele>540</ele>
        <time>2025-05-06T16:31:44Z</time>
      </trkpt>
      <trkpt lat="45.90805" lon="2.70845">
        <ele>542</ele>
        <time>2025-05-06T16:31:55Z</time>
      </trkpt>
      <trkpt lat="45.90811" lon="2.70867">
        <ele>543</ele>
        <time>2025-05-06T16:32:08Z</time>
      </trkpt>
      <trkpt lat="45.90813" lon="2.70928">
        <ele>548</ele>
        <time>2025-05-06T16:32:43Z</time>
      </trkpt>
      <trkpt lat="45.9081" lon="2.70963">
        <ele>549</ele>
        <time>2025-05-06T16:33:02Z</time>
      </trkpt>
      <trkpt lat="45.90802" lon="2.70991">
        <ele>551</ele>
        <time>2025-05-06T16:33:19Z</time>
      </trkpt>
      <trkpt lat="45.90782" lon="2.71039">
        <ele>555</ele>
        <time>2025-05-06T16:33:50Z</time>
      </trkpt>
      <trkpt lat="45.90769" lon="2.71064">
        <ele>558</ele>
        <time>2025-05-06T16:34:08Z</time>
      </trkpt>
      <trkpt lat="45.90748" lon="2.71089">
        <ele>561</ele>
        <time>2025-05-06T16:34:29Z</time>
      </trkpt>
      <trkpt lat="45.90709" lon="2.71116">
        <ele>566</ele>
        <time>2025-05-06T16:35:04Z</time>
      </trkpt>
      <trkpt lat="45.90694" lon="2.71132">
        <ele>568</ele>
        <time>2025-05-06T16:35:19Z</time>
      </trkpt>
      <trkpt lat="45.90676" lon="2.71169">
        <ele>571</ele>
        <time>2025-05-06T16:35:44Z</time>
      </trkpt>
      <trkpt lat="45.90666" lon="2.7122">
        <ele>573</ele>
        <time>2025-05-06T16:36:14Z</time>
      </trkpt>
      <trkpt lat="45.90653" lon="2.71428">
        <ele>582</ele>
        <time>2025-05-06T16:38:10Z</time>
      </trkpt>
      <trkpt lat="45.90657" lon="2.71454">
        <ele>584</ele>
        <time>2025-05-06T16:38:25Z</time>
      </trkpt>
      <trkpt lat="45.90759" lon="2.7178">
        <ele>603</ele>
        <time>2025-05-06T16:41:44Z</time>
      </trkpt>
      <trkpt lat="45.90769" lon="2.71798">
        <ele>605</ele>
        <time>2025-05-06T16:41:57Z</time>
      </trkpt>
      <trkpt lat="45.90788" lon="2.71815">
        <ele>606</ele>
        <time>2025-05-06T16:42:15Z</time>
      </trkpt>
      <trkpt lat="45.90926" lon="2.71892">
        <ele>610</ele>
        <time>2025-05-06T16:44:13Z</time>
      </trkpt>
      <trkpt lat="45.90944" lon="2.71919">
        <ele>611</ele>
        <time>2025-05-06T16:44:34Z</time>
      </trkpt>
      <trkpt lat="45.90986" lon="2.72033">
        <ele>618</ele>
        <time>2025-05-06T16:45:46Z</time>
      </trkpt>
      <trkpt lat="45.90991" lon="2.7206">
        <ele>619</ele>
        <time>2025-05-06T16:46:02Z</time>
      </trkpt>
      <trkpt lat="45.90995" lon="2.72106">
        <ele>621</ele>
        <time>2025-05-06T16:46:27Z</time>
      </trkpt>
      <trkpt lat="45.90999" lon="2.72122">
        <ele>621</ele>
        <time>2025-05-06T16:46:37Z</time>
      </trkpt>
      <trkpt lat="45.91035" lon="2.72179">
        <ele>619</ele>
        <time>2025-05-06T16:47:20Z</time>
      </trkpt>
      <trkpt lat="45.91041" lon="2.72199">
        <ele>620</ele>
        <time>2025-05-06T16:47:32Z</time>
      </trkpt>
      <trkpt lat="45.91046" lon="2.72239">
        <ele>625</ele>
        <time>2025-05-06T16:47:55Z</time>
      </trkpt>
      <trkpt lat="45.91125" lon="2.7258">
        <ele>643</ele>
        <time>2025-05-06T16:51:15Z</time>
      </trkpt>
      <trkpt lat="45.91138" lon="2.72615">
        <ele>644</ele>
        <time>2025-05-06T16:51:37Z</time>
      </trkpt>
      <trkpt lat="45.91259" lon="2.72843">
        <ele>645</ele>
        <time>2025-05-06T16:54:17Z</time>
      </trkpt>
      <trkpt lat="45.91275" lon="2.72864">
        <ele>645</ele>
        <time>2025-05-06T16:54:34Z</time>
      </trkpt>
      <trkpt lat="45.91289" lon="2.72878">
        <ele>645</ele>
        <time>2025-05-06T16:54:48Z</time>
      </trkpt>
      <trkpt lat="45.9145" lon="2.72938">
        <ele>648</ele>
        <time>2025-05-06T16:57:01Z</time>
      </trkpt>
      <trkpt lat="45.91462" lon="2.72947">
        <ele>647</ele>
        <time>2025-05-06T16:57:12Z</time>
      </trkpt>
      <trkpt lat="45.91641" lon="2.73274">
        <ele>643</ele>
        <time>2025-05-06T17:01:03Z</time>
      </trkpt>
      <trkpt lat="45.9165" lon="2.73286">
        <ele>643</ele>
        <time>2025-05-06T17:01:13Z</time>
      </trkpt>
      <trkpt lat="45.91662" lon="2.73295">
        <ele>642</ele>
        <time>2025-05-06T17:01:24Z</time>
      </trkpt>
      <trkpt lat="45.91685" lon="2.73295">
        <ele>641</ele>
        <time>2025-05-06T17:01:42Z</time>
      </trkpt>
      <trkpt lat="45.91843" lon="2.73261">
        <ele>643</ele>
        <time>2025-05-06T17:03:50Z</time>
      </trkpt>
      <trkpt lat="45.91858" lon="2.73263">
        <ele>644</ele>
        <time>2025-05-06T17:04:02Z</time>
      </trkpt>
      <trkpt lat="45.91869" lon="2.7327">
        <ele>645</ele>
        <time>2025-05-06T17:04:12Z</time>
      </trkpt>
      <trkpt lat="45.91889" lon="2.73293">
        <ele>646</ele>
        <time>2025-05-06T17:04:33Z</time>
      </trkpt>
      <trkpt lat="45.91947" lon="2.73395">
        <ele>649</ele>
        <time>2025-05-06T17:05:46Z</time>
      </trkpt>
      <trkpt lat="45.91955" lon="2.73432">
        <ele>649</ele>
        <time>2025-05-06T17:06:08Z</time>
      </trkpt>
      <trkpt lat="45.91953" lon="2.7345">
        <ele>649</ele>
        <time>2025-05-06T17:06:18Z</time>
      </trkpt>
      <trkpt lat="45.9193" lon="2.73511">
        <ele>646</ele>
        <time>2025-05-06T17:06:56Z</time>
      </trkpt>
      <trkpt lat="45.91926" lon="2.73544">
        <ele>647</ele>
        <time>2025-05-06T17:07:15Z</time>
      </trkpt>
      <trkpt lat="45.91954" lon="2.73734">
        <ele>652</ele>
        <time>2025-05-06T17:09:03Z</time>
      </trkpt>
      <trkpt lat="45.9196" lon="2.73763">
        <ele>651</ele>
        <time>2025-05-06T17:09:20Z</time>
      </trkpt>
      <trkpt lat="45.91973" lon="2.73793">
        <ele>652</ele>
        <time>2025-05-06T17:09:40Z</time>
      </trkpt>
      <trkpt lat="45.92097" lon="2.74041">
        <ele>653</ele>
        <time>2025-05-06T17:12:30Z</time>
      </trkpt>
      <trkpt lat="45.92105" lon="2.74064">
        <ele>653</ele>
        <time>2025-05-06T17:12:44Z</time>
      </trkpt>
      <trkpt lat="45.92106" lon="2.74092">
        <ele>653</ele>
        <time>2025-05-06T17:13:00Z</time>
      </trkpt>
      <trkpt lat="45.921" lon="2.74187">
        <ele>652</ele>
        <time>2025-05-06T17:13:53Z</time>
      </trkpt>
      <trkpt lat="45.92101" lon="2.7422">
        <ele>650</ele>
        <time>2025-05-06T17:14:11Z</time>
      </trkpt>
      <trkpt lat="45.92116" lon="2.74306">
        <ele>648</ele>
        <time>2025-05-06T17:15:01Z</time>
      </trkpt>
      <trkpt lat="45.92116" lon="2.74323">
        <ele>647</ele>
        <time>2025-05-06T17:15:10Z</time>
      </trkpt>
      <trkpt lat="45.92115" lon="2.74336">
        <ele>647</ele>
        <time>2025-05-06T17:15:17Z</time>
      </trkpt>
      <trkpt lat="45.92106" lon="2.74361">
        <ele>645</ele>
        <time>2025-05-06T17:15:33Z</time>
      </trkpt>
      <trkpt lat="45.92081" lon="2.74414">
        <ele>643</ele>
        <time>2025-05-06T17:16:09Z</time>
      </trkpt>
      <trkpt lat="45.92075" lon="2.74437">
        <ele>643</ele>
        <time>2025-05-06T17:16:22Z</time>
      </trkpt>
      <trkpt lat="45.92073" lon="2.74486">
        <ele>645</ele>
        <time>2025-05-06T17:16:50Z</time>
      </trkpt>
      <trkpt lat="45.92069" lon="2.74504">
        <ele>645</ele>
        <time>2025-05-06T17:17:00Z</time>
      </trkpt>
      <trkpt lat="45.92058" lon="2.74524">
        <ele>644</ele>
        <time>2025-05-06T17:17:15Z</time>
      </trkpt>
      <trkpt lat="45.91961" lon="2.74631">
        <ele>643</ele>
        <time>2025-05-06T17:18:52Z</time>
      </trkpt>
      <trkpt lat="45.91949" lon="2.74653">
        <ele>644</ele>
        <time>2025-05-06T17:19:08Z</time>
      </trkpt>
      <trkpt lat="45.91942" lon="2.74675">
        <ele>645</ele>
        <time>2025-05-06T17:19:21Z</time>
      </trkpt>
      <trkpt lat="45.91932" lon="2.7474">
        <ele>647</ele>
        <time>2025-05-06T17:19:59Z</time>
      </trkpt>
      <trkpt lat="45.91923" lon="2.74774">
        <ele>649</ele>
        <time>2025-05-06T17:20:19Z</time>
      </trkpt>
      <trkpt lat="45.91917" lon="2.7479">
        <ele>651</ele>
        <time>2025-05-06T17:20:29Z</time>
      </trkpt>
      <trkpt lat="45.91896" lon="2.74828">
        <ele>651</ele>
        <time>2025-05-06T17:20:56Z</time>
      </trkpt>
      <trkpt lat="45.9185" lon="2.74925">
        <ele>650</ele>
        <time>2025-05-06T17:22:01Z</time>
      </trkpt>
      <trkpt lat="45.9184" lon="2.74954">
        <ele>649</ele>
        <time>2025-05-06T17:22:19Z</time>
      </trkpt>
      <trkpt lat="45.91834" lon="2.74993">
        <ele>650</ele>
        <time>2025-05-06T17:22:42Z</time>
      </trkpt>
      <trkpt lat="45.91836" lon="2.75026">
        <ele>649</ele>
        <time>2025-05-06T17:23:00Z</time>
      </trkpt>
      <trkpt lat="45.91844" lon="2.7507">
        <ele>649</ele>
        <time>2025-05-06T17:23:25Z</time>
      </trkpt>
      <trkpt lat="45.91938" lon="2.75316">
        <ele>653</ele>
        <time>2025-05-06T17:26:02Z</time>
      </trkpt>
      <trkpt lat="45.91949" lon="2.7534">
        <ele>653</ele>
        <time>2025-05-06T17:26:18Z</time>
      </trkpt>
      <trkpt lat="45.91962" lon="2.7536">
        <ele>653</ele>
        <time>2025-05-06T17:26:33Z</time>
      </trkpt>
      <trkpt lat="45.91982" lon="2.75383">
        <ele>653</ele>
        <time>2025-05-06T17:26:54Z</time>
      </trkpt>
      <trkpt lat="45.92101" lon="2.75506">
        <ele>654</ele>
        <time>2025-05-06T17:28:51Z</time>
      </trkpt>
      <trkpt lat="45.92114" lon="2.75531">
        <ele>654</ele>
        <time>2025-05-06T17:29:08Z</time>
      </trkpt>
      <trkpt lat="45.92118" lon="2.75547">
        <ele>654</ele>
        <time>2025-05-06T17:29:18Z</time>
      </trkpt>
      <trkpt lat="45.92119" lon="2.75565">
        <ele>653</ele>
        <time>2025-05-06T17:29:28Z</time>
      </trkpt>
      <trkpt lat="45.92117" lon="2.75581">
        <ele>652</ele>
        <time>2025-05-06T17:29:37Z</time>
      </trkpt>
      <trkpt lat="45.92111" lon="2.75593">
        <ele>652</ele>
        <time>2025-05-06T17:29:45Z</time>
      </trkpt>
      <trkpt lat="45.92103" lon="2.75601">
        <ele>652</ele>
        <time>2025-05-06T17:29:53Z</time>
      </trkpt>
      <trkpt lat="45.92072" lon="2.75613">
        <ele>649</ele>
        <time>2025-05-06T17:30:19Z</time>
      </trkpt>
      <trkpt lat="45.92042" lon="2.75618">
        <ele>645</ele>
        <time>2025-05-06T17:30:43Z</time>
      </trkpt>
      <trkpt lat="45.92025" lon="2.75626">
        <ele>643</ele>
        <time>2025-05-06T17:30:57Z</time>
      </trkpt>
      <trkpt lat="45.9201" lon="2.75643">
        <ele>642</ele>
        <time>2025-05-06T17:31:12Z</time>
      </trkpt>
      <trkpt lat="45.91994" lon="2.75694">
        <ele>639</ele>
        <time>2025-05-06T17:31:44Z</time>
      </trkpt>
      <trkpt lat="45.91991" lon="2.75711">
        <ele>637</ele>
        <time>2025-05-06T17:31:53Z</time>
      </trkpt>
      <trkpt lat="45.91993" lon="2.75742">
        <ele>637</ele>
        <time>2025-05-06T17:32:11Z</time>
      </trkpt>
      <trkpt lat="45.91999" lon="2.75756">
        <ele>638</ele>
        <time>2025-05-06T17:32:20Z</time>
      </trkpt>
      <trkpt lat="45.92015" lon="2.75779">
        <ele>637</ele>
        <time>2025-05-06T17:32:38Z</time>
      </trkpt>
      <trkpt lat="45.92062" lon="2.75843">
        <ele>634</ele>
        <time>2025-05-06T17:33:30Z</time>
      </trkpt>
      <trkpt lat="45.92083" lon="2.75863">
        <ele>632</ele>
        <time>2025-05-06T17:33:50Z</time>
      </trkpt>
      <trkpt lat="45.92133" lon="2.759">
        <ele>632</ele>
        <time>2025-05-06T17:34:35Z</time>
      </trkpt>
      <trkpt lat="45.92161" lon="2.75929">
        <ele>634</ele>
        <time>2025-05-06T17:35:03Z</time>
      </trkpt>
      <trkpt lat="45.92167" lon="2.75941">
        <ele>634</ele>
        <time>2025-05-06T17:35:11Z</time>
      </trkpt>
      <trkpt lat="45.92172" lon="2.7596">
        <ele>632</ele>
        <time>2025-05-06T17:35:22Z</time>
      </trkpt>
      <trkpt lat="45.92172" lon="2.7597">
        <ele>630</ele>
        <time>2025-05-06T17:35:28Z</time>
      </trkpt>
      <trkpt lat="45.92167" lon="2.75992">
        <ele>626</ele>
        <time>2025-05-06T17:35:41Z</time>
      </trkpt>
      <trkpt lat="45.92153" lon="2.76005">
        <ele>622</ele>
        <time>2025-05-06T17:35:54Z</time>
      </trkpt>
      <trkpt lat="45.9212" lon="2.76023">
        <ele>614</ele>
        <time>2025-05-06T17:36:22Z</time>
      </trkpt>
      <trkpt lat="45.92104" lon="2.76037">
        <ele>611</ele>
        <time>2025-05-06T17:36:37Z</time>
      </trkpt>
      <trkpt lat="45.92061" lon="2.76093">
        <ele>605</ele>
        <time>2025-05-06T17:37:24Z</time>
      </trkpt>
      <trkpt lat="45.92054" lon="2.76117">
        <ele>604</ele>
        <time>2025-05-06T17:37:38Z</time>
      </trkpt>
      <trkpt lat="45.92053" lon="2.76132">
        <ele>604</ele>
        <time>2025-05-06T17:37:47Z</time>
      </trkpt>
      <trkpt lat="45.92077" lon="2.76317">
        <ele>596</ele>
        <time>2025-05-06T17:39:31Z</time>
      </trkpt>
      <trkpt lat="45.92076" lon="2.76416">
        <ele>584</ele>
        <time>2025-05-06T17:40:27Z</time>
      </trkpt>
      <trkpt lat="45.92078" lon="2.76445">
        <ele>581</ele>
        <time>2025-05-06T17:40:43Z</time>
      </trkpt>
      <trkpt lat="45.92092" lon="2.76502">
        <ele>579</ele>
        <time>2025-05-06T17:41:16Z</time>
      </trkpt>
      <trkpt lat="45.92116" lon="2.76571">
        <ele>574</ele>
        <time>2025-05-06T17:41:59Z</time>
      </trkpt>
      <trkpt lat="45.92127" lon="2.76595">
        <ele>571</ele>
        <time>2025-05-06T17:42:15Z</time>
      </trkpt>
      <trkpt lat="45.92138" lon="2.76612">
        <ele>570</ele>
        <time>2025-05-06T17:42:28Z</time>
      </trkpt>
      <trkpt lat="45.92155" lon="2.7663">
        <ele>570</ele>
        <time>2025-05-06T17:42:45Z</time>
      </trkpt>
      <trkpt lat="45.92169" lon="2.76636">
        <ele>572</ele>
        <time>2025-05-06T17:42:57Z</time>
      </trkpt>
      <trkpt lat="45.92305" lon="2.76671">
        <ele>570</ele>
        <time>2025-05-06T17:44:48Z</time>
      </trkpt>
      <trkpt lat="45.92321" lon="2.76677">
        <ele>568</ele>
        <time>2025-05-06T17:45:01Z</time>
      </trkpt>
      <trkpt lat="45.92371" lon="2.76716">
        <ele>556</ele>
        <time>2025-05-06T17:45:46Z</time>
      </trkpt>
      <trkpt lat="45.92383" lon="2.76723">
        <ele>553</ele>
        <time>2025-05-06T17:45:57Z</time>
      </trkpt>
      <trkpt lat="45.92394" lon="2.76725">
        <ele>553</ele>
        <time>2025-05-06T17:46:06Z</time>
      </trkpt>
      <trkpt lat="45.92417" lon="2.7672">
        <ele>556</ele>
        <time>2025-05-06T17:46:24Z</time>
      </trkpt>
      <trkpt lat="45.92428" lon="2.76721">
        <ele>557</ele>
        <time>2025-05-06T17:46:33Z</time>
      </trkpt>
      <trkpt lat="45.92439" lon="2.76727">
        <ele>556</ele>
        <time>2025-05-06T17:46:42Z</time>
      </trkpt>
      <trkpt lat="45.92476" lon="2.76763">
        <ele>546</ele>
        <time>2025-05-06T17:47:18Z</time>
      </trkpt>
      <trkpt lat="45.92508" lon="2.76772">
        <ele>546</ele>
        <time>2025-05-06T17:47:44Z</time>
      </trkpt>
      <trkpt lat="45.92526" lon="2.76784">
        <ele>544</ele>
        <time>2025-05-06T17:48:00Z</time>
      </trkpt>
      <trkpt lat="45.92549" lon="2.76811">
        <ele>539</ele>
        <time>2025-05-06T17:48:24Z</time>
      </trkpt>
      <trkpt lat="45.92577" lon="2.76837">
        <ele>534</ele>
        <time>2025-05-06T17:48:51Z</time>
      </trkpt>
      <trkpt lat="45.92595" lon="2.76847">
        <ele>533</ele>
        <time>2025-05-06T17:49:06Z</time>
      </trkpt>
      <trkpt lat="45.92645" lon="2.76866">
        <ele>531</ele>
        <time>2025-05-06T17:49:48Z</time>
      </trkpt>
      <trkpt lat="45.92679" lon="2.7689">
        <ele>524</ele>
        <time>2025-05-06T17:50:18Z</time>
      </trkpt>
      <trkpt lat="45.92691" lon="2.76894">
        <ele>522</ele>
        <time>2025-05-06T17:50:28Z</time>
      </trkpt>
      <trkpt lat="45.92702" lon="2.76894">
        <ele>521</ele>
        <time>2025-05-06T17:50:37Z</time>
      </trkpt>
      <trkpt lat="45.92751" lon="2.76888">
        <ele>519</ele>
        <time>2025-05-06T17:51:16Z</time>
      </trkpt>
      <trkpt lat="45.9278" lon="2.76879">
        <ele>518</ele>
        <time>2025-05-06T17:51:40Z</time>
      </trkpt>
      <trkpt lat="45.92781" lon="2.76885">
        <ele>517</ele>
        <time>2025-05-06T17:51:43Z</time>
      </trkpt>
      <trkpt lat="45.92798" lon="2.76913">
        <ele>512</ele>
        <time>2025-05-06T17:52:04Z</time>
      </trkpt>
      <trkpt lat="45.92799" lon="2.76932">
        <ele>510</ele>
        <time>2025-05-06T17:52:14Z</time>
      </trkpt>
      <trkpt lat="45.92802" lon="2.76938">
        <ele>510</ele>
        <time>2025-05-06T17:52:19Z</time>
      </trkpt>
      <trkpt lat="45.92822" lon="2.7717">
        <ele>514</ele>
        <time>2025-05-06T17:54:29Z</time>
      </trkpt>
      <trkpt lat="45.92821" lon="2.77186">
        <ele>519</ele>
        <time>2025-05-06T17:54:38Z</time>
      </trkpt>
      <trkpt lat="45.92817" lon="2.77195">
        <ele>521</ele>
        <time>2025-05-06T17:54:44Z</time>
      </trkpt>
      <trkpt lat="45.9281" lon="2.77201">
        <ele>522</ele>
        <time>2025-05-06T17:54:50Z</time>
      </trkpt>
      <trkpt lat="45.9276" lon="2.77212">
        <ele>514</ele>
        <time>2025-05-06T17:55:31Z</time>
      </trkpt>
      <trkpt lat="45.92737" lon="2.77224">
        <ele>512</ele>
        <time>2025-05-06T17:55:50Z</time>
      </trkpt>
      <trkpt lat="45.92724" lon="2.77238">
        <ele>512</ele>
        <time>2025-05-06T17:56:03Z</time>
      </trkpt>
      <trkpt lat="45.92719" lon="2.7725">
        <ele>512</ele>
        <time>2025-05-06T17:56:11Z</time>
      </trkpt>
      <trkpt lat="45.92718" lon="2.77261">
        <ele>513</ele>
        <time>2025-05-06T17:56:17Z</time>
      </trkpt>
      <trkpt lat="45.9272" lon="2.77291">
        <ele>515</ele>
        <time>2025-05-06T17:56:34Z</time>
      </trkpt>
      <trkpt lat="45.92724" lon="2.77312">
        <ele>518</ele>
        <time>2025-05-06T17:56:46Z</time>
      </trkpt>
      <trkpt lat="45.92721" lon="2.77344">
        <ele>519</ele>
        <time>2025-05-06T17:57:04Z</time>
      </trkpt>
      <trkpt lat="45.92711" lon="2.77395">
        <ele>519</ele>
        <time>2025-05-06T17:57:34Z</time>
      </trkpt>
      <trkpt lat="45.92711" lon="2.7743">
        <ele>519</ele>
        <time>2025-05-06T17:57:53Z</time>
      </trkpt>
      <trkpt lat="45.9272" lon="2.77469">
        <ele>520</ele>
        <time>2025-05-06T17:58:16Z</time>
      </trkpt>
      <trkpt lat="45.92747" lon="2.77528">
        <ele>519</ele>
        <time>2025-05-06T17:58:55Z</time>
      </trkpt>
      <trkpt lat="45.92751" lon="2.77542">
        <ele>518</ele>
        <time>2025-05-06T17:59:04Z</time>
      </trkpt>
      <trkpt lat="45.92753" lon="2.77565">
        <ele>517</ele>
        <time>2025-05-06T17:59:17Z</time>
      </trkpt>
      <trkpt lat="45.9275" lon="2.77579">
        <ele>515</ele>
        <time>2025-05-06T17:59:25Z</time>
      </trkpt>
      <trkpt lat="45.92738" lon="2.77598">
        <ele>520</ele>
        <time>2025-05-06T17:59:39Z</time>
      </trkpt>
      <trkpt lat="45.92731" lon="2.77602">
        <ele>522</ele>
        <time>2025-05-06T17:59:45Z</time>
      </trkpt>
      <trkpt lat="45.92723" lon="2.77605">
        <ele>525</ele>
        <time>2025-05-06T17:59:52Z</time>
      </trkpt>
      <trkpt lat="45.92705" lon="2.77601">
        <ele>528</ele>
        <time>2025-05-06T18:00:06Z</time>
      </trkpt>
      <trkpt lat="45.92694" lon="2.77592">
        <ele>528</ele>
        <time>2025-05-06T18:00:17Z</time>
      </trkpt>
      <trkpt lat="45.92686" lon="2.77581">
        <ele>527</ele>
        <time>2025-05-06T18:00:25Z</time>
      </trkpt>
      <trkpt lat="45.92665" lon="2.77544">
        <ele>523</ele>
        <time>2025-05-06T18:00:52Z</time>
      </trkpt>
      <trkpt lat="45.92629" lon="2.7749">
        <ele>514</ele>
        <time>2025-05-06T18:01:34Z</time>
      </trkpt>
      <trkpt lat="45.92619" lon="2.77485">
        <ele>514</ele>
        <time>2025-05-06T18:01:42Z</time>
      </trkpt>
      <trkpt lat="45.92611" lon="2.77485">
        <ele>514</ele>
        <time>2025-05-06T18:01:49Z</time>
      </trkpt>
      <trkpt lat="45.92602" lon="2.77488">
        <ele>514</ele>
        <time>2025-05-06T18:01:56Z</time>
      </trkpt>
      <trkpt lat="45.92475" lon="2.77601">
        <ele>524</ele>
        <time>2025-05-06T18:03:55Z</time>
      </trkpt>
      <trkpt lat="45.9246" lon="2.77626">
        <ele>523</ele>
        <time>2025-05-06T18:04:14Z</time>
      </trkpt>
      <trkpt lat="45.92455" lon="2.77657">
        <ele>525</ele>
        <time>2025-05-06T18:04:32Z</time>
      </trkpt>
      <trkpt lat="45.92467" lon="2.77735">
        <ele>536</ele>
        <time>2025-05-06T18:05:16Z</time>
      </trkpt>
      <trkpt lat="45.92465" lon="2.77784">
        <ele>542</ele>
        <time>2025-05-06T18:05:43Z</time>
      </trkpt>
      <trkpt lat="45.92457" lon="2.77806">
        <ele>542</ele>
        <time>2025-05-06T18:05:57Z</time>
      </trkpt>
      <trkpt lat="45.92431" lon="2.77861">
        <ele>540</ele>
        <time>2025-05-06T18:06:34Z</time>
      </trkpt>
      <trkpt lat="45.92364" lon="2.78037">
        <ele>543</ele>
        <time>2025-05-06T18:08:26Z</time>
      </trkpt>
      <trkpt lat="45.92355" lon="2.78067">
        <ele>542</ele>
        <time>2025-05-06T18:08:44Z</time>
      </trkpt>
      <trkpt lat="45.92351" lon="2.78095">
        <ele>543</ele>
        <time>2025-05-06T18:09:00Z</time>
      </trkpt>
      <trkpt lat="45.92351" lon="2.78123">
        <ele>545</ele>
        <time>2025-05-06T18:09:16Z</time>
      </trkpt>
      <trkpt lat="45.92353" lon="2.78156">
        <ele>548</ele>
        <time>2025-05-06T18:09:34Z</time>
      </trkpt>
      <trkpt lat="45.92361" lon="2.78201">
        <ele>554</ele>
        <time>2025-05-06T18:10:00Z</time>
      </trkpt>
      <trkpt lat="45.92361" lon="2.78318">
        <ele>557</ele>
        <time>2025-05-06T18:11:05Z</time>
      </trkpt>
      <trkpt lat="45.92366" lon="2.78365">
        <ele>559</ele>
        <time>2025-05-06T18:11:32Z</time>
      </trkpt>
      <trkpt lat="45.92388" lon="2.78461">
        <ele>564</ele>
        <time>2025-05-06T18:12:28Z</time>
      </trkpt>
      <trkpt lat="45.92397" lon="2.78491">
        <ele>566</ele>
        <time>2025-05-06T18:12:46Z</time>
      </trkpt>
      <trkpt lat="45.92421" lon="2.78552">
        <ele>565</ele>
        <time>2025-05-06T18:13:25Z</time>
      </trkpt>
      <trkpt lat="45.92439" lon="2.78574">
        <ele>569</ele>
        <time>2025-05-06T18:13:44Z</time>
      </trkpt>
      <trkpt lat="45.92473" lon="2.78597">
        <ele>581</ele>
        <time>2025-05-06T18:14:14Z</time>
      </trkpt>
      <trkpt lat="45.92484" lon="2.78609">
        <ele>583</ele>
        <time>2025-05-06T18:14:25Z</time>
      </trkpt>
      <trkpt lat="45.92493" lon="2.7863">
        <ele>583</ele>
        <time>2025-05-06T18:14:39Z</time>
      </trkpt>
      <trkpt lat="45.92503" lon="2.78668">
        <ele>580</ele>
        <time>2025-05-06T18:15:02Z</time>
      </trkpt>
      <trkpt lat="45.92519" lon="2.78749">
        <ele>585</ele>
        <time>2025-05-06T18:15:49Z</time>
      </trkpt>
      <trkpt lat="45.92525" lon="2.78793">
        <ele>590</ele>
        <time>2025-05-06T18:16:14Z</time>
      </trkpt>
      <trkpt lat="45.92516" lon="2.7891">
        <ele>595</ele>
        <time>2025-05-06T18:17:19Z</time>
      </trkpt>
      <trkpt lat="45.92512" lon="2.78925">
        <ele>596</ele>
        <time>2025-05-06T18:17:28Z</time>
      </trkpt>
      <trkpt lat="45.92495" lon="2.78963">
        <ele>597</ele>
        <time>2025-05-06T18:17:53Z</time>
      </trkpt>
      <trkpt lat="45.92482" lon="2.7901">
        <ele>605</ele>
        <time>2025-05-06T18:18:21Z</time>
      </trkpt>
      <trkpt lat="45.92469" lon="2.79033">
        <ele>608</ele>
        <time>2025-05-06T18:18:38Z</time>
      </trkpt>
      <trkpt lat="45.92462" lon="2.79039">
        <ele>607</ele>
        <time>2025-05-06T18:18:44Z</time>
      </trkpt>
      <trkpt lat="45.92435" lon="2.79053">
        <ele>602</ele>
        <time>2025-05-06T18:19:07Z</time>
      </trkpt>
      <trkpt lat="45.92415" lon="2.7907">
        <ele>600</ele>
        <time>2025-05-06T18:19:26Z</time>
      </trkpt>
      <trkpt lat="45.92363" lon="2.79127">
        <ele>606</ele>
        <time>2025-05-06T18:20:18Z</time>
      </trkpt>
      <trkpt lat="45.92318" lon="2.79158">
        <ele>603</ele>
        <time>2025-05-06T18:20:58Z</time>
      </trkpt>
      <trkpt lat="45.92308" lon="2.79178">
        <ele>601</ele>
        <time>2025-05-06T18:21:12Z</time>
      </trkpt>
      <trkpt lat="45.92307" lon="2.79188">
        <ele>599</ele>
        <time>2025-05-06T18:21:18Z</time>
      </trkpt>
      <trkpt lat="45.9231" lon="2.79209">
        <ele>598</ele>
        <time>2025-05-06T18:21:30Z</time>
      </trkpt>
      <trkpt lat="45.92317" lon="2.79221">
        <ele>600</ele>
        <time>2025-05-06T18:21:38Z</time>
      </trkpt>
      <trkpt lat="45.9237" lon="2.79274">
        <ele>617</ele>
        <time>2025-05-06T18:22:30Z</time>
      </trkpt>
      <trkpt lat="45.92382" lon="2.7929">
        <ele>621</ele>
        <time>2025-05-06T18:22:43Z</time>
      </trkpt>
      <trkpt lat="45.92384" lon="2.79314">
        <ele>620</ele>
        <time>2025-05-06T18:22:57Z</time>
      </trkpt>
      <trkpt lat="45.9237" lon="2.79356">
        <ele>614</ele>
        <time>2025-05-06T18:23:23Z</time>
      </trkpt>
      <trkpt lat="45.92367" lon="2.7938">
        <ele>614</ele>
        <time>2025-05-06T18:23:36Z</time>
      </trkpt>
      <trkpt lat="45.92372" lon="2.79433">
        <ele>620</ele>
        <time>2025-05-06T18:24:06Z</time>
      </trkpt>
      <trkpt lat="45.92382" lon="2.7946">
        <ele>626</ele>
        <time>2025-05-06T18:24:23Z</time>
      </trkpt>
      <trkpt lat="45.9242" lon="2.79514">
        <ele>636</ele>
        <time>2025-05-06T18:25:06Z</time>
      </trkpt>
      <trkpt lat="45.92423" lon="2.79525">
        <ele>638</ele>
        <time>2025-05-06T18:25:12Z</time>
      </trkpt>
      <trkpt lat="45.92421" lon="2.79546">
        <ele>639</ele>
        <time>2025-05-06T18:25:24Z</time>
      </trkpt>
      <trkpt lat="45.92415" lon="2.79554">
        <ele>638</ele>
        <time>2025-05-06T18:25:31Z</time>
      </trkpt>
      <trkpt lat="45.92407" lon="2.79559">
        <ele>638</ele>
        <time>2025-05-06T18:25:38Z</time>
      </trkpt>
      <trkpt lat="45.92399" lon="2.79559">
        <ele>638</ele>
        <time>2025-05-06T18:25:44Z</time>
      </trkpt>
      <trkpt lat="45.92382" lon="2.7955">
        <ele>636</ele>
        <time>2025-05-06T18:25:59Z</time>
      </trkpt>
      <trkpt lat="45.92366" lon="2.79548">
        <ele>634</ele>
        <time>2025-05-06T18:26:11Z</time>
      </trkpt>
      <trkpt lat="45.92283" lon="2.79563">
        <ele>630</ele>
        <time>2025-05-06T18:27:18Z</time>
      </trkpt>
      <trkpt lat="45.92269" lon="2.79571">
        <ele>631</ele>
        <time>2025-05-06T18:27:30Z</time>
      </trkpt>
      <trkpt lat="45.92204" lon="2.7966">
        <ele>636</ele>
        <time>2025-05-06T18:28:42Z</time>
      </trkpt>
      <trkpt lat="45.92191" lon="2.79686">
        <ele>636</ele>
        <time>2025-05-06T18:29:00Z</time>
      </trkpt>
      <trkpt lat="45.92179" lon="2.79742">
        <ele>641</ele>
        <time>2025-05-06T18:29:33Z</time>
      </trkpt>
      <trkpt lat="45.92171" lon="2.79802">
        <ele>643</ele>
        <time>2025-05-06T18:30:07Z</time>
      </trkpt>
      <trkpt lat="45.92171" lon="2.79819">
        <ele>645</ele>
        <time>2025-05-06T18:30:16Z</time>
      </trkpt>
      <trkpt lat="45.92174" lon="2.79835">
        <ele>647</ele>
        <time>2025-05-06T18:30:26Z</time>
      </trkpt>
      <trkpt lat="45.92214" lon="2.80001">
        <ele>662</ele>
        <time>2025-05-06T18:32:03Z</time>
      </trkpt>
      <trkpt lat="45.92226" lon="2.80036">
        <ele>663</ele>
        <time>2025-05-06T18:32:25Z</time>
      </trkpt>
      <trkpt lat="45.92232" lon="2.80045">
        <ele>663</ele>
        <time>2025-05-06T18:32:32Z</time>
      </trkpt>
      <trkpt lat="45.92281" lon="2.80094">
        <ele>668</ele>
        <time>2025-05-06T18:33:20Z</time>
      </trkpt>
      <trkpt lat="45.92293" lon="2.80111">
        <ele>671</ele>
        <time>2025-05-06T18:33:33Z</time>
      </trkpt>
      <trkpt lat="45.923" lon="2.80131">
        <ele>672</ele>
        <time>2025-05-06T18:33:46Z</time>
      </trkpt>
      <trkpt lat="45.92301" lon="2.80154">
        <ele>671</ele>
        <time>2025-05-06T18:33:59Z</time>
      </trkpt>
      <trkpt lat="45.92297" lon="2.80235">
        <ele>675</ele>
        <time>2025-05-06T18:34:44Z</time>
      </trkpt>
      <trkpt lat="45.92303" lon="2.80269">
        <ele>677</ele>
        <time>2025-05-06T18:35:03Z</time>
      </trkpt>
      <trkpt lat="45.92342" lon="2.80372">
        <ele>679</ele>
        <time>2025-05-06T18:36:09Z</time>
      </trkpt>
      <trkpt lat="45.92356" lon="2.80392">
        <ele>681</ele>
        <time>2025-05-06T18:36:25Z</time>
      </trkpt>
      <trkpt lat="45.92559" lon="2.80572">
        <ele>692</ele>
        <time>2025-05-06T18:39:35Z</time>
      </trkpt>
      <trkpt lat="45.9257" lon="2.80592">
        <ele>692</ele>
        <time>2025-05-06T18:39:50Z</time>
      </trkpt>
      <trkpt lat="45.92575" lon="2.80608">
        <ele>693</ele>
        <time>2025-05-06T18:39:59Z</time>
      </trkpt>
      <trkpt lat="45.92577" lon="2.80624">
        <ele>694</ele>
        <time>2025-05-06T18:40:08Z</time>
      </trkpt>
      <trkpt lat="45.92576" lon="2.80644">
        <ele>695</ele>
        <time>2025-05-06T18:40:20Z</time>
      </trkpt>
      <trkpt lat="45.9256" lon="2.80784">
        <ele>699</ele>
        <time>2025-05-06T18:41:39Z</time>
      </trkpt>
      <trkpt lat="45.9256" lon="2.81036">
        <ele>703</ele>
        <time>2025-05-06T18:43:59Z</time>
      </trkpt>
      <trkpt lat="45.92555" lon="2.81093">
        <ele>703</ele>
        <time>2025-05-06T18:44:31Z</time>
      </trkpt>
      <trkpt lat="45.92543" lon="2.81173">
        <ele>702</ele>
        <time>2025-05-06T18:45:17Z</time>
      </trkpt>
      <trkpt lat="45.92542" lon="2.81198">
        <ele>703</ele>
        <time>2025-05-06T18:45:31Z</time>
      </trkpt>
      <trkpt lat="45.92542" lon="2.81291">
        <ele>704</ele>
        <time>2025-05-06T18:46:22Z</time>
      </trkpt>
      <trkpt lat="45.92561" lon="2.81473">
        <ele>707</ele>
        <time>2025-05-06T18:48:05Z</time>
      </trkpt>
      <trkpt lat="45.92562" lon="2.81532">
        <ele>708</ele>
        <time>2025-05-06T18:48:38Z</time>
      </trkpt>
      <trkpt lat="45.92534" lon="2.82136">
        <ele>705</ele>
        <time>2025-05-06T18:54:15Z</time>
      </trkpt>
      <trkpt lat="45.92537" lon="2.82194">
        <ele>705</ele>
        <time>2025-05-06T18:54:47Z</time>
      </trkpt>
      <trkpt lat="45.9254" lon="2.82213">
        <ele>706</ele>
        <time>2025-05-06T18:54:58Z</time>
      </trkpt>
      <trkpt lat="45.92552" lon="2.82254">
        <ele>706</ele>
        <time>2025-05-06T18:55:23Z</time>
      </trkpt>
      <trkpt lat="45.92627" lon="2.82445">
        <ele>710</ele>
        <time>2025-05-06T18:57:25Z</time>
      </trkpt>
      <trkpt lat="45.92673" lon="2.82573">
        <ele>713</ele>
        <time>2025-05-06T18:58:45Z</time>
      </trkpt>
      <trkpt lat="45.9275" lon="2.82865">
        <ele>718</ele>
        <time>2025-05-06T19:01:39Z</time>
      </trkpt>
      <trkpt lat="45.92759" lon="2.82894">
        <ele>719</ele>
        <time>2025-05-06T19:01:57Z</time>
      </trkpt>
      <trkpt lat="45.92791" lon="2.82964">
        <ele>719</ele>
        <time>2025-05-06T19:02:44Z</time>
      </trkpt>
      <trkpt lat="45.92787" lon="2.82969">
        <ele>719</ele>
        <time>2025-05-06T19:02:48Z</time>
      </trkpt>
      <trkpt lat="45.92784" lon="2.82983">
        <ele>719</ele>
        <time>2025-05-06T19:02:56Z</time>
      </trkpt>
      <trkpt lat="45.92784" lon="2.82989">
        <ele>719</ele>
        <time>2025-05-06T19:02:59Z</time>
      </trkpt>
      <trkpt lat="45.92789" lon="2.83">
        <ele>719</ele>
        <time>2025-05-06T19:03:07Z</time>
      </trkpt>
      <trkpt lat="45.92797" lon="2.83005">
        <ele>719</ele>
        <time>2025-05-06T19:03:14Z</time>
      </trkpt>
      <trkpt lat="45.92802" lon="2.83005">
        <ele>719</ele>
        <time>2025-05-06T19:03:18Z</time>
      </trkpt>
      <trkpt lat="45.9281" lon="2.82999">
        <ele>719</ele>
        <time>2025-05-06T19:03:25Z</time>
      </trkpt>
      <trkpt lat="45.92823" lon="2.83012">
        <ele>719</ele>
        <time>2025-05-06T19:03:37Z</time>
      </trkpt>
      <trkpt lat="45.93071" lon="2.83152">
        <ele>714</ele>
        <time>2025-05-06T19:07:11Z</time>
      </trkpt>
      <trkpt lat="45.93105" lon="2.83173">
        <ele>710</ele>
        <time>2025-05-06T19:07:40Z</time>
      </trkpt>
      <trkpt lat="45.93119" lon="2.83186">
        <ele>709</ele>
        <time>2025-05-06T19:07:54Z</time>
      </trkpt>
      <trkpt lat="45.93129" lon="2.83201">
        <ele>707</ele>
        <time>2025-05-06T19:08:05Z</time>
      </trkpt>
      <trkpt lat="45.93136" lon="2.83219">
        <ele>707</ele>
        <time>2025-05-06T19:08:17Z</time>
      </trkpt>
      <trkpt lat="45.93205" lon="2.83432">
        <ele>695</ele>
        <time>2025-05-06T19:10:28Z</time>
      </trkpt>
      <trkpt lat="45.93219" lon="2.8346">
        <ele>696</ele>
        <time>2025-05-06T19:10:47Z</time>
      </trkpt>
      <trkpt lat="45.93234" lon="2.83483">
        <ele>698</ele>
        <time>2025-05-06T19:11:04Z</time>
      </trkpt>
      <trkpt lat="45.93253" lon="2.83505">
        <ele>700</ele>
        <time>2025-05-06T19:11:24Z</time>
      </trkpt>
      <trkpt lat="45.93298" lon="2.83538">
        <ele>702</ele>
        <time>2025-05-06T19:12:04Z</time>
      </trkpt>
      <trkpt lat="45.93319" lon="2.83547">
        <ele>703</ele>
        <time>2025-05-06T19:12:22Z</time>
      </trkpt>
      <trkpt lat="45.93368" lon="2.8355">
        <ele>705</ele>
        <time>2025-05-06T19:13:01Z</time>
      </trkpt>
      <trkpt lat="45.93387" lon="2.8356">
        <ele>707</ele>
        <time>2025-05-06T19:13:17Z</time>
      </trkpt>
      <trkpt lat="45.93394" lon="2.83571">
        <ele>708</ele>
        <time>2025-05-06T19:13:26Z</time>
      </trkpt>
      <trkpt lat="45.93398" lon="2.83583">
        <ele>709</ele>
        <time>2025-05-06T19:13:33Z</time>
      </trkpt>
      <trkpt lat="45.934" lon="2.836">
        <ele>709</ele>
        <time>2025-05-06T19:13:43Z</time>
      </trkpt>
      <trkpt lat="45.93396" lon="2.83617">
        <ele>710</ele>
        <time>2025-05-06T19:13:53Z</time>
      </trkpt>
      <trkpt lat="45.93388" lon="2.83628">
        <ele>710</ele>
        <time>2025-05-06T19:14:02Z</time>
      </trkpt>
      <trkpt lat="45.93576" lon="2.8395">
        <ele>724</ele>
        <time>2025-05-06T19:17:56Z</time>
      </trkpt>
      <trkpt lat="45.93595" lon="2.83972">
        <ele>726</ele>
        <time>2025-05-06T19:18:15Z</time>
      </trkpt>
      <trkpt lat="45.93667" lon="2.84017">
        <ele>726</ele>
        <time>2025-05-06T19:19:18Z</time>
      </trkpt>
      <trkpt lat="45.93774" lon="2.84079">
        <ele>732</ele>
        <time>2025-05-06T19:20:50Z</time>
      </trkpt>
      <trkpt lat="45.93823" lon="2.84095">
        <ele>735</ele>
        <time>2025-05-06T19:21:31Z</time>
      </trkpt>
      <trkpt lat="45.93844" lon="2.84075">
        <ele>736</ele>
        <time>2025-05-06T19:21:51Z</time>
      </trkpt>
      <trkpt lat="45.93877" lon="2.84055">
        <ele>736</ele>
        <time>2025-05-06T19:22:20Z</time>
      </trkpt>
      <trkpt lat="45.93908" lon="2.84051">
        <ele>736</ele>
        <time>2025-05-06T19:22:44Z</time>
      </trkpt>
      <trkpt lat="45.93924" lon="2.84053">
        <ele>736</ele>
        <time>2025-05-06T19:22:57Z</time>
      </trkpt>
      <trkpt lat="45.93955" lon="2.84066">
        <ele>735</ele>
        <time>2025-05-06T19:23:23Z</time>
      </trkpt>
      <trkpt lat="45.93966" lon="2.84075">
        <ele>735</ele>
        <time>2025-05-06T19:23:33Z</time>
      </trkpt>
      <trkpt lat="45.93996" lon="2.84111">
        <ele>734</ele>
        <time>2025-05-06T19:24:05Z</time>
      </trkpt>
      <trkpt lat="45.94042" lon="2.84173">
        <ele>734</ele>
        <time>2025-05-06T19:24:55Z</time>
      </trkpt>
      <trkpt lat="45.94055" lon="2.84186">
        <ele>735</ele>
        <time>2025-05-06T19:25:08Z</time>
      </trkpt>
      <trkpt lat="45.94071" lon="2.84197">
        <ele>735</ele>
        <time>2025-05-06T19:25:22Z</time>
      </trkpt>
      <trkpt lat="45.94129" lon="2.84223">
        <ele>738</ele>
        <time>2025-05-06T19:26:11Z</time>
      </trkpt>
      <trkpt lat="45.94148" lon="2.84235">
        <ele>739</ele>
        <time>2025-05-06T19:26:27Z</time>
      </trkpt>
      <trkpt lat="45.94167" lon="2.84256">
        <ele>740</ele>
        <time>2025-05-06T19:26:46Z</time>
      </trkpt>
      <trkpt lat="45.94189" lon="2.84292">
        <ele>741</ele>
        <time>2025-05-06T19:27:13Z</time>
      </trkpt>
      <trkpt lat="45.94196" lon="2.84309">
        <ele>741</ele>
        <time>2025-05-06T19:27:24Z</time>
      </trkpt>
      <trkpt lat="45.94255" lon="2.84556">
        <ele>745</ele>
        <time>2025-05-06T19:29:50Z</time>
      </trkpt>
      <trkpt lat="45.94314" lon="2.84717">
        <ele>748</ele>
        <time>2025-05-06T19:31:31Z</time>
      </trkpt>
      <trkpt lat="45.94319" lon="2.84724">
        <ele>748</ele>
        <time>2025-05-06T19:31:36Z</time>
      </trkpt>
      <trkpt lat="45.94353" lon="2.84735">
        <ele>749</ele>
        <time>2025-05-06T19:32:04Z</time>
      </trkpt>
      <trkpt lat="45.94356" lon="2.84738">
        <ele>749</ele>
        <time>2025-05-06T19:32:07Z</time>
      </trkpt>
      <trkpt lat="45.94362" lon="2.84752">
        <ele>749</ele>
        <time>2025-05-06T19:32:16Z</time>
      </trkpt>
      <trkpt lat="45.94376" lon="2.84815">
        <ele>750</ele>
        <time>2025-05-06T19:32:53Z</time>
      </trkpt>
      <trkpt lat="45.9439" lon="2.84859">
        <ele>752</ele>
        <time>2025-05-06T19:33:20Z</time>
      </trkpt>
      <trkpt lat="45.94413" lon="2.84915">
        <ele>754</ele>
        <time>2025-05-06T19:33:56Z</time>
      </trkpt>
      <trkpt lat="45.94542" lon="2.85152">
        <ele>758</ele>
        <time>2025-05-06T19:36:44Z</time>
      </trkpt>
      <trkpt lat="45.94555" lon="2.85181">
        <ele>757</ele>
        <time>2025-05-06T19:37:03Z</time>
      </trkpt>
      <trkpt lat="45.94564" lon="2.85204">
        <ele>758</ele>
        <time>2025-05-06T19:37:18Z</time>
      </trkpt>
      <trkpt lat="45.94575" lon="2.8525">
        <ele>759</ele>
        <time>2025-05-06T19:37:45Z</time>
      </trkpt>
      <trkpt lat="45.94589" lon="2.85398">
        <ele>758</ele>
        <time>2025-05-06T19:39:08Z</time>
      </trkpt>
      <trkpt lat="45.94589" lon="2.85427">
        <ele>758</ele>
        <time>2025-05-06T19:39:24Z</time>
      </trkpt>
      <trkpt lat="45.94584" lon="2.85485">
        <ele>756</ele>
        <time>2025-05-06T19:39:57Z</time>
      </trkpt>
      <trkpt lat="45.94545" lon="2.8583">
        <ele>755</ele>
        <time>2025-05-06T19:43:11Z</time>
      </trkpt>
      <trkpt lat="45.94541" lon="2.85887">
        <ele>755</ele>
        <time>2025-05-06T19:43:43Z</time>
      </trkpt>
      <trkpt lat="45.94569" lon="2.86253">
        <ele>758</ele>
        <time>2025-05-06T19:47:08Z</time>
      </trkpt>
      <trkpt lat="45.94569" lon="2.8631">
        <ele>760</ele>
        <time>2025-05-06T19:47:40Z</time>
      </trkpt>
      <trkpt lat="45.94565" lon="2.86364">
        <ele>762</ele>
        <time>2025-05-06T19:48:10Z</time>
      </trkpt>
      <trkpt lat="45.94537" lon="2.86636">
        <ele>764</ele>
        <time>2025-05-06T19:50:43Z</time>
      </trkpt>
      <trkpt lat="45.94561" lon="2.86985">
        <ele>760</ele>
        <time>2025-05-06T19:53:59Z</time>
      </trkpt>
      <trkpt lat="45.94565" lon="2.87014">
        <ele>759</ele>
        <time>2025-05-06T19:54:15Z</time>
      </trkpt>
      <trkpt lat="45.94587" lon="2.87064">
        <ele>757</ele>
        <time>2025-05-06T19:54:48Z</time>
      </trkpt>
      <trkpt lat="45.94627" lon="2.87126">
        <ele>754</ele>
        <time>2025-05-06T19:55:35Z</time>
      </trkpt>
      <trkpt lat="45.9464" lon="2.8715">
        <ele>753</ele>
        <time>2025-05-06T19:55:52Z</time>
      </trkpt>
      <trkpt lat="45.94685" lon="2.87274">
        <ele>753</ele>
        <time>2025-05-06T19:57:10Z</time>
      </trkpt>
      <trkpt lat="45.9473" lon="2.87351">
        <ele>752</ele>
        <time>2025-05-06T19:58:06Z</time>
      </trkpt>
      <trkpt lat="45.94756" lon="2.87408">
        <ele>751</ele>
        <time>2025-05-06T19:58:44Z</time>
      </trkpt>
      <trkpt lat="45.94798" lon="2.87517">
        <ele>752</ele>
        <time>2025-05-06T19:59:53Z</time>
      </trkpt>
      <trkpt lat="45.94809" lon="2.87551">
        <ele>752</ele>
        <time>2025-05-06T20:00:14Z</time>
      </trkpt>
      <trkpt lat="45.94857" lon="2.87732">
        <ele>752</ele>
        <time>2025-05-06T20:02:02Z</time>
      </trkpt>
      <trkpt lat="45.94873" lon="2.87775">
        <ele>752</ele>
        <time>2025-05-06T20:02:29Z</time>
      </trkpt>
      <trkpt lat="45.95019" lon="2.88042">
        <ele>742</ele>
        <time>2025-05-06T20:05:38Z</time>
      </trkpt>
      <trkpt lat="45.95043" lon="2.88073">
        <ele>740</ele>
        <time>2025-05-06T20:06:04Z</time>
      </trkpt>
      <trkpt lat="45.9511" lon="2.88128">
        <ele>738</ele>
        <time>2025-05-06T20:07:06Z</time>
      </trkpt>
      <trkpt lat="45.95122" lon="2.88141">
        <ele>738</ele>
        <time>2025-05-06T20:07:18Z</time>
      </trkpt>
      <trkpt lat="45.9516" lon="2.88199">
        <ele>736</ele>
        <time>2025-05-06T20:08:02Z</time>
      </trkpt>
      <trkpt lat="45.95206" lon="2.88288">
        <ele>730</ele>
        <time>2025-05-06T20:09:04Z</time>
      </trkpt>
      <trkpt lat="45.95211" lon="2.88316">
        <ele>728</ele>
        <time>2025-05-06T20:09:20Z</time>
      </trkpt>
      <trkpt lat="45.9521" lon="2.88346">
        <ele>726</ele>
        <time>2025-05-06T20:09:37Z</time>
      </trkpt>
      <trkpt lat="45.95207" lon="2.8836">
        <ele>725</ele>
        <time>2025-05-06T20:09:45Z</time>
      </trkpt>
      <trkpt lat="45.95196" lon="2.88387">
        <ele>724</ele>
        <time>2025-05-06T20:10:02Z</time>
      </trkpt>
      <trkpt lat="45.95164" lon="2.88431">
        <ele>723</ele>
        <time>2025-05-06T20:10:38Z</time>
      </trkpt>
      <trkpt lat="45.95155" lon="2.88456">
        <ele>721</ele>
        <time>2025-05-06T20:10:53Z</time>
      </trkpt>
      <trkpt lat="45.95151" lon="2.88489">
        <ele>719</ele>
        <time>2025-05-06T20:11:12Z</time>
      </trkpt>
      <trkpt lat="45.95156" lon="2.88525">
        <ele>716</ele>
        <time>2025-05-06T20:11:33Z</time>
      </trkpt>
      <trkpt lat="45.95166" lon="2.88553">
        <ele>715</ele>
        <time>2025-05-06T20:11:50Z</time>
      </trkpt>
      <trkpt lat="45.95206" lon="2.88627">
        <ele>710</ele>
        <time>2025-05-06T20:12:42Z</time>
      </trkpt>
      <trkpt lat="45.95213" lon="2.88644">
        <ele>709</ele>
        <time>2025-05-06T20:12:53Z</time>
      </trkpt>
      <trkpt lat="45.9522" lon="2.88681">
        <ele>707</ele>
        <time>2025-05-06T20:13:15Z</time>
      </trkpt>
      <trkpt lat="45.9522" lon="2.88713">
        <ele>705</ele>
        <time>2025-05-06T20:13:32Z</time>
      </trkpt>
      <trkpt lat="45.95204" lon="2.88778">
        <ele>703</ele>
        <time>2025-05-06T20:14:11Z</time>
      </trkpt>
      <trkpt lat="45.95177" lon="2.88857">
        <ele>700</ele>
        <time>2025-05-06T20:15:00Z</time>
      </trkpt>
      <trkpt lat="45.95158" lon="2.8889">
        <ele>698</ele>
        <time>2025-05-06T20:15:24Z</time>
      </trkpt>
      <trkpt lat="45.95116" lon="2.88933">
        <ele>695</ele>
        <time>2025-05-06T20:16:05Z</time>
      </trkpt>
      <trkpt lat="45.95107" lon="2.88945">
        <ele>694</ele>
        <time>2025-05-06T20:16:15Z</time>
      </trkpt>
      <trkpt lat="45.95098" lon="2.8896">
        <ele>693</ele>
        <time>2025-05-06T20:16:26Z</time>
      </trkpt>
      <trkpt lat="45.95092" lon="2.88977">
        <ele>692</ele>
        <time>2025-05-06T20:16:36Z</time>
      </trkpt>
      <trkpt lat="45.95086" lon="2.89013">
        <ele>689</ele>
        <time>2025-05-06T20:16:57Z</time>
      </trkpt>
      <trkpt lat="45.9509" lon="2.89053">
        <ele>688</ele>
        <time>2025-05-06T20:17:19Z</time>
      </trkpt>
      <trkpt lat="45.95095" lon="2.89073">
        <ele>687</ele>
        <time>2025-05-06T20:17:31Z</time>
      </trkpt>
      <trkpt lat="45.95112" lon="2.89122">
        <ele>685</ele>
        <time>2025-05-06T20:18:02Z</time>
      </trkpt>
      <trkpt lat="45.95201" lon="2.89255">
        <ele>680</ele>
        <time>2025-05-06T20:19:45Z</time>
      </trkpt>
      <trkpt lat="45.9525" lon="2.89353">
        <ele>675</ele>
        <time>2025-05-06T20:20:52Z</time>
      </trkpt>
      <trkpt lat="45.95273" lon="2.89379">
        <ele>675</ele>
        <time>2025-05-06T20:21:15Z</time>
      </trkpt>
      <trkpt lat="45.95333" lon="2.89437">
        <ele>675</ele>
        <time>2025-05-06T20:22:13Z</time>
      </trkpt>
      <trkpt lat="45.95454" lon="2.89622">
        <ele>674</ele>
        <time>2025-05-06T20:24:34Z</time>
      </trkpt>
      <trkpt lat="45.95489" lon="2.89688">
        <ele>673</ele>
        <time>2025-05-06T20:25:21Z</time>
      </trkpt>
      <trkpt lat="45.95609" lon="2.89954">
        <ele>672</ele>
        <time>2025-05-06T20:28:17Z</time>
      </trkpt>
      <trkpt lat="45.95726" lon="2.9019">
        <ele>672</ele>
        <time>2025-05-06T20:30:58Z</time>
      </trkpt>
      <trkpt lat="45.95774" lon="2.90356">
        <ele>668</ele>
        <time>2025-05-06T20:32:39Z</time>
      </trkpt>
      <trkpt lat="45.95786" lon="2.90498">
        <ele>662</ele>
        <time>2025-05-06T20:33:58Z</time>
      </trkpt>
      <trkpt lat="45.95799" lon="2.9057">
        <ele>660</ele>
        <time>2025-05-06T20:34:40Z</time>
      </trkpt>
      <trkpt lat="45.95903" lon="2.90721">
        <ele>658</ele>
        <time>2025-05-06T20:36:38Z</time>
      </trkpt>
      <trkpt lat="45.95922" lon="2.90768">
        <ele>657</ele>
        <time>2025-05-06T20:37:08Z</time>
      </trkpt>
      <trkpt lat="45.95945" lon="2.90867">
        <ele>652</ele>
        <time>2025-05-06T20:38:06Z</time>
      </trkpt>
      <trkpt lat="45.9596" lon="2.90897">
        <ele>650</ele>
        <time>2025-05-06T20:38:27Z</time>
      </trkpt>
      <trkpt lat="45.95982" lon="2.90921">
        <ele>649</ele>
        <time>2025-05-06T20:38:49Z</time>
      </trkpt>
      <trkpt lat="45.96068" lon="2.90975">
        <ele>647</ele>
        <time>2025-05-06T20:40:04Z</time>
      </trkpt>
      <trkpt lat="45.96085" lon="2.91003">
        <ele>646</ele>
        <time>2025-05-06T20:40:25Z</time>
      </trkpt>
      <trkpt lat="45.96117" lon="2.91115">
        <ele>640</ele>
        <time>2025-05-06T20:41:32Z</time>
      </trkpt>
      <trkpt lat="45.96131" lon="2.91137">
        <ele>640</ele>
        <time>2025-05-06T20:41:49Z</time>
      </trkpt>
      <trkpt lat="45.9623" lon="2.91219">
        <ele>636</ele>
        <time>2025-05-06T20:43:20Z</time>
      </trkpt>
      <trkpt lat="45.96244" lon="2.91233">
        <ele>635</ele>
        <time>2025-05-06T20:43:34Z</time>
      </trkpt>
      <trkpt lat="45.96261" lon="2.91258">
        <ele>634</ele>
        <time>2025-05-06T20:43:53Z</time>
      </trkpt>
      <trkpt lat="45.96269" lon="2.91277">
        <ele>633</ele>
        <time>2025-05-06T20:44:06Z</time>
      </trkpt>
      <trkpt lat="45.96334" lon="2.915">
        <ele>626</ele>
        <time>2025-05-06T20:46:20Z</time>
      </trkpt>
      <trkpt lat="45.96382" lon="2.9176">
        <ele>628</ele>
        <time>2025-05-06T20:48:50Z</time>
      </trkpt>
      <trkpt lat="45.96409" lon="2.91853">
        <ele>630</ele>
        <time>2025-05-06T20:49:46Z</time>
      </trkpt>
      <trkpt lat="45.96455" lon="2.91985">
        <ele>631</ele>
        <time>2025-05-06T20:51:08Z</time>
      </trkpt>
      <trkpt lat="45.96462" lon="2.9201">
        <ele>631</ele>
        <time>2025-05-06T20:51:23Z</time>
      </trkpt>
      <trkpt lat="45.96477" lon="2.92096">
        <ele>632</ele>
        <time>2025-05-06T20:52:13Z</time>
      </trkpt>
      <trkpt lat="45.96483" lon="2.92151">
        <ele>633</ele>
        <time>2025-05-06T20:52:44Z</time>
      </trkpt>
      <trkpt lat="45.96482" lon="2.92176">
        <ele>633</ele>
        <time>2025-05-06T20:52:58Z</time>
      </trkpt>
      <trkpt lat="45.9647" lon="2.92231">
        <ele>633</ele>
        <time>2025-05-06T20:53:30Z</time>
      </trkpt>
      <trkpt lat="45.96447" lon="2.92292">
        <ele>632</ele>
        <time>2025-05-06T20:54:08Z</time>
      </trkpt>
      <trkpt lat="45.96432" lon="2.92344">
        <ele>631</ele>
        <time>2025-05-06T20:54:40Z</time>
      </trkpt>
      <trkpt lat="45.96428" lon="2.92397">
        <ele>629</ele>
        <time>2025-05-06T20:55:09Z</time>
      </trkpt>
      <trkpt lat="45.96435" lon="2.92438">
        <ele>628</ele>
        <time>2025-05-06T20:55:33Z</time>
      </trkpt>
      <trkpt lat="45.96459" lon="2.92541">
        <ele>628</ele>
        <time>2025-05-06T20:56:33Z</time>
      </trkpt>
      <trkpt lat="45.96463" lon="2.92585">
        <ele>628</ele>
        <time>2025-05-06T20:56:58Z</time>
      </trkpt>
      <trkpt lat="45.96463" lon="2.92623">
        <ele>627</ele>
        <time>2025-05-06T20:57:19Z</time>
      </trkpt>
      <trkpt lat="45.9646" lon="2.92659">
        <ele>627</ele>
        <time>2025-05-06T20:57:39Z</time>
      </trkpt>
      <trkpt lat="45.96466" lon="2.92665">
        <ele>626</ele>
        <time>2025-05-06T20:57:45Z</time>
      </trkpt>
      <trkpt lat="45.96446" lon="2.92822">
        <ele>622</ele>
        <time>2025-05-06T20:59:14Z</time>
      </trkpt>
      <trkpt lat="45.96428" lon="2.93008">
        <ele>622</ele>
        <time>2025-05-06T21:00:58Z</time>
      </trkpt>
      <trkpt lat="45.96426" lon="2.93044">
        <ele>622</ele>
        <time>2025-05-06T21:01:19Z</time>
      </trkpt>
      <trkpt lat="45.96427" lon="2.93126">
        <ele>623</ele>
        <time>2025-05-06T21:02:04Z</time>
      </trkpt>
      <trkpt lat="45.96436" lon="2.93196">
        <ele>623</ele>
        <time>2025-05-06T21:02:44Z</time>
      </trkpt>
      <trkpt lat="45.96446" lon="2.93237">
        <ele>622</ele>
        <time>2025-05-06T21:03:08Z</time>
      </trkpt>
      <trkpt lat="45.96484" lon="2.9336">
        <ele>622</ele>
        <time>2025-05-06T21:04:23Z</time>
      </trkpt>
      <trkpt lat="45.96505" lon="2.93416">
        <ele>620</ele>
        <time>2025-05-06T21:04:58Z</time>
      </trkpt>
      <trkpt lat="45.96531" lon="2.93508">
        <ele>619</ele>
        <time>2025-05-06T21:05:54Z</time>
      </trkpt>
      <trkpt lat="45.96542" lon="2.93575">
        <ele>620</ele>
        <time>2025-05-06T21:06:32Z</time>
      </trkpt>
      <trkpt lat="45.96545" lon="2.93616">
        <ele>620</ele>
        <time>2025-05-06T21:06:55Z</time>
      </trkpt>
      <trkpt lat="45.96544" lon="2.93671">
        <ele>620</ele>
        <time>2025-05-06T21:07:25Z</time>
      </trkpt>
      <trkpt lat="45.96539" lon="2.93704">
        <ele>620</ele>
        <time>2025-05-06T21:07:44Z</time>
      </trkpt>
      <trkpt lat="45.96527" lon="2.93733">
        <ele>621</ele>
        <time>2025-05-06T21:08:03Z</time>
      </trkpt>
      <trkpt lat="45.9651" lon="2.93761">
        <ele>621</ele>
        <time>2025-05-06T21:08:24Z</time>
      </trkpt>
      <trkpt lat="45.965" lon="2.93771">
        <ele>620</ele>
        <time>2025-05-06T21:08:34Z</time>
      </trkpt>
      <trkpt lat="45.96485" lon="2.93778">
        <ele>620</ele>
        <time>2025-05-06T21:08:46Z</time>
      </trkpt>
      <trkpt lat="45.96306" lon="2.93816">
        <ele>621</ele>
        <time>2025-05-06T21:11:11Z</time>
      </trkpt>
      <trkpt lat="45.96289" lon="2.93822">
        <ele>620</ele>
        <time>2025-05-06T21:11:25Z</time>
      </trkpt>
      <trkpt lat="45.96272" lon="2.93833">
        <ele>619</ele>
        <time>2025-05-06T21:11:40Z</time>
      </trkpt>
      <trkpt lat="45.96257" lon="2.93851">
        <ele>618</ele>
        <time>2025-05-06T21:11:56Z</time>
      </trkpt>
      <trkpt lat="45.96246" lon="2.93873">
        <ele>618</ele>
        <time>2025-05-06T21:12:11Z</time>
      </trkpt>
      <trkpt lat="45.96237" lon="2.93907">
        <ele>617</ele>
        <time>2025-05-06T21:12:31Z</time>
      </trkpt>
      <trkpt lat="45.96214" lon="2.94054">
        <ele>620</ele>
        <time>2025-05-06T21:13:55Z</time>
      </trkpt>
      <trkpt lat="45.9621" lon="2.94098">
        <ele>621</ele>
        <time>2025-05-06T21:14:19Z</time>
      </trkpt>
      <trkpt lat="45.96211" lon="2.94108">
        <ele>621</ele>
        <time>2025-05-06T21:14:25Z</time>
      </trkpt>
      <trkpt lat="45.96239" lon="2.94191">
        <ele>620</ele>
        <time>2025-05-06T21:15:16Z</time>
      </trkpt>
      <trkpt lat="45.96369" lon="2.94517">
        <ele>631</ele>
        <time>2025-05-06T21:18:46Z</time>
      </trkpt>
      <trkpt lat="45.96378" lon="2.94546">
        <ele>631</ele>
        <time>2025-05-06T21:19:03Z</time>
      </trkpt>
      <trkpt lat="45.96383" lon="2.94573">
        <ele>632</ele>
        <time>2025-05-06T21:19:19Z</time>
      </trkpt>
      <trkpt lat="45.96386" lon="2.9464">
        <ele>633</ele>
        <time>2025-05-06T21:19:56Z</time>
      </trkpt>
      <trkpt lat="45.96378" lon="2.94704">
        <ele>635</ele>
        <time>2025-05-06T21:20:32Z</time>
      </trkpt>
      <trkpt lat="45.96365" lon="2.94754">
        <ele>638</ele>
        <time>2025-05-06T21:21:02Z</time>
      </trkpt>
      <trkpt lat="45.96353" lon="2.94784">
        <ele>639</ele>
        <time>2025-05-06T21:21:21Z</time>
      </trkpt>
      <trkpt lat="45.96224" lon="2.95047">
        <ele>648</ele>
        <time>2025-05-06T21:24:21Z</time>
      </trkpt>
      <trkpt lat="45.96214" lon="2.95077">
        <ele>650</ele>
        <time>2025-05-06T21:24:39Z</time>
      </trkpt>
      <trkpt lat="45.96204" lon="2.95125">
        <ele>651</ele>
        <time>2025-05-06T21:25:07Z</time>
      </trkpt>
      <trkpt lat="45.96204" lon="2.95164">
        <ele>652</ele>
        <time>2025-05-06T21:25:29Z</time>
      </trkpt>
      <trkpt lat="45.96207" lon="2.95196">
        <ele>652</ele>
        <time>2025-05-06T21:25:47Z</time>
      </trkpt>
      <trkpt lat="45.96247" lon="2.95354">
        <ele>655</ele>
        <time>2025-05-06T21:27:20Z</time>
      </trkpt>
      <trkpt lat="45.96251" lon="2.95419">
        <ele>655</ele>
        <time>2025-05-06T21:27:57Z</time>
      </trkpt>
      <trkpt lat="45.96246" lon="2.95455">
        <ele>656</ele>
        <time>2025-05-06T21:28:17Z</time>
      </trkpt>
      <trkpt lat="45.96228" lon="2.95525">
        <ele>658</ele>
        <time>2025-05-06T21:28:59Z</time>
      </trkpt>
      <trkpt lat="45.96206" lon="2.95593">
        <ele>659</ele>
        <time>2025-05-06T21:29:40Z</time>
      </trkpt>
      <trkpt lat="45.96175" lon="2.9566">
        <ele>658</ele>
        <time>2025-05-06T21:30:25Z</time>
      </trkpt>
      <trkpt lat="45.96149" lon="2.95703">
        <ele>660</ele>
        <time>2025-05-06T21:30:57Z</time>
      </trkpt>
      <trkpt lat="45.96167" lon="2.95731">
        <ele>660</ele>
        <time>2025-05-06T21:31:18Z</time>
      </trkpt>
      <trkpt lat="45.9617" lon="2.9575">
        <ele>660</ele>
        <time>2025-05-06T21:31:29Z</time>
      </trkpt>
      <trkpt lat="45.96162" lon="2.95815">
        <ele>663</ele>
        <time>2025-05-06T21:32:06Z</time>
      </trkpt>
      <trkpt lat="45.96162" lon="2.95847">
        <ele>665</ele>
        <time>2025-05-06T21:32:23Z</time>
      </trkpt>
      <trkpt lat="45.96168" lon="2.95872">
        <ele>665</ele>
        <time>2025-05-06T21:32:38Z</time>
      </trkpt>
      <trkpt lat="45.96255" lon="2.9605">
        <ele>671</ele>
        <time>2025-05-06T21:34:39Z</time>
      </trkpt>
      <trkpt lat="45.96285" lon="2.96088">
        <ele>673</ele>
        <time>2025-05-06T21:35:11Z</time>
      </trkpt>
      <trkpt lat="45.96377" lon="2.96195">
        <ele>678</ele>
        <time>2025-05-06T21:36:46Z</time>
      </trkpt>
      <trkpt lat="45.96396" lon="2.96235">
        <ele>680</ele>
        <time>2025-05-06T21:37:13Z</time>
      </trkpt>
      <trkpt lat="45.96556" lon="2.96683">
        <ele>679</ele>
        <time>2025-05-06T21:41:53Z</time>
      </trkpt>
      <trkpt lat="45.96579" lon="2.96728">
        <ele>680</ele>
        <time>2025-05-06T21:42:24Z</time>
      </trkpt>
      <trkpt lat="45.96605" lon="2.96765">
        <ele>682</ele>
        <time>2025-05-06T21:42:54Z</time>
      </trkpt>
      <trkpt lat="45.96683" lon="2.96851">
        <ele>682</ele>
        <time>2025-05-06T21:44:12Z</time>
      </trkpt>
      <trkpt lat="45.96703" lon="2.96884">
        <ele>682</ele>
        <time>2025-05-06T21:44:37Z</time>
      </trkpt>
      <trkpt lat="45.96807" lon="2.97129">
        <ele>684</ele>
        <time>2025-05-06T21:47:16Z</time>
      </trkpt>
      <trkpt lat="45.96817" lon="2.97169">
        <ele>684</ele>
        <time>2025-05-06T21:47:40Z</time>
      </trkpt>
      <trkpt lat="45.96847" lon="2.97333">
        <ele>689</ele>
        <time>2025-05-06T21:49:14Z</time>
      </trkpt>
      <trkpt lat="45.96871" lon="2.97509">
        <ele>688</ele>
        <time>2025-05-06T21:50:54Z</time>
      </trkpt>
      <trkpt lat="45.96926" lon="2.97769">
        <ele>680</ele>
        <time>2025-05-06T21:53:26Z</time>
      </trkpt>
      <trkpt lat="45.96938" lon="2.97816">
        <ele>679</ele>
        <time>2025-05-06T21:53:53Z</time>
      </trkpt>
      <trkpt lat="45.96948" lon="2.97893">
        <ele>680</ele>
        <time>2025-05-06T21:54:37Z</time>
      </trkpt>
      <trkpt lat="45.96958" lon="2.97943">
        <ele>680</ele>
        <time>2025-05-06T21:55:06Z</time>
      </trkpt>
      <trkpt lat="45.96969" lon="2.97977">
        <ele>679</ele>
        <time>2025-05-06T21:55:27Z</time>
      </trkpt>
      <trkpt lat="45.97028" lon="2.98111">
        <ele>680</ele>
        <time>2025-05-06T21:56:55Z</time>
      </trkpt>
      <trkpt lat="45.97038" lon="2.98139">
        <ele>680</ele>
        <time>2025-05-06T21:57:13Z</time>
      </trkpt>
      <trkpt lat="45.9705" lon="2.98196">
        <ele>681</ele>
        <time>2025-05-06T21:57:46Z</time>
      </trkpt>
      <trkpt lat="45.97061" lon="2.98274">
        <ele>681</ele>
        <time>2025-05-06T21:58:30Z</time>
      </trkpt>
      <trkpt lat="45.97075" lon="2.98338">
        <ele>681</ele>
        <time>2025-05-06T21:59:07Z</time>
      </trkpt>
      <trkpt lat="45.97174" lon="2.98508">
        <ele>681</ele>
        <time>2025-05-06T22:01:11Z</time>
      </trkpt>
      <trkpt lat="45.97192" lon="2.98557">
        <ele>682</ele>
        <time>2025-05-06T22:01:42Z</time>
      </trkpt>
      <trkpt lat="45.97209" lon="2.9865">
        <ele>686</ele>
        <time>2025-05-06T22:02:35Z</time>
      </trkpt>
      <trkpt lat="45.97211" lon="2.98693">
        <ele>689</ele>
        <time>2025-05-06T22:02:59Z</time>
      </trkpt>
      <trkpt lat="45.97207" lon="2.9876">
        <ele>695</ele>
        <time>2025-05-06T22:03:37Z</time>
      </trkpt>
      <trkpt lat="45.97209" lon="2.98804">
        <ele>697</ele>
        <time>2025-05-06T22:04:01Z</time>
      </trkpt>
      <trkpt lat="45.97265" lon="2.98968">
        <ele>701</ele>
        <time>2025-05-06T22:05:43Z</time>
      </trkpt>
      <trkpt lat="45.97288" lon="2.99067">
        <ele>704</ele>
        <time>2025-05-06T22:06:41Z</time>
      </trkpt>
      <trkpt lat="45.97292" lon="2.99099">
        <ele>706</ele>
        <time>2025-05-06T22:06:59Z</time>
      </trkpt>
      <trkpt lat="45.97287" lon="2.99131">
        <ele>707</ele>
        <time>2025-05-06T22:07:17Z</time>
      </trkpt>
      <trkpt lat="45.97259" lon="2.9924">
        <ele>709</ele>
        <time>2025-05-06T22:08:22Z</time>
      </trkpt>
      <trkpt lat="45.97256" lon="2.99262">
        <ele>709</ele>
        <time>2025-05-06T22:08:34Z</time>
      </trkpt>
      <trkpt lat="45.97253" lon="2.99376">
        <ele>711</ele>
        <time>2025-05-06T22:09:38Z</time>
      </trkpt>
      <trkpt lat="45.97248" lon="2.99413">
        <ele>712</ele>
        <time>2025-05-06T22:09:59Z</time>
      </trkpt>
      <trkpt lat="45.97244" lon="2.9943">
        <ele>712</ele>
        <time>2025-05-06T22:10:09Z</time>
      </trkpt>
      <trkpt lat="45.97237" lon="2.99444">
        <ele>713</ele>
        <time>2025-05-06T22:10:18Z</time>
      </trkpt>
      <trkpt lat="45.97226" lon="2.99458">
        <ele>713</ele>
        <time>2025-05-06T22:10:30Z</time>
      </trkpt>
      <trkpt lat="45.97212" lon="2.99469">
        <ele>714</ele>
        <time>2025-05-06T22:10:43Z</time>
      </trkpt>
      <trkpt lat="45.9718" lon="2.99482">
        <ele>715</ele>
        <time>2025-05-06T22:11:10Z</time>
      </trkpt>
      <trkpt lat="45.97045" lon="2.99497">
        <ele>717</ele>
        <time>2025-05-06T22:12:58Z</time>
      </trkpt>
      <trkpt lat="45.97013" lon="2.99506">
        <ele>719</ele>
        <time>2025-05-06T22:13:24Z</time>
      </trkpt>
      <trkpt lat="45.96916" lon="2.99545">
        <ele>725</ele>
        <time>2025-05-06T22:14:45Z</time>
      </trkpt>
      <trkpt lat="45.9687" lon="2.99566">
        <ele>727</ele>
        <time>2025-05-06T22:15:23Z</time>
      </trkpt>
      <trkpt lat="45.96835" lon="2.99593">
        <ele>728</ele>
        <time>2025-05-06T22:15:55Z</time>
      </trkpt>
      <trkpt lat="45.96775" lon="2.99661">
        <ele>731</ele>
        <time>2025-05-06T22:16:56Z</time>
      </trkpt>
      <trkpt lat="45.96757" lon="2.99677">
        <ele>732</ele>
        <time>2025-05-06T22:17:13Z</time>
      </trkpt>
      <trkpt lat="45.9664" lon="2.99733">
        <ele>735</ele>
        <time>2025-05-06T22:18:52Z</time>
      </trkpt>
      <trkpt lat="45.96619" lon="2.99751">
        <ele>734</ele>
        <time>2025-05-06T22:19:12Z</time>
      </trkpt>
      <trkpt lat="45.9654" lon="2.99831">
        <ele>731</ele>
        <time>2025-05-06T22:20:29Z</time>
      </trkpt>
      <trkpt lat="45.96524" lon="2.99851">
        <ele>730</ele>
        <time>2025-05-06T22:20:46Z</time>
      </trkpt>
      <trkpt lat="45.96488" lon="2.99911">
        <ele>730</ele>
        <time>2025-05-06T22:21:30Z</time>
      </trkpt>
      <trkpt lat="45.96473" lon="2.99918">
        <ele>730</ele>
        <time>2025-05-06T22:21:43Z</time>
      </trkpt>
      <trkpt lat="45.96428" lon="2.99929">
        <ele>732</ele>
        <time>2025-05-06T22:22:19Z</time>
      </trkpt>
      <trkpt lat="45.96391" lon="2.99952">
        <ele>731</ele>
        <time>2025-05-06T22:22:51Z</time>
      </trkpt>
      <trkpt lat="45.963" lon="2.99973">
        <ele>733</ele>
        <time>2025-05-06T22:24:05Z</time>
      </trkpt>
      <trkpt lat="45.96283" lon="2.99984">
        <ele>733</ele>
        <time>2025-05-06T22:24:20Z</time>
      </trkpt>
      <trkpt lat="45.9626" lon="3.00009">
        <ele>732</ele>
        <time>2025-05-06T22:24:43Z</time>
      </trkpt>
      <trkpt lat="45.96197" lon="3.00101">
        <ele>730</ele>
        <time>2025-05-06T22:25:55Z</time>
      </trkpt>
      <trkpt lat="45.96118" lon="3.00204">
        <ele>727</ele>
        <time>2025-05-06T22:27:20Z</time>
      </trkpt>
      <trkpt lat="45.96097" lon="3.00236">
        <ele>726</ele>
        <time>2025-05-06T22:27:45Z</time>
      </trkpt>
      <trkpt lat="45.9609" lon="3.00256">
        <ele>726</ele>
        <time>2025-05-06T22:27:57Z</time>
      </trkpt>
      <trkpt lat="45.96083" lon="3.00325">
        <ele>723</ele>
        <time>2025-05-06T22:28:36Z</time>
      </trkpt>
      <trkpt lat="45.96078" lon="3.00348">
        <ele>722</ele>
        <time>2025-05-06T22:28:50Z</time>
      </trkpt>
      <trkpt lat="45.96032" lon="3.0051">
        <ele>714</ele>
        <time>2025-05-06T22:30:27Z</time>
      </trkpt>
      <trkpt lat="45.96021" lon="3.00566">
        <ele>712</ele>
        <time>2025-05-06T22:30:59Z</time>
      </trkpt>
      <trkpt lat="45.96011" lon="3.00735">
        <ele>706</ele>
        <time>2025-05-06T22:32:34Z</time>
      </trkpt>
      <trkpt lat="45.95983" lon="3.00935">
        <ele>703</ele>
        <time>2025-05-06T22:34:27Z</time>
      </trkpt>
      <trkpt lat="45.95979" lon="3.00977">
        <ele>702</ele>
        <time>2025-05-06T22:34:51Z</time>
      </trkpt>
      <trkpt lat="45.9599" lon="3.01212">
        <ele>697</ele>
        <time>2025-05-06T22:37:02Z</time>
      </trkpt>
      <trkpt lat="45.95981" lon="3.01401">
        <ele>697</ele>
        <time>2025-05-06T22:38:48Z</time>
      </trkpt>
      <trkpt lat="45.95983" lon="3.01504">
        <ele>693</ele>
        <time>2025-05-06T22:39:45Z</time>
      </trkpt>
      <trkpt lat="45.95987" lon="3.01552">
        <ele>691</ele>
        <time>2025-05-06T22:40:12Z</time>
      </trkpt>
      <trkpt lat="45.96" lon="3.01633">
        <ele>689</ele>
        <time>2025-05-06T22:40:58Z</time>
      </trkpt>
      <trkpt lat="45.96008" lon="3.01671">
        <ele>688</ele>
        <time>2025-05-06T22:41:20Z</time>
      </trkpt>
      <trkpt lat="45.96029" lon="3.01748">
        <ele>684</ele>
        <time>2025-05-06T22:42:06Z</time>
      </trkpt>
      <trkpt lat="45.96062" lon="3.01838">
        <ele>683</ele>
        <time>2025-05-06T22:43:03Z</time>
      </trkpt>
      <trkpt lat="45.9614" lon="3.01988">
        <ele>680</ele>
        <time>2025-05-06T22:44:47Z</time>
      </trkpt>
      <trkpt lat="45.96162" lon="3.0204">
        <ele>677</ele>
        <time>2025-05-06T22:45:21Z</time>
      </trkpt>
      <trkpt lat="45.9617" lon="3.02068">
        <ele>676</ele>
        <time>2025-05-06T22:45:38Z</time>
      </trkpt>
      <trkpt lat="45.96098" lon="3.02124">
        <ele>678</ele>
        <time>2025-05-06T22:46:43Z</time>
      </trkpt>
      <trkpt lat="45.96039" lon="3.02176">
        <ele>678</ele>
        <time>2025-05-06T22:47:39Z</time>
      </trkpt>
      <trkpt lat="45.96007" lon="3.02219">
        <ele>678</ele>
        <time>2025-05-06T22:48:14Z</time>
      </trkpt>
      <trkpt lat="45.95962" lon="3.02307">
        <ele>676</ele>
        <time>2025-05-06T22:49:15Z</time>
      </trkpt>
      <trkpt lat="45.95952" lon="3.02322">
        <ele>675</ele>
        <time>2025-05-06T22:49:26Z</time>
      </trkpt>
      <trkpt lat="45.9594" lon="3.02337">
        <ele>675</ele>
        <time>2025-05-06T22:49:39Z</time>
      </trkpt>
      <trkpt lat="45.95911" lon="3.02363">
        <ele>676</ele>
        <time>2025-05-06T22:50:06Z</time>
      </trkpt>
      <trkpt lat="45.95901" lon="3.02368">
        <ele>676</ele>
        <time>2025-05-06T22:50:15Z</time>
      </trkpt>
      <trkpt lat="45.95803" lon="3.02396">
        <ele>675</ele>
        <time>2025-05-06T22:51:35Z</time>
      </trkpt>
      <trkpt lat="45.95781" lon="3.024">
        <ele>675</ele>
        <time>2025-05-06T22:51:53Z</time>
      </trkpt>
      <trkpt lat="45.95768" lon="3.024">
        <ele>675</ele>
        <time>2025-05-06T22:52:03Z</time>
      </trkpt>
      <trkpt lat="45.95759" lon="3.02397">
        <ele>675</ele>
        <time>2025-05-06T22:52:10Z</time>
      </trkpt>
      <trkpt lat="45.9575" lon="3.02428">
        <ele>674</ele>
        <time>2025-05-06T22:52:29Z</time>
      </trkpt>
      <trkpt lat="45.95734" lon="3.02506">
        <ele>674</ele>
        <time>2025-05-06T22:53:14Z</time>
      </trkpt>
      <trkpt lat="45.95723" lon="3.02724">
        <ele>669</ele>
        <time>2025-05-06T22:55:16Z</time>
      </trkpt>
      <trkpt lat="45.95677" lon="3.0314">
        <ele>653</ele>
        <time>2025-05-06T22:59:10Z</time>
      </trkpt>
      <trkpt lat="45.95655" lon="3.03304">
        <ele>648</ele>
        <time>2025-05-06T23:00:43Z</time>
      </trkpt>
      <trkpt lat="45.95574" lon="3.03834">
        <ele>630</ele>
        <time>2025-05-06T23:05:45Z</time>
      </trkpt>
      <trkpt lat="45.95568" lon="3.03902">
        <ele>626</ele>
        <time>2025-05-06T23:06:24Z</time>
      </trkpt>
      <trkpt lat="45.9557" lon="3.0394">
        <ele>624</ele>
        <time>2025-05-06T23:06:45Z</time>
      </trkpt>
      <trkpt lat="45.9561" lon="3.04291">
        <ele>608</ele>
        <time>2025-05-06T23:10:03Z</time>
      </trkpt>
      <trkpt lat="45.95617" lon="3.04335">
        <ele>607</ele>
        <time>2025-05-06T23:10:28Z</time>
      </trkpt>
      <trkpt lat="45.95631" lon="3.04381">
        <ele>607</ele>
        <time>2025-05-06T23:10:56Z</time>
      </trkpt>
      <trkpt lat="45.95645" lon="3.04416">
        <ele>607</ele>
        <time>2025-05-06T23:11:18Z</time>
      </trkpt>
      <trkpt lat="45.95658" lon="3.04435">
        <ele>606</ele>
        <time>2025-05-06T23:11:33Z</time>
      </trkpt>
      <trkpt lat="45.95708" lon="3.04489">
        <ele>603</ele>
        <time>2025-05-06T23:12:23Z</time>
      </trkpt>
      <trkpt lat="45.95739" lon="3.04528">
        <ele>602</ele>
        <time>2025-05-06T23:12:56Z</time>
      </trkpt>
      <trkpt lat="45.95772" lon="3.04587">
        <ele>600</ele>
        <time>2025-05-06T23:13:38Z</time>
      </trkpt>
      <trkpt lat="45.95808" lon="3.04654">
        <ele>598</ele>
        <time>2025-05-06T23:14:26Z</time>
      </trkpt>
      <trkpt lat="45.95825" lon="3.04694">
        <ele>597</ele>
        <time>2025-05-06T23:14:52Z</time>
      </trkpt>
      <trkpt lat="45.95849" lon="3.04774">
        <ele>593</ele>
        <time>2025-05-06T23:15:40Z</time>
      </trkpt>
      <trkpt lat="45.9587" lon="3.05006">
        <ele>588</ele>
        <time>2025-05-06T23:17:50Z</time>
      </trkpt>
      <trkpt lat="45.95869" lon="3.05123">
        <ele>586</ele>
        <time>2025-05-06T23:18:55Z</time>
      </trkpt>
      <trkpt lat="45.95864" lon="3.05166">
        <ele>585</ele>
        <time>2025-05-06T23:19:20Z</time>
      </trkpt>
      <trkpt lat="45.95808" lon="3.05396">
        <ele>584</ele>
        <time>2025-05-06T23:21:35Z</time>
      </trkpt>
      <trkpt lat="45.95743" lon="3.05602">
        <ele>578</ele>
        <time>2025-05-06T23:23:41Z</time>
      </trkpt>
      <trkpt lat="45.95722" lon="3.05637">
        <ele>577</ele>
        <time>2025-05-06T23:24:07Z</time>
      </trkpt>
      <trkpt lat="45.95708" lon="3.05649">
        <ele>576</ele>
        <time>2025-05-06T23:24:20Z</time>
      </trkpt>
      <trkpt lat="45.95694" lon="3.05657">
        <ele>575</ele>
        <time>2025-05-06T23:24:32Z</time>
      </trkpt>
      <trkpt lat="45.95645" lon="3.05676">
        <ele>573</ele>
        <time>2025-05-06T23:25:13Z</time>
      </trkpt>
      <trkpt lat="45.95631" lon="3.0569">
        <ele>572</ele>
        <time>2025-05-06T23:25:26Z</time>
      </trkpt>
      <trkpt lat="45.95622" lon="3.05708">
        <ele>571</ele>
        <time>2025-05-06T23:25:39Z</time>
      </trkpt>
      <trkpt lat="45.95601" lon="3.05774">
        <ele>568</ele>
        <time>2025-05-06T23:26:19Z</time>
      </trkpt>
      <trkpt lat="45.95562" lon="3.05844">
        <ele>565</ele>
        <time>2025-05-06T23:27:09Z</time>
      </trkpt>
      <trkpt lat="45.95556" lon="3.05867">
        <ele>564</ele>
        <time>2025-05-06T23:27:23Z</time>
      </trkpt>
      <trkpt lat="45.95554" lon="3.05924">
        <ele>561</ele>
        <time>2025-05-06T23:27:55Z</time>
      </trkpt>
      <trkpt lat="45.9555" lon="3.05954">
        <ele>560</ele>
        <time>2025-05-06T23:28:12Z</time>
      </trkpt>
      <trkpt lat="45.95524" lon="3.06092">
        <ele>555</ele>
        <time>2025-05-06T23:29:31Z</time>
      </trkpt>
      <trkpt lat="45.95522" lon="3.06122">
        <ele>554</ele>
        <time>2025-05-06T23:29:48Z</time>
      </trkpt>
      <trkpt lat="45.95523" lon="3.0615">
        <ele>552</ele>
        <time>2025-05-06T23:30:04Z</time>
      </trkpt>
      <trkpt lat="45.95549" lon="3.06381">
        <ele>543</ele>
        <time>2025-05-06T23:32:14Z</time>
      </trkpt>
      <trkpt lat="45.95554" lon="3.06382">
        <ele>543</ele>
        <time>2025-05-06T23:32:18Z</time>
      </trkpt>
      <trkpt lat="45.9556" lon="3.06388">
        <ele>542</ele>
        <time>2025-05-06T23:32:24Z</time>
      </trkpt>
      <trkpt lat="45.95569" lon="3.06404">
        <ele>542</ele>
        <time>2025-05-06T23:32:35Z</time>
      </trkpt>
      <trkpt lat="45.95577" lon="3.0643">
        <ele>541</ele>
        <time>2025-05-06T23:32:51Z</time>
      </trkpt>
      <trkpt lat="45.95594" lon="3.06522">
        <ele>538</ele>
        <time>2025-05-06T23:33:44Z</time>
      </trkpt>
      <trkpt lat="45.95599" lon="3.06537">
        <ele>537</ele>
        <time>2025-05-06T23:33:53Z</time>
      </trkpt>
      <trkpt lat="45.95605" lon="3.06551">
        <ele>537</ele>
        <time>2025-05-06T23:34:02Z</time>
      </trkpt>
      <trkpt lat="45.95614" lon="3.06564">
        <ele>537</ele>
        <time>2025-05-06T23:34:13Z</time>
      </trkpt>
      <trkpt lat="45.95626" lon="3.06575">
        <ele>537</ele>
        <time>2025-05-06T23:34:24Z</time>
      </trkpt>
      <trkpt lat="45.95677" lon="3.06605">
        <ele>537</ele>
        <time>2025-05-06T23:35:08Z</time>
      </trkpt>
      <trkpt lat="45.95704" lon="3.06624">
        <ele>535</ele>
        <time>2025-05-06T23:35:32Z</time>
      </trkpt>
      <trkpt lat="45.9574" lon="3.06664">
        <ele>534</ele>
        <time>2025-05-06T23:36:09Z</time>
      </trkpt>
      <trkpt lat="45.95764" lon="3.06698">
        <ele>533</ele>
        <time>2025-05-06T23:36:36Z</time>
      </trkpt>
      <trkpt lat="45.95787" lon="3.06741">
        <ele>534</ele>
        <time>2025-05-06T23:37:06Z</time>
      </trkpt>
      <trkpt lat="45.95824" lon="3.06855">
        <ele>535</ele>
        <time>2025-05-06T23:38:16Z</time>
      </trkpt>
      <trkpt lat="45.95829" lon="3.06878">
        <ele>535</ele>
        <time>2025-05-06T23:38:29Z</time>
      </trkpt>
      <trkpt lat="45.95833" lon="3.06916">
        <ele>535</ele>
        <time>2025-05-06T23:38:51Z</time>
      </trkpt>
      <trkpt lat="45.95826" lon="3.07023">
        <ele>535</ele>
        <time>2025-05-06T23:39:50Z</time>
      </trkpt>
      <trkpt lat="45.9583" lon="3.07053">
        <ele>537</ele>
        <time>2025-05-06T23:40:07Z</time>
      </trkpt>
      <trkpt lat="45.95842" lon="3.07099">
        <ele>538</ele>
        <time>2025-05-06T23:40:35Z</time>
      </trkpt>
      <trkpt lat="45.95844" lon="3.07163">
        <ele>538</ele>
        <time>2025-05-06T23:41:10Z</time>
      </trkpt>
      <trkpt lat="45.95835" lon="3.07269">
        <ele>531</ele>
        <time>2025-05-06T23:42:10Z</time>
      </trkpt>
      <trkpt lat="45.95821" lon="3.07337">
        <ele>526</ele>
        <time>2025-05-06T23:42:49Z</time>
      </trkpt>
      <trkpt lat="45.958" lon="3.07407">
        <ele>519</ele>
        <time>2025-05-06T23:43:32Z</time>
      </trkpt>
      <trkpt lat="45.95784" lon="3.07476">
        <ele>515</ele>
        <time>2025-05-06T23:44:12Z</time>
      </trkpt>
      <trkpt lat="45.95789" lon="3.07509">
        <ele>515</ele>
        <time>2025-05-06T23:44:31Z</time>
      </trkpt>
      <trkpt lat="45.95807" lon="3.07522">
        <ele>517</ele>
        <time>2025-05-06T23:44:47Z</time>
      </trkpt>
      <trkpt lat="45.95883" lon="3.07544">
        <ele>517</ele>
        <time>2025-05-06T23:45:49Z</time>
      </trkpt>
      <trkpt lat="45.95964" lon="3.07563">
        <ele>513</ele>
        <time>2025-05-06T23:46:55Z</time>
      </trkpt>
      <trkpt lat="45.96073" lon="3.07622">
        <ele>507</ele>
        <time>2025-05-06T23:48:28Z</time>
      </trkpt>
      <trkpt lat="45.9617" lon="3.07834">
        <ele>499</ele>
        <time>2025-05-06T23:50:49Z</time>
      </trkpt>
      <trkpt lat="45.96194" lon="3.07863">
        <ele>499</ele>
        <time>2025-05-06T23:51:15Z</time>
      </trkpt>
      <trkpt lat="45.96305" lon="3.07971">
        <ele>499</ele>
        <time>2025-05-06T23:53:02Z</time>
      </trkpt>
      <trkpt lat="45.96401" lon="3.08081">
        <ele>497</ele>
        <time>2025-05-06T23:54:40Z</time>
      </trkpt>
      <trkpt lat="45.96415" lon="3.08102">
        <ele>496</ele>
        <time>2025-05-06T23:54:56Z</time>
      </trkpt>
      <trkpt lat="45.96426" lon="3.08124">
        <ele>497</ele>
        <time>2025-05-06T23:55:11Z</time>
      </trkpt>
      <trkpt lat="45.96435" lon="3.08152">
        <ele>498</ele>
        <time>2025-05-06T23:55:29Z</time>
      </trkpt>
      <trkpt lat="45.9647" lon="3.08278">
        <ele>498</ele>
        <time>2025-05-06T23:56:44Z</time>
      </trkpt>
      <trkpt lat="45.96491" lon="3.0834">
        <ele>498</ele>
        <time>2025-05-06T23:57:23Z</time>
      </trkpt>
      <trkpt lat="45.96563" lon="3.08516">
        <ele>498</ele>
        <time>2025-05-06T23:59:16Z</time>
      </trkpt>
      <trkpt lat="45.96606" lon="3.08585">
        <ele>496</ele>
        <time>2025-05-07T00:00:08Z</time>
      </trkpt>
      <trkpt lat="45.96615" lon="3.08604">
        <ele>496</ele>
        <time>2025-05-07T00:00:21Z</time>
      </trkpt>
      <trkpt lat="45.96617" lon="3.0863">
        <ele>495</ele>
        <time>2025-05-07T00:00:35Z</time>
      </trkpt>
      <trkpt lat="45.96609" lon="3.08649">
        <ele>494</ele>
        <time>2025-05-07T00:00:47Z</time>
      </trkpt>
      <trkpt lat="45.96601" lon="3.08657">
        <ele>493</ele>
        <time>2025-05-07T00:00:55Z</time>
      </trkpt>
      <trkpt lat="45.96593" lon="3.0866">
        <ele>493</ele>
        <time>2025-05-07T00:01:02Z</time>
      </trkpt>
      <trkpt lat="45.96564" lon="3.08659">
        <ele>491</ele>
        <time>2025-05-07T00:01:25Z</time>
      </trkpt>
      <trkpt lat="45.96536" lon="3.08655">
        <ele>488</ele>
        <time>2025-05-07T00:01:48Z</time>
      </trkpt>
      <trkpt lat="45.965" lon="3.08654">
        <ele>485</ele>
        <time>2025-05-07T00:02:16Z</time>
      </trkpt>
      <trkpt lat="45.96487" lon="3.08656">
        <ele>485</ele>
        <time>2025-05-07T00:02:27Z</time>
      </trkpt>
      <trkpt lat="45.9648" lon="3.08662">
        <ele>485</ele>
        <time>2025-05-07T00:02:33Z</time>
      </trkpt>
      <trkpt lat="45.96475" lon="3.08671">
        <ele>484</ele>
        <time>2025-05-07T00:02:40Z</time>
      </trkpt>
      <trkpt lat="45.9647" lon="3.08695">
        <ele>482</ele>
        <time>2025-05-07T00:02:54Z</time>
      </trkpt>
      <trkpt lat="45.96472" lon="3.08712">
        <ele>480</ele>
        <time>2025-05-07T00:03:03Z</time>
      </trkpt>
      <trkpt lat="45.96478" lon="3.08728">
        <ele>479</ele>
        <time>2025-05-07T00:03:14Z</time>
      </trkpt>
      <trkpt lat="45.96505" lon="3.08781">
        <ele>475</ele>
        <time>2025-05-07T00:03:50Z</time>
      </trkpt>
      <trkpt lat="45.96513" lon="3.08804">
        <ele>474</ele>
        <time>2025-05-07T00:04:04Z</time>
      </trkpt>
      <trkpt lat="45.96528" lon="3.08903">
        <ele>470</ele>
        <time>2025-05-07T00:05:01Z</time>
      </trkpt>
      <trkpt lat="45.96532" lon="3.08962">
        <ele>467</ele>
        <time>2025-05-07T00:05:34Z</time>
      </trkpt>
      <trkpt lat="45.96529" lon="3.08975">
        <ele>467</ele>
        <time>2025-05-07T00:05:41Z</time>
      </trkpt>
      <trkpt lat="45.96523" lon="3.08984">
        <ele>466</ele>
        <time>2025-05-07T00:05:48Z</time>
      </trkpt>
      <trkpt lat="45.9651" lon="3.08994">
        <ele>464</ele>
        <time>2025-05-07T00:06:00Z</time>
      </trkpt>
      <trkpt lat="45.96528" lon="3.09094">
        <ele>460</ele>
        <time>2025-05-07T00:06:58Z</time>
      </trkpt>
      <trkpt lat="45.96553" lon="3.09185">
        <ele>455</ele>
        <time>2025-05-07T00:07:52Z</time>
      </trkpt>
      <trkpt lat="45.96565" lon="3.09261">
        <ele>447</ele>
        <time>2025-05-07T00:08:35Z</time>
      </trkpt>
      <trkpt lat="45.96596" lon="3.09368">
        <ele>441</ele>
        <time>2025-05-07T00:09:40Z</time>
      </trkpt>
      <trkpt lat="45.9661" lon="3.09426">
        <ele>438</ele>
        <time>2025-05-07T00:10:14Z</time>
      </trkpt>
      <trkpt lat="45.96643" lon="3.09512">
        <ele>433</ele>
        <time>2025-05-07T00:11:09Z</time>
      </trkpt>
      <trkpt lat="45.96682" lon="3.09587">
        <ele>427</ele>
        <time>2025-05-07T00:12:01Z</time>
      </trkpt>
      <trkpt lat="45.96758" lon="3.09774">
        <ele>414</ele>
        <time>2025-05-07T00:14:02Z</time>
      </trkpt>
      <trkpt lat="45.96787" lon="3.09851">
        <ele>409</ele>
        <time>2025-05-07T00:14:50Z</time>
      </trkpt>
      <trkpt lat="45.96796" lon="3.09878">
        <ele>407</ele>
        <time>2025-05-07T00:15:07Z</time>
      </trkpt>
      <trkpt lat="45.96813" lon="3.09958">
        <ele>401</ele>
        <time>2025-05-07T00:15:53Z</time>
      </trkpt>
      <trkpt lat="45.96821" lon="3.10032">
        <ele>396</ele>
        <time>2025-05-07T00:16:35Z</time>
      </trkpt>
      <trkpt lat="45.96827" lon="3.10059">
        <ele>394</ele>
        <time>2025-05-07T00:16:51Z</time>
      </trkpt>
      <trkpt lat="45.96837" lon="3.10084">
        <ele>393</ele>
        <time>2025-05-07T00:17:07Z</time>
      </trkpt>
      <trkpt lat="45.96851" lon="3.10101">
        <ele>392</ele>
        <time>2025-05-07T00:17:22Z</time>
      </trkpt>
      <trkpt lat="45.96875" lon="3.10124">
        <ele>392</ele>
        <time>2025-05-07T00:17:45Z</time>
      </trkpt>
      <trkpt lat="45.96885" lon="3.10138">
        <ele>391</ele>
        <time>2025-05-07T00:17:56Z</time>
      </trkpt>
      <trkpt lat="45.96929" lon="3.1026">
        <ele>386</ele>
        <time>2025-05-07T00:19:12Z</time>
      </trkpt>
      <trkpt lat="45.96966" lon="3.10461">
        <ele>381</ele>
        <time>2025-05-07T00:21:08Z</time>
      </trkpt>
      <trkpt lat="45.96969" lon="3.10513">
        <ele>380</ele>
        <time>2025-05-07T00:21:37Z</time>
      </trkpt>
      <trkpt lat="45.96967" lon="3.1057">
        <ele>377</ele>
        <time>2025-05-07T00:22:09Z</time>
      </trkpt>
      <trkpt lat="45.9696" lon="3.10596">
        <ele>376</ele>
        <time>2025-05-07T00:22:24Z</time>
      </trkpt>
      <trkpt lat="45.96948" lon="3.10616">
        <ele>376</ele>
        <time>2025-05-07T00:22:39Z</time>
      </trkpt>
      <trkpt lat="45.96925" lon="3.10675">
        <ele>375</ele>
        <time>2025-05-07T00:23:17Z</time>
      </trkpt>
      <trkpt lat="45.96904" lon="3.10778">
        <ele>372</ele>
        <time>2025-05-07T00:24:17Z</time>
      </trkpt>
      <trkpt lat="45.96893" lon="3.10856">
        <ele>369</ele>
        <time>2025-05-07T00:25:01Z</time>
      </trkpt>
      <trkpt lat="45.96893" lon="3.10878">
        <ele>368</ele>
        <time>2025-05-07T00:25:13Z</time>
      </trkpt>
      <trkpt lat="45.96902" lon="3.10922">
        <ele>367</ele>
        <time>2025-05-07T00:25:39Z</time>
      </trkpt>
      <trkpt lat="45.96923" lon="3.10998">
        <ele>366</ele>
        <time>2025-05-07T00:26:24Z</time>
      </trkpt>
      <trkpt lat="45.96922" lon="3.11014">
        <ele>366</ele>
        <time>2025-05-07T00:26:33Z</time>
      </trkpt>
      <trkpt lat="45.96911" lon="3.1106">
        <ele>366</ele>
        <time>2025-05-07T00:27:00Z</time>
      </trkpt>
      <trkpt lat="45.96897" lon="3.11147">
        <ele>365</ele>
        <time>2025-05-07T00:27:50Z</time>
      </trkpt>
    </trkseg>
  </trk>
</gpx>